[[{"header":{"parameterUnit":"m.s-1","parameterCategory":1,"la1":31.0,"la2":29.5877,"lo1":-88.7671,"lo2":-86.6584,"dy":0.0162,"dx":0.0185,"nx":115,"ny":88,"refTime":"2024-02-29T06:00:00:Z","depth":0,"parameterNumber":2,"parameterNumberName":"U-component_of_WINDS"},"data":[0.0,0.0,0.0,0.0,0.0,0.0,0.0,0.0,0.0,0.0,0.0,0.0,0.0,0.0,0.0,0.0,0.0,0.0,0.0,0.0,0.0,0.0,0.0,0.0,0.0,0.0,0.0,0.0,0.0,0.0,0.0,0.0,0.0,0.0,0.0,0.0,0.0,0.0,0.0,0.0,0.0,0.0,0.0,0.0,0.0,0.0,0.0,0.0,0.0,0.0,0.0,0.0,0.0,0.0,0.0,0.0,0.0,0.0,0.0,0.0,0.0,0.0,0.0,0.0,0.0,0.0,0.0,0.0,0.0,0.0,0.0,0.0,0.0,0.0,0.0,0.0,0.0,0.0,0.0,0.0,0.0,0.0,0.0,0.0,0.0,0.0,0.0,0.0,0.0,0.0,0.0,0.0,0.0,0.0,0.0,0.0,0.0,0.0,0.0,0.0,0.0,0.0,0.0,0.0,0.0,0.0,0.0,0.0,0.0,0.0,0.0,0.0,0.0,0.0,0.0,0.0,0.0,0.0,0.0,0.0,0.0,0.0,0.0,0.0,0.0,0.0,0.0,0.0,0.0,0.0,0.0,0.0,0.0,0.0,0.0,0.0,0.0,0.0,0.0,0.0,0.0,0.0,0.0,0.0,0.0,0.0,0.0,0.0,0.0,0.0,0.0,0.0,0.0,0.0,0.0,0.0,0.0,0.0,0.0,0.0,0.0,0.0,0.0,0.0,0.0,0.0,0.0,0.0,0.0,0.0,0.0,0.0,0.0,0.0,0.0,0.0,0.0,0.0,0.0,0.0,0.0,0.0,0.0,0.0,0.0,0.0,0.0,0.0,0.0,0.0,0.0,0.0,0.0,0.0,0.0,0.0,0.0,0.0,0.0,0.0,0.0,0.0,0.0,0.0,0.0,0.0,0.0,0.0,0.0,0.0,0.0,0.0,0.0,0.0,0.0,0.0,0.0,0.0,0.0,0.0,0.0,0.0,0.0,0.0,0.0,0.0,0.0,0.0,0.0,0.0,0.0,0.0,0.0,0.0,0.0,0.0,0.0,0.0,0.0,0.0,0.0,0.0,0.0,0.0,0.0,0.0,0.0,0.0,0.0,0.0,0.0,0.0,0.0,0.0,0.0,0.0,0.0,0.0,0.0,0.0,0.0,0.0,0.0,0.0,0.0,0.0,0.0,0.0,0.0,0.0,0.0,0.0,0.0,0.0,0.0,0.0,0.0,0.0,0.0,0.0,0.0,0.0,0.0,0.0,0.0,0.0,0.0,0.0,0.0,0.0,0.0,0.0,0.0,0.0,0.0,0.0,0.0,0.0,0.0,0.0,0.0,0.0,0.0,0.0,0.0,0.0,0.0,0.0,0.0,0.0,0.0,0.0,0.0,0.0,0.0,0.0,0.0,0.0,0.0,0.0,0.0,0.0,0.0,0.0,0.0,0.0,0.0,0.0,0.0,0.0,0.0,0.0,0.0,0.0,0.0,0.0,0.0,0.0,0.0,0.0,0.0,0.0,0.0,0.0,0.0,0.0,0.0,0.0,0.0,0.0,0.0,0.0,0.0,0.0,0.0,0.0,0.0,0.0,0.0,0.0,0.0,0.0,0.0,0.0,0.0,0.0,0.0,0.0,0.0,0.0,0.0,0.0,0.0,0.0,0.0,0.0,0.0,0.0,0.0,0.0,0.0,0.0,0.0,0.0,0.0,0.0,0.0,0.0,0.0,0.0,0.0,0.0,0.0,0.0,0.0,0.0,0.0,0.0,0.0,0.0,0.0,0.0,0.0,0.0,0.0,0.0,0.0,0.0,0.0,0.0,0.0,0.0,0.0,0.0,0.0,0.0,0.0,0.0,0.0,0.0,0.0,0.0,0.0,0.0,0.0,0.0,0.0,0.0,0.0,0.0,0.0,0.0,0.0,0.0,0.0,0.0,0.0,0.0,0.0,0.0,0.0,0.0,0.0,0.0,0.0,0.0,0.0,0.0,0.0,0.0,0.0,0.0,0.0,0.0,0.0,0.0,0.0,0.0,0.0,0.0,0.0,0.0,0.0,0.0,0.0,0.0,0.0,0.0,0.0,0.0,0.0,0.0,0.0,0.0,0.0,0.0,0.0,0.0,0.0,0.0,0.0,0.0,0.0,0.0,0.0,0.0,0.0,0.0,0.0,0.0,0.0,0.0,0.0,0.0,0.0,0.0,0.0,0.0,0.0,0.0,0.0,0.0,0.0,0.0,0.0,0.0,0.0,0.0,0.0,0.0,0.0,0.0,0.0,0.0,0.0,0.0,0.0,0.0,0.0,0.0,0.0,0.0,0.0,0.0,0.0,0.0,0.0,0.0,0.0,0.0,0.0,0.0,0.0,0.0,0.0,0.0,0.0,0.0,0.0,0.0,0.0,0.0,0.0,0.0,0.0,0.0,0.0,0.0,0.0,0.0,0.0,0.0,0.0,0.0,0.0,0.0,0.0,0.0,0.0,0.0,0.0,0.0,0.0,0.0,0.0,0.0,0.0,0.0,0.0,0.0,0.0,0.0,0.0,0.0,0.0,0.0,0.0,0.0,0.0,0.0,0.0,0.0,0.0,0.0,0.0,0.0,0.0,0.0,0.0,0.0,0.0,0.0,0.0,0.0,0.0,0.0,0.0,0.0,0.0,0.0,0.0,0.0,0.0,0.0,0.0,0.0,0.0,0.0,0.0,0.0,0.0,0.0,0.0,0.0,0.0,0.0,0.0,0.0,0.0,0.0,0.0,0.0,0.0,0.0,0.0,0.0,0.0,0.0,0.0,0.0,0.0,0.0,0.0,0.0,0.0,0.0,0.0,0.0,0.0,0.0,0.0,0.0,0.0,0.0,0.0,0.0,0.0,0.0,0.0,0.0,0.0,0.0,0.0,0.0,0.0,0.0,0.0,0.0,0.0,0.0,0.0,0.0,0.0,0.0,0.0,0.0,0.0,0.0,0.0,0.0,0.0,0.0,0.0,0.0,0.0,0.0,0.0,0.0,0.0,0.0,0.0,0.0,0.0,0.0,0.0,0.0,0.0,0.0,0.0,0.0,0.0,0.0,0.0,0.0,0.0,0.0,0.0,0.0,0.0,0.0,0.0,0.0,0.0,0.0,0.0,0.0,0.0,0.0,0.0,0.0,0.0,0.0,0.0,0.0,0.0,0.0,0.0,0.0,0.0,0.0,0.0,0.0,0.0,0.0,0.0,0.0,0.0,0.0,0.0,0.0,0.0,0.0,0.0,0.0,0.0,0.0,0.0,0.0,0.0,0.0,0.0,0.0,0.0,0.0,0.0,0.0,0.0,0.0,0.0,0.0,0.0,0.0,0.0,0.0,0.0,0.0,0.0,0.0,0.0,0.0,0.0,0.0,0.0,0.0,0.0,0.0,0.0,0.0,0.0,0.0,0.0,0.0,0.0,0.0,0.0,0.0,0.0,0.0,0.0,0.0,0.0,0.0,0.0,0.0,0.0,0.0,0.0,0.0,0.0,0.0,0.0,0.0,0.0,0.0,0.0,0.0,0.0,0.0,0.0,0.0,0.0,0.0,0.0,0.0,0.0,0.0,0.0,0.0,0.0,0.0,0.0,0.0,0.0,0.0,0.0,0.0,0.0,0.0,0.0,0.0,0.0,0.0,0.0,0.0,0.0,0.0,0.0,0.0,0.0,0.0,0.0,0.0,0.0,0.0,0.0,0.0,0.0,0.0,0.0,0.0,0.0,0.0,0.0,0.0,0.0,0.0,0.0,0.0,0.0,0.0,0.0,0.0,0.0,0.0,0.0,0.0,0.0,0.0,0.0,0.0,0.0,0.0,0.0,0.0,0.0,0.0,0.0,0.0,0.0,0.0,0.0,0.0,0.0,0.0,0.0,0.0,0.0,0.0,0.0,0.0,0.0,0.0,0.0,0.0,0.0,0.0,0.0,0.0,0.0,0.0,0.0,0.0,0.0,0.0,0.0,0.0,0.0,0.0,0.0,0.0,0.0,0.0,0.0,0.0,0.0,0.0,0.0,0.0,0.0,0.0,0.0,0.0,0.0,0.0,0.0,0.0,0.0,0.0,0.0,0.0,0.0,0.0,0.0,0.0,0.0,0.0,0.0,0.0,0.0,0.0,0.0,0.0,0.0,0.0,0.0,0.0,0.0,0.0,0.0,0.0,0.0,0.0,0.0,0.0,0.0,0.0,0.0,0.0,0.0,0.0,0.0,0.0,0.0,0.0,0.0,0.0,0.0,0.0,0.0,0.0,0.0,0.0,0.0,0.0,0.0,0.0,-1.8395,0.0,0.0,0.0,0.0,0.0,0.0,0.0,0.0,0.0,0.0,0.0,0.0,0.0,0.0,0.0,0.0,0.0,0.0,0.0,0.0,0.0,0.0,0.0,0.0,0.0,0.0,0.0,0.0,0.0,0.0,0.0,0.0,0.0,0.0,0.0,0.0,0.0,0.0,0.0,0.0,0.0,0.0,0.0,0.0,0.0,0.0,0.0,0.0,0.0,0.0,0.0,0.0,0.0,0.0,0.0,0.0,0.0,0.0,0.0,0.0,0.0,0.0,0.0,0.0,0.0,0.0,0.0,0.0,0.0,0.0,0.0,0.0,0.0,0.0,0.0,0.0,0.0,0.0,0.0,0.0,0.0,0.0,0.0,0.0,0.0,0.0,0.0,0.0,0.0,0.0,0.0,0.0,0.0,0.0,0.0,0.0,0.0,0.0,0.0,0.0,0.0,0.0,0.0,0.0,0.0,0.0,0.0,0.0,0.0,0.0,-1.945,-1.9185,-1.8918,-1.8583,-1.8178,0.0,0.0,0.0,0.0,0.0,0.0,0.0,0.0,0.0,0.0,0.0,0.0,0.0,0.0,0.0,0.0,0.0,0.0,0.0,0.0,0.0,0.0,0.0,0.0,0.0,0.0,0.0,0.0,0.0,0.0,0.0,0.0,0.0,0.0,0.0,0.0,0.0,0.0,0.0,0.0,0.0,0.0,0.0,0.0,0.0,0.0,0.0,0.0,0.0,0.0,0.0,0.0,0.0,0.0,0.0,0.0,0.0,0.0,0.0,0.0,0.0,0.0,0.0,0.0,0.0,0.0,0.0,0.0,0.0,0.0,0.0,0.0,0.0,0.0,0.0,0.0,0.0,0.0,0.0,0.0,0.0,0.0,0.0,0.0,0.0,0.0,0.0,0.0,0.0,0.0,0.0,0.0,0.0,0.0,0.0,0.0,0.0,0.0,0.0,0.0,0.0,0.0,0.0,0.0,0.0,0.0,0.0,0.0,0.0,0.0,0.0,0.0,-1.863,-1.8381,-1.8212,0.0,0.0,0.0,0.0,0.0,0.0,0.0,0.0,0.0,0.0,0.0,0.0,0.0,0.0,0.0,0.0,0.0,0.0,0.0,0.0,0.0,0.0,0.0,0.0,0.0,0.0,0.0,0.0,0.0,0.0,0.0,0.0,0.0,0.0,0.0,0.0,0.0,0.0,0.0,0.0,0.0,0.0,0.0,0.0,0.0,0.0,0.0,0.0,0.0,0.0,0.0,0.0,0.0,0.0,0.0,0.0,0.0,0.0,0.0,0.0,0.0,0.0,0.0,0.0,0.0,0.0,0.0,0.0,0.0,0.0,0.0,0.0,0.0,0.0,0.0,0.0,0.0,0.0,0.0,0.0,0.0,0.0,0.0,0.0,0.0,0.0,0.0,0.0,0.0,0.0,0.0,0.0,0.0,0.0,0.0,0.0,0.0,0.0,0.0,0.0,0.0,0.0,0.0,0.0,0.0,0.0,0.0,0.0,0.0,0.0,-1.8852,-1.8818,-1.8516,0.0,-1.8771,0.0,0.0,0.0,0.0,0.0,0.0,0.0,0.0,0.0,0.0,0.0,0.0,0.0,0.0,0.0,0.0,0.0,0.0,0.0,0.0,0.0,0.0,0.0,0.0,0.0,0.0,0.0,0.0,0.0,0.0,0.0,0.0,0.0,0.0,0.0,0.0,0.0,0.0,0.0,0.0,0.0,0.0,0.0,0.0,0.0,0.0,0.0,0.0,0.0,0.0,0.0,0.0,0.0,0.0,0.0,0.0,0.0,0.0,0.0,0.0,0.0,0.0,0.0,0.0,0.0,0.0,0.0,0.0,0.0,0.0,0.0,0.0,0.0,0.0,0.0,0.0,0.0,0.0,0.0,0.0,0.0,0.0,0.0,0.0,0.0,0.0,0.0,0.0,0.0,0.0,0.0,0.0,0.0,0.0,0.0,0.0,0.0,0.0,0.0,0.0,0.0,0.0,0.0,0.0,0.0,0.0,0.0,0.0,0.0,0.0,-1.9103,-1.8863,-1.8725,-1.876,0.0,0.0,0.0,0.0,0.0,0.0,0.0,0.0,0.0,0.0,0.0,0.0,0.0,0.0,0.0,0.0,0.0,0.0,0.0,0.0,0.0,0.0,0.0,0.0,0.0,0.0,0.0,0.0,0.0,0.0,0.0,0.0,0.0,0.0,0.0,0.0,0.0,0.0,0.0,0.0,0.0,0.0,0.0,0.0,0.0,0.0,0.0,0.0,0.0,0.0,0.0,0.0,0.0,0.0,0.0,0.0,0.0,0.0,0.0,0.0,0.0,0.0,0.0,0.0,0.0,0.0,0.0,0.0,0.0,0.0,0.0,0.0,0.0,0.0,0.0,0.0,0.0,0.0,0.0,0.0,0.0,0.0,0.0,0.0,0.0,0.0,0.0,0.0,0.0,0.0,0.0,0.0,0.0,0.0,0.0,0.0,0.0,0.0,0.0,0.0,0.0,0.0,0.0,0.0,0.0,0.0,0.0,0.0,0.0,0.0,-1.9416,-1.943,-1.9021,-1.8938,-1.8949,-1.9143,0.0,0.0,0.0,0.0,0.0,0.0,0.0,0.0,0.0,0.0,0.0,0.0,0.0,0.0,0.0,0.0,0.0,0.0,0.0,0.0,0.0,0.0,0.0,0.0,0.0,0.0,0.0,0.0,0.0,0.0,0.0,0.0,0.0,0.0,0.0,0.0,0.0,0.0,0.0,0.0,0.0,0.0,0.0,0.0,0.0,0.0,0.0,0.0,0.0,0.0,0.0,0.0,0.0,0.0,0.0,0.0,0.0,0.0,0.0,0.0,0.0,0.0,0.0,0.0,0.0,0.0,0.0,0.0,0.0,0.0,0.0,0.0,0.0,0.0,0.0,0.0,0.0,0.0,0.0,0.0,0.0,0.0,0.0,0.0,0.0,0.0,0.0,0.0,0.0,0.0,0.0,0.0,0.0,0.0,0.0,0.0,0.0,0.0,0.0,0.0,0.0,0.0,0.0,0.0,0.0,0.0,0.0,0.0,-1.9471,-1.9743,-1.9713,-1.9294,-1.9045,-1.8914,0.0,0.0,0.0,0.0,0.0,0.0,0.0,0.0,0.0,0.0,0.0,0.0,0.0,0.0,0.0,0.0,0.0,0.0,0.0,0.0,0.0,0.0,0.0,0.0,0.0,0.0,0.0,0.0,0.0,0.0,0.0,0.0,0.0,0.0,0.0,0.0,0.0,0.0,0.0,0.0,0.0,0.0,0.0,0.0,0.0,0.0,0.0,0.0,0.0,0.0,0.0,0.0,0.0,0.0,0.0,0.0,0.0,0.0,0.0,0.0,0.0,0.0,0.0,0.0,0.0,0.0,0.0,0.0,0.0,0.0,0.0,0.0,0.0,0.0,0.0,0.0,0.0,0.0,0.0,0.0,0.0,0.0,0.0,0.0,0.0,0.0,0.0,0.0,0.0,0.0,0.0,0.0,0.0,0.0,0.0,0.0,0.0,0.0,0.0,0.0,0.0,0.0,0.0,0.0,0.0,0.0,0.0,0.0,0.0,-1.9763,-1.9839,-1.9974,-2.0116,-1.9742,-1.9426,0.0,0.0,0.0,0.0,0.0,0.0,0.0,0.0,0.0,0.0,0.0,0.0,0.0,0.0,0.0,0.0,0.0,0.0,0.0,0.0,0.0,0.0,0.0,0.0,0.0,0.0,0.0,0.0,0.0,0.0,0.0,0.0,0.0,0.0,0.0,0.0,0.0,0.0,0.0,0.0,0.0,0.0,0.0,0.0,0.0,0.0,0.0,0.0,0.0,0.0,0.0,0.0,0.0,0.0,0.0,0.0,0.0,0.0,0.0,0.0,0.0,0.0,0.0,0.0,0.0,0.0,0.0,0.0,0.0,0.0,0.0,0.0,0.0,0.0,0.0,0.0,0.0,0.0,0.0,0.0,0.0,0.0,0.0,0.0,0.0,0.0,0.0,0.0,0.0,0.0,0.0,0.0,0.0,0.0,0.0,0.0,0.0,0.0,0.0,0.0,0.0,0.0,0.0,0.0,0.0,0.0,0.0,0.0,0.0,-2.032,0.0,-2.0273,-2.0566,-2.0137,-1.9707,0.0,0.0,0.0,0.0,0.0,0.0,0.0,0.0,0.0,0.0,0.0,0.0,0.0,0.0,0.0,0.0,0.0,0.0,0.0,0.0,0.0,0.0,0.0,0.0,0.0,0.0,0.0,0.0,0.0,0.0,0.0,0.0,0.0,0.0,0.0,0.0,0.0,0.0,0.0,0.0,0.0,0.0,0.0,0.0,0.0,0.0,0.0,0.0,0.0,0.0,0.0,0.0,0.0,0.0,0.0,0.0,0.0,0.0,0.0,0.0,0.0,0.0,0.0,0.0,0.0,0.0,0.0,0.0,0.0,0.0,0.0,0.0,0.0,0.0,0.0,0.0,0.0,0.0,0.0,0.0,0.0,0.0,0.0,0.0,0.0,0.0,0.0,0.0,0.0,0.0,0.0,0.0,0.0,0.0,0.0,0.0,0.0,0.0,0.0,0.0,0.0,0.0,0.0,0.0,0.0,0.0,0.0,0.0,-2.1138,-2.1165,-2.0779,-2.0586,-2.0605,-2.0156,-1.9746,0.0,0.0,0.0,0.0,0.0,0.0,0.0,0.0,0.0,0.0,0.0,0.0,0.0,0.0,0.0,0.0,0.0,0.0,0.0,0.0,0.0,0.0,0.0,0.0,0.0,0.0,0.0,0.0,0.0,0.0,0.0,0.0,0.0,0.0,0.0,0.0,0.0,0.0,0.0,0.0,0.0,0.0,0.0,0.0,0.0,0.0,0.0,0.0,0.0,0.0,0.0,0.0,0.0,0.0,0.0,0.0,0.0,0.0,0.0,0.0,0.0,0.0,0.0,0.0,0.0,0.0,0.0,0.0,0.0,0.0,0.0,0.0,0.0,0.0,0.0,0.0,0.0,0.0,0.0,0.0,0.0,0.0,0.0,0.0,0.0,0.0,0.0,0.0,0.0,0.0,0.0,0.0,0.0,0.0,0.0,0.0,0.0,0.0,0.0,0.0,0.0,0.0,0.0,0.0,0.0,0.0,0.0,0.0,0.0,-2.1225,-2.0799,-2.0605,-2.0605,-2.0468,-2.0156,0.0,0.0,0.0,0.0,0.0,0.0,0.0,0.0,0.0,0.0,0.0,0.0,0.0,0.0,0.0,0.0,0.0,0.0,0.0,0.0,0.0,0.0,0.0,0.0,0.0,0.0,0.0,0.0,0.0,0.0,0.0,0.0,0.0,0.0,0.0,0.0,0.0,0.0,0.0,0.0,0.0,0.0,0.0,0.0,0.0,0.0,0.0,0.0,0.0,0.0,0.0,0.0,0.0,0.0,0.0,0.0,0.0,0.0,0.0,0.0,0.0,0.0,0.0,0.0,0.0,0.0,0.0,0.0,0.0,0.0,0.0,0.0,0.0,0.0,0.0,0.0,0.0,0.0,0.0,0.0,0.0,0.0,0.0,0.0,0.0,0.0,0.0,0.0,0.0,0.0,0.0,0.0,0.0,0.0,0.0,0.0,0.0,0.0,0.0,0.0,0.0,0.0,0.0,0.0,0.0,0.0,0.0,0.0,0.0,-2.1949,-2.1392,-2.1094,-2.1094,-2.0898,-2.0605,-2.0176,0.0,0.0,0.0,0.0,0.0,0.0,0.0,0.0,0.0,0.0,0.0,0.0,0.0,0.0,0.0,0.0,0.0,0.0,0.0,0.0,0.0,0.0,0.0,0.0,0.0,0.0,0.0,0.0,0.0,0.0,0.0,0.0,0.0,0.0,0.0,0.0,0.0,0.0,0.0,0.0,0.0,0.0,0.0,0.0,0.0,0.0,0.0,0.0,0.0,0.0,0.0,0.0,0.0,0.0,0.0,0.0,0.0,0.0,0.0,0.0,0.0,0.0,0.0,0.0,0.0,0.0,0.0,0.0,0.0,0.0,0.0,0.0,0.0,0.0,0.0,0.0,0.0,0.0,0.0,0.0,0.0,0.0,0.0,0.0,0.0,0.0,0.0,0.0,0.0,0.0,0.0,0.0,0.0,0.0,0.0,0.0,0.0,0.0,0.0,0.0,0.0,0.0,0.0,0.0,0.0,0.0,0.0,0.0,-2.3237,-2.2458,-2.1992,-2.1894,-2.1523,-2.1074,0.0,0.0,0.0,0.0,0.0,0.0,0.0,0.0,0.0,0.0,0.0,0.0,0.0,0.0,0.0,0.0,0.0,0.0,0.0,0.0,0.0,0.0,0.0,0.0,0.0,0.0,0.0,0.0,0.0,0.0,0.0,0.0,0.0,0.0,0.0,0.0,0.0,0.0,0.0,0.0,0.0,0.0,0.0,0.0,0.0,0.0,0.0,0.0,0.0,0.0,0.0,0.0,0.0,0.0,0.0,0.0,0.0,0.0,0.0,0.0,0.0,0.0,0.0,0.0,0.0,0.0,0.0,0.0,0.0,0.0,0.0,0.0,0.0,0.0,0.0,0.0,0.0,0.0,0.0,0.0,0.0,0.0,0.0,0.0,0.0,0.0,0.0,0.0,0.0,0.0,0.0,0.0,0.0,0.0,0.0,0.0,0.0,0.0,0.0,0.0,0.0,0.0,0.0,0.0,0.0,0.0,0.0,0.0,0.0,-2.3617,-2.3698,-2.3301,-2.2383,-2.2227,-2.1836,0.0,0.0,0.0,0.0,0.0,0.0,0.0,0.0,0.0,0.0,0.0,0.0,0.0,0.0,0.0,0.0,0.0,0.0,0.0,0.0,0.0,0.0,0.0,0.0,0.0,0.0,0.0,0.0,0.0,0.0,0.0,0.0,0.0,0.0,0.0,0.0,0.0,0.0,0.0,0.0,0.0,0.0,0.0,0.0,0.0,0.0,0.0,0.0,0.0,0.0,0.0,0.0,0.0,0.0,0.0,0.0,0.0,0.0,0.0,0.0,0.0,0.0,0.0,0.0,0.0,0.0,0.0,0.0,0.0,0.0,0.0,0.0,0.0,0.0,0.0,0.0,0.0,0.0,0.0,0.0,0.0,0.0,0.0,0.0,0.0,0.0,0.0,0.0,0.0,0.0,0.0,0.0,0.0,0.0,0.0,0.0,0.0,0.0,0.0,0.0,0.0,0.0,0.0,0.0,0.0,0.0,0.0,0.0,-2.3985,-2.436,-2.4743,-2.4485,-2.3613,-2.3066,-2.248,0.0,0.0,0.0,0.0,0.0,0.0,0.0,0.0,0.0,0.0,0.0,0.0,0.0,0.0,0.0,0.0,0.0,0.0,0.0,0.0,0.0,0.0,0.0,0.0,0.0,0.0,0.0,0.0,0.0,0.0,0.0,0.0,0.0,0.0,0.0,0.0,0.0,0.0,0.0,0.0,0.0,0.0,0.0,0.0,0.0,0.0,0.0,0.0,0.0,0.0,0.0,0.0,0.0,0.0,0.0,0.0,0.0,0.0,0.0,0.0,0.0,0.0,0.0,0.0,0.0,0.0,0.0,0.0,0.0,0.0,0.0,0.0,0.0,0.0,0.0,0.0,0.0,0.0,0.0,0.0,0.0,0.0,0.0,0.0,0.0,0.0,0.0,0.0,0.0,0.0,0.0,0.0,0.0,0.0,0.0,0.0,0.0,0.0,0.0,0.0,0.0,0.0,0.0,0.0,0.0,0.0,0.0,0.0,-2.5039,-2.5275,-2.5627,-2.5595,-2.5117,-2.399,-2.3047,0.0,0.0,0.0,0.0,0.0,0.0,0.0,0.0,0.0,0.0,0.0,0.0,0.0,0.0,0.0,0.0,0.0,0.0,0.0,0.0,0.0,0.0,0.0,0.0,0.0,0.0,0.0,0.0,0.0,0.0,0.0,0.0,0.0,0.0,0.0,0.0,0.0,0.0,0.0,0.0,0.0,0.0,0.0,0.0,0.0,0.0,0.0,0.0,0.0,0.0,0.0,0.0,0.0,0.0,0.0,0.0,0.0,0.0,0.0,0.0,0.0,0.0,0.0,0.0,0.0,0.0,0.0,0.0,0.0,0.0,0.0,0.0,0.0,0.0,0.0,0.0,0.0,0.0,0.0,0.0,0.0,0.0,0.0,0.0,0.0,0.0,0.0,0.0,0.0,0.0,0.0,0.0,0.0,0.0,0.0,0.0,0.0,0.0,0.0,0.0,0.0,0.0,0.0,0.0,0.0,0.0,0.0,0.0,-2.5873,-2.6275,-2.6527,-2.6292,-2.5586,-2.4648,-2.3633,0.0,0.0,0.0,0.0,0.0,0.0,0.0,0.0,0.0,0.0,0.0,0.0,0.0,0.0,0.0,0.0,0.0,0.0,0.0,0.0,0.0,0.0,0.0,0.0,0.0,0.0,0.0,0.0,0.0,0.0,0.0,0.0,0.0,0.0,0.0,0.0,0.0,0.0,0.0,0.0,0.0,0.0,0.0,0.0,0.0,0.0,0.0,0.0,-1.7989,0.0,0.0,0.0,0.0,0.0,0.0,0.0,0.0,0.0,0.0,0.0,0.0,0.0,0.0,0.0,0.0,0.0,0.0,0.0,0.0,0.0,0.0,0.0,0.0,0.0,0.0,0.0,0.0,0.0,0.0,0.0,0.0,0.0,0.0,0.0,0.0,0.0,0.0,0.0,0.0,0.0,0.0,0.0,0.0,0.0,0.0,0.0,0.0,0.0,0.0,0.0,0.0,0.0,0.0,0.0,0.0,0.0,0.0,0.0,-2.6438,-2.6604,-2.6777,-2.6524,-2.5723,-2.5078,-2.4121,0.0,0.0,0.0,0.0,0.0,0.0,0.0,0.0,0.0,0.0,0.0,0.0,0.0,0.0,0.0,0.0,0.0,0.0,0.0,0.0,0.0,0.0,0.0,0.0,0.0,0.0,0.0,0.0,0.0,0.0,0.0,0.0,0.0,0.0,0.0,0.0,0.0,0.0,0.0,0.0,0.0,0.0,0.0,0.0,0.0,0.0,0.0,0.0,0.0,0.0,0.0,0.0,0.0,0.0,0.0,0.0,0.0,0.0,0.0,0.0,0.0,0.0,0.0,0.0,0.0,0.0,0.0,0.0,0.0,0.0,0.0,0.0,0.0,0.0,0.0,0.0,0.0,0.0,0.0,0.0,0.0,0.0,0.0,0.0,0.0,0.0,0.0,0.0,0.0,0.0,0.0,0.0,0.0,0.0,0.0,0.0,0.0,0.0,0.0,0.0,0.0,0.0,0.0,0.0,0.0,0.0,0.0,-2.6802,-2.7074,-2.6987,-2.7034,-2.6668,-2.5917,-2.5282,-2.4394,-2.314,0.0,0.0,0.0,0.0,0.0,0.0,0.0,0.0,0.0,0.0,0.0,0.0,0.0,0.0,0.0,0.0,0.0,0.0,0.0,0.0,0.0,0.0,0.0,0.0,0.0,0.0,0.0,0.0,0.0,0.0,0.0,0.0,0.0,0.0,0.0,0.0,0.0,0.0,-1.6492,-1.7625,0.0,0.0,0.0,0.0,0.0,0.0,0.0,0.0,-1.9155,0.0,0.0,0.0,0.0,0.0,0.0,0.0,0.0,0.0,0.0,0.0,0.0,0.0,0.0,0.0,0.0,0.0,0.0,0.0,0.0,0.0,0.0,0.0,0.0,0.0,0.0,0.0,0.0,0.0,0.0,0.0,0.0,0.0,0.0,0.0,0.0,0.0,0.0,0.0,0.0,0.0,0.0,0.0,0.0,0.0,0.0,0.0,0.0,0.0,0.0,0.0,0.0,0.0,0.0,0.0,0.0,-2.7026,-2.7758,-2.8322,-2.8639,-2.8096,-2.7478,-2.6696,-2.527,-2.4082,-2.314,0.0,0.0,0.0,0.0,0.0,0.0,0.0,0.0,0.0,0.0,0.0,0.0,0.0,0.0,0.0,0.0,0.0,0.0,0.0,0.0,0.0,0.0,0.0,0.0,0.0,0.0,0.0,0.0,0.0,0.0,0.0,0.0,0.0,0.0,0.0,0.0,0.0,0.0,0.0,-1.8175,-1.8709,0.0,0.0,0.0,0.0,0.0,0.0,0.0,0.0,-1.9141,0.0,0.0,0.0,0.0,0.0,0.0,0.0,0.0,0.0,0.0,0.0,0.0,0.0,0.0,0.0,0.0,0.0,0.0,0.0,0.0,0.0,0.0,0.0,0.0,0.0,0.0,0.0,0.0,0.0,0.0,0.0,0.0,0.0,0.0,0.0,0.0,0.0,0.0,0.0,0.0,0.0,0.0,0.0,0.0,0.0,0.0,0.0,0.0,0.0,0.0,0.0,0.0,0.0,0.0,0.0,-2.7646,-2.8426,-2.8903,-2.9095,-2.8373,-2.7668,-2.6887,-2.5503,-2.4355,0.0,0.0,0.0,0.0,0.0,0.0,0.0,0.0,0.0,0.0,0.0,0.0,0.0,0.0,0.0,0.0,0.0,0.0,0.0,0.0,0.0,0.0,0.0,0.0,0.0,0.0,0.0,0.0,0.0,0.0,0.0,0.0,0.0,0.0,0.0,0.0,0.0,0.0,0.0,0.0,-1.8761,-1.9232,-1.9162,0.0,0.0,0.0,0.0,0.0,0.0,-1.9505,-1.9531,0.0,0.0,0.0,0.0,0.0,0.0,0.0,0.0,0.0,0.0,0.0,0.0,0.0,0.0,0.0,0.0,0.0,0.0,0.0,0.0,0.0,0.0,0.0,0.0,0.0,0.0,0.0,0.0,0.0,0.0,0.0,0.0,0.0,0.0,0.0,0.0,0.0,0.0,0.0,0.0,0.0,0.0,0.0,0.0,0.0,0.0,0.0,0.0,0.0,0.0,0.0,0.0,0.0,0.0,0.0,-2.8185,-2.9012,-2.9398,-2.925,-2.8549,-2.7752,-2.6907,-2.569,-2.4624,0.0,0.0,0.0,0.0,0.0,0.0,0.0,0.0,0.0,0.0,0.0,0.0,0.0,0.0,0.0,0.0,0.0,0.0,0.0,0.0,0.0,0.0,0.0,0.0,0.0,0.0,0.0,0.0,0.0,0.0,0.0,0.0,0.0,0.0,0.0,0.0,0.0,0.0,0.0,0.0,0.0,-1.9858,-1.9434,-1.9619,0.0,0.0,0.0,0.0,-1.981,-1.9872,0.0,0.0,0.0,0.0,0.0,0.0,0.0,0.0,0.0,0.0,0.0,0.0,0.0,0.0,0.0,0.0,0.0,0.0,0.0,0.0,0.0,0.0,0.0,0.0,0.0,0.0,0.0,0.0,0.0,0.0,0.0,0.0,0.0,0.0,0.0,0.0,0.0,0.0,0.0,0.0,0.0,0.0,0.0,0.0,0.0,0.0,0.0,0.0,0.0,0.0,0.0,0.0,0.0,0.0,0.0,0.0,-2.8678,-2.9647,-3.001,-2.9783,-2.9024,-2.8067,-2.6907,-2.5578,-2.4329,0.0,0.0,0.0,0.0,0.0,0.0,0.0,0.0,0.0,0.0,0.0,0.0,0.0,0.0,0.0,0.0,0.0,0.0,0.0,0.0,0.0,0.0,0.0,0.0,0.0,0.0,0.0,0.0,0.0,0.0,0.0,0.0,0.0,0.0,0.0,0.0,0.0,0.0,0.0,0.0,0.0,-2.0415,-2.059,-2.0737,-2.0818,0.0,0.0,-2.049,-2.0671,-2.0802,0.0,0.0,0.0,0.0,0.0,0.0,0.0,0.0,0.0,0.0,0.0,0.0,0.0,0.0,0.0,0.0,0.0,0.0,0.0,0.0,0.0,0.0,0.0,0.0,0.0,0.0,0.0,0.0,0.0,0.0,0.0,0.0,0.0,0.0,0.0,0.0,0.0,0.0,0.0,0.0,0.0,0.0,0.0,0.0,0.0,0.0,0.0,0.0,0.0,0.0,0.0,0.0,0.0,0.0,0.0,-2.6973,-2.8408,-2.9897,-3.0445,-3.01,-2.9645,-2.899,-2.8207,-2.6397,-2.4925,0.0,0.0,0.0,0.0,0.0,0.0,0.0,0.0,0.0,0.0,0.0,0.0,0.0,0.0,0.0,0.0,0.0,0.0,0.0,0.0,0.0,0.0,0.0,0.0,0.0,0.0,0.0,0.0,0.0,0.0,0.0,0.0,0.0,0.0,0.0,0.0,0.0,0.0,0.0,0.0,0.0,0.0,-2.0492,-2.0748,0.0,0.0,0.0,-2.0763,-2.0838,0.0,0.0,0.0,0.0,0.0,0.0,0.0,0.0,0.0,0.0,0.0,0.0,0.0,0.0,0.0,0.0,0.0,0.0,0.0,0.0,0.0,0.0,0.0,0.0,0.0,0.0,0.0,0.0,0.0,0.0,0.0,0.0,0.0,0.0,0.0,0.0,0.0,0.0,0.0,0.0,0.0,0.0,0.0,0.0,0.0,0.0,0.0,0.0,0.0,0.0,0.0,0.0,0.0,0.0,0.0,0.0,0.0,-2.8498,-3.0262,-3.0926,-3.033,-3.0155,-2.9595,-2.856,-2.6809,0.0,0.0,0.0,0.0,0.0,0.0,0.0,0.0,0.0,0.0,0.0,0.0,0.0,0.0,0.0,0.0,0.0,0.0,0.0,0.0,0.0,0.0,0.0,0.0,0.0,0.0,0.0,-1.6273,0.0,0.0,0.0,0.0,0.0,0.0,0.0,0.0,0.0,0.0,0.0,0.0,0.0,0.0,-2.1064,-2.0553,-2.0979,-2.1099,0.0,0.0,-2.1258,-2.1032,-2.135,-2.1609,0.0,0.0,0.0,0.0,0.0,0.0,0.0,0.0,0.0,0.0,0.0,0.0,0.0,0.0,0.0,0.0,0.0,0.0,0.0,0.0,0.0,0.0,0.0,0.0,0.0,0.0,0.0,0.0,0.0,0.0,0.0,0.0,0.0,0.0,0.0,0.0,0.0,0.0,0.0,0.0,0.0,0.0,0.0,0.0,0.0,0.0,0.0,0.0,0.0,0.0,0.0,0.0,0.0,0.0,0.0,-2.9487,-3.0993,-3.1376,-3.0589,-3.0585,-2.9423,-2.7098,-2.6305,-2.5378,0.0,0.0,0.0,0.0,0.0,0.0,0.0,0.0,0.0,0.0,0.0,0.0,0.0,0.0,0.0,0.0,0.0,0.0,0.0,0.0,0.0,0.0,0.0,0.0,0.0,0.0,0.0,0.0,0.0,0.0,0.0,0.0,0.0,0.0,0.0,0.0,0.0,0.0,0.0,0.0,0.0,-2.1585,-2.1358,-2.1941,-2.2243,0.0,0.0,-2.2148,-2.146,-2.1957,-2.2156,-2.1361,0.0,0.0,0.0,0.0,0.0,0.0,0.0,0.0,0.0,0.0,0.0,0.0,0.0,0.0,0.0,0.0,0.0,0.0,0.0,0.0,0.0,0.0,0.0,0.0,0.0,0.0,0.0,0.0,0.0,0.0,0.0,0.0,0.0,0.0,0.0,0.0,0.0,0.0,0.0,0.0,0.0,0.0,0.0,0.0,0.0,0.0,0.0,0.0,0.0,0.0,0.0,0.0,0.0,-2.7893,-2.9128,-3.0901,-3.1498,-3.0871,-3.1142,-3.0566,-2.8978,-2.7852,-2.6646,0.0,0.0,0.0,0.0,0.0,0.0,0.0,0.0,0.0,0.0,0.0,0.0,0.0,0.0,0.0,0.0,0.0,0.0,0.0,0.0,0.0,0.0,0.0,0.0,0.0,0.0,0.0,0.0,-1.7211,-1.7424,-1.7586,0.0,0.0,0.0,0.0,0.0,0.0,0.0,0.0,0.0,0.0,-2.1735,-2.1772,-2.218,0.0,0.0,-2.2314,-2.2441,-2.2349,-2.2403,-2.2473,-2.2668,-2.2198,0.0,0.0,0.0,0.0,0.0,0.0,0.0,0.0,0.0,0.0,0.0,0.0,0.0,0.0,0.0,0.0,0.0,0.0,0.0,0.0,0.0,0.0,0.0,0.0,0.0,0.0,0.0,0.0,0.0,0.0,0.0,0.0,0.0,0.0,0.0,0.0,0.0,0.0,0.0,0.0,0.0,0.0,0.0,0.0,0.0,0.0,0.0,0.0,0.0,0.0,0.0,0.0,-2.8095,-2.9217,-3.0947,-3.1641,-3.1249,-3.1641,-3.1084,-2.96,-2.8433,-2.7216,0.0,0.0,0.0,0.0,0.0,0.0,0.0,0.0,0.0,0.0,0.0,0.0,0.0,0.0,0.0,0.0,0.0,0.0,0.0,0.0,0.0,0.0,0.0,0.0,0.0,0.0,0.0,0.0,-1.7532,-1.774,-1.7974,0.0,0.0,0.0,0.0,0.0,0.0,0.0,0.0,0.0,0.0,-2.1985,-2.2123,-2.2418,-2.2545,-2.2307,-2.2592,-2.283,-2.2883,-2.2836,-2.2984,-2.3493,0.0,0.0,0.0,0.0,0.0,0.0,0.0,0.0,0.0,0.0,0.0,0.0,0.0,0.0,0.0,0.0,0.0,0.0,0.0,0.0,0.0,0.0,0.0,0.0,0.0,0.0,0.0,0.0,0.0,0.0,0.0,0.0,0.0,0.0,0.0,0.0,0.0,0.0,0.0,0.0,0.0,0.0,0.0,0.0,0.0,0.0,0.0,0.0,0.0,0.0,0.0,0.0,0.0,-2.8768,-3.0251,-3.1289,-3.1802,-3.1802,-3.1802,-3.0658,-2.8275,-2.7601,-2.6539,-2.49,0.0,0.0,0.0,0.0,0.0,0.0,0.0,0.0,0.0,0.0,0.0,0.0,0.0,0.0,0.0,0.0,0.0,0.0,0.0,0.0,0.0,0.0,0.0,0.0,0.0,0.0,-1.7532,-1.7792,-1.7991,0.0,0.0,0.0,0.0,0.0,0.0,0.0,0.0,0.0,0.0,-2.1881,-2.2355,-2.2489,-2.2768,-2.299,-2.2974,-2.3215,-2.3343,-2.2986,-2.3414,-2.3705,0.0,0.0,0.0,0.0,0.0,0.0,0.0,0.0,0.0,0.0,0.0,0.0,0.0,0.0,0.0,0.0,0.0,0.0,0.0,0.0,0.0,0.0,0.0,0.0,0.0,0.0,0.0,-2.7338,-2.7906,0.0,0.0,0.0,0.0,0.0,0.0,0.0,0.0,0.0,0.0,0.0,-2.8356,-2.8564,0.0,0.0,0.0,0.0,0.0,0.0,0.0,0.0,0.0,0.0,0.0,0.0,-2.8791,-3.0251,-3.1265,-3.1915,-3.2262,-3.1986,-3.1244,-3.0001,-2.9194,-2.7634,-2.5223,0.0,0.0,0.0,0.0,0.0,0.0,0.0,0.0,0.0,0.0,0.0,0.0,0.0,0.0,0.0,0.0,0.0,0.0,0.0,0.0,0.0,0.0,0.0,0.0,0.0,-1.8148,0.0,0.0,0.0,0.0,0.0,0.0,0.0,0.0,0.0,0.0,0.0,-2.1131,-2.1901,-2.2237,-2.2489,-2.2784,-2.2942,-2.3022,0.0,0.0,0.0,0.0,0.0,0.0,0.0,0.0,0.0,0.0,0.0,0.0,0.0,0.0,-2.6014,-2.4594,-2.4153,-2.4004,-2.3984,0.0,0.0,0.0,0.0,0.0,0.0,0.0,0.0,0.0,0.0,0.0,0.0,0.0,0.0,0.0,0.0,-3.0101,0.0,0.0,0.0,0.0,0.0,0.0,0.0,0.0,-2.9667,-2.992,-2.9988,-3.0214,-2.9939,0.0,-2.9014,-2.7855,0.0,0.0,0.0,0.0,0.0,0.0,0.0,0.0,-2.906,-3.0521,-3.1356,-3.2055,-3.2443,-3.2078,-3.143,-3.0623,-2.9124,-2.7278,-2.5049,-2.4034,-2.2802,0.0,0.0,0.0,0.0,0.0,0.0,0.0,0.0,0.0,0.0,0.0,0.0,0.0,0.0,0.0,0.0,0.0,0.0,0.0,0.0,0.0,0.0,0.0,-1.8881,0.0,0.0,0.0,0.0,0.0,0.0,0.0,0.0,0.0,-2.0845,-2.1263,-2.171,-2.2323,-2.256,-2.2752,-2.299,0.0,0.0,0.0,0.0,0.0,0.0,0.0,-2.5121,-2.5757,-2.6109,-2.6548,-2.7443,-2.8114,-2.8513,-2.8459,0.0,0.0,-2.6515,-2.584,-2.5547,-2.5547,-2.5547,-2.5508,-2.5352,-2.5449,-2.5508,0.0,0.0,0.0,0.0,0.0,0.0,0.0,0.0,-3.0619,-3.1357,0.0,-3.1902,0.0,0.0,0.0,0.0,0.0,0.0,0.0,0.0,-3.0558,-3.0965,-3.1371,-3.1202,-3.0858,-3.0341,-2.9845,-2.9329,-2.8746,-2.6929,0.0,0.0,0.0,0.0,0.0,0.0,-2.9576,-3.0945,-3.1538,-3.2078,-3.2489,-3.2078,-3.1217,-2.9967,-2.7645,-2.5843,-2.4618,-2.4159,-2.3506,-2.2621,-2.1719,0.0,0.0,0.0,0.0,0.0,0.0,0.0,0.0,0.0,0.0,0.0,0.0,0.0,0.0,0.0,0.0,0.0,0.0,0.0,0.0,-1.9279,0.0,0.0,0.0,0.0,0.0,0.0,0.0,0.0,0.0,0.0,-2.1826,-2.2055,-2.2371,-2.2505,0.0,0.0,0.0,0.0,-2.3038,-2.3054,-2.3568,-2.4138,-2.4466,-2.5434,-2.6214,-2.6445,0.0,0.0,-2.8832,-2.9316,-2.9609,-2.9609,-2.9297,-2.8848,-2.8437,-2.791,-2.7669,-2.7669,-2.7611,-2.75,-2.7168,-2.7246,-2.7493,-3.1468,0.0,0.0,0.0,0.0,-3.0469,-3.1559,-3.3306,-3.3261,-3.3792,-3.4574,-3.3531,0.0,0.0,0.0,0.0,0.0,0.0,-3.1203,-3.1341,-3.1727,-3.2025,-3.2208,-3.2502,-3.2362,-3.186,-3.153,-3.0936,-3.0146,-2.9373,-2.8344,-2.7017,0.0,0.0,0.0,0.0,-3.0145,-3.1278,-3.1954,-3.2535,-3.304,-3.2262,-3.1247,-3.0125,-2.928,-2.8355,-2.7355,-2.6211,-2.5132,-2.4253,-2.2599,0.0,0.0,0.0,0.0,0.0,0.0,0.0,0.0,0.0,0.0,0.0,0.0,0.0,0.0,0.0,0.0,0.0,0.0,0.0,-1.9574,-1.9909,-2.0402,0.0,0.0,0.0,0.0,0.0,0.0,0.0,0.0,0.0,-2.3211,-2.2922,-2.2684,0.0,0.0,-2.3101,-2.3298,-2.333,-2.3483,-2.3721,0.0,0.0,0.0,-2.5119,-2.595,-2.6909,-2.8427,-2.9631,-2.9805,-3.0215,-3.0508,-3.0508,-3.041,-3.0273,-3.0117,-2.9023,-2.8184,-2.8105,-2.8105,-2.8066,-2.7969,-2.8047,-2.8086,-3.4751,-3.3281,-3.2113,-3.2239,-3.3195,-3.3108,-3.4144,-3.5772,-3.512,-3.5412,-3.6251,-3.4764,-3.3613,-3.2744,-3.1268,0.0,0.0,0.0,-3.1917,-3.2053,-3.2351,-3.2604,-3.281,-3.3132,-3.3109,-3.281,-3.2434,-3.1974,-3.1403,-3.0961,-3.0231,-2.9193,0.0,0.0,-2.8878,-2.9736,-3.0668,-3.1644,-3.2231,-3.2741,-3.3269,-3.2331,-3.1131,-2.9806,-2.9646,-2.9168,-2.8309,-2.732,-2.6368,-2.5435,-2.3834,-2.2574,0.0,0.0,0.0,0.0,0.0,0.0,0.0,0.0,0.0,0.0,0.0,-1.901,-1.9327,0.0,0.0,0.0,-1.9486,-1.9951,-2.09,-2.1169,0.0,0.0,0.0,0.0,0.0,0.0,0.0,-2.344,-2.3912,-2.4119,-2.3799,-2.3883,-2.3894,-2.3486,-2.3419,-2.3514,-2.3721,0.0,-2.3816,-2.4082,-2.4639,-2.5133,-2.5251,-2.6131,-2.712,-2.8271,-2.9393,-3.0273,-3.0449,-3.0723,-3.0879,-3.0898,-3.0898,-3.0898,-3.0898,-3.0019,-2.9238,-2.9082,-2.9043,-2.9004,-2.8848,-2.8926,-2.9004,-3.7631,-3.7494,-3.5203,-3.4913,-3.5987,-3.5831,-3.6616,-3.7814,-3.6407,-3.6481,-3.7404,-3.5624,-3.451,-3.3959,-3.2579,0.0,0.0,-3.1892,-3.2193,-3.2535,-3.2535,-3.281,-3.3269,-3.3292,-3.3292,-3.3269,-3.2787,-3.2558,-3.2512,-3.1857,-3.1533,-3.1465,-3.03,-2.9688,-2.9734,-3.0371,-3.1215,-3.2124,-3.2437,-3.2741,-3.3132,-3.2259,-3.0942,-2.9254,-2.9163,-2.8885,-2.8164,-2.7835,-2.7249,-2.6367,-2.5214,-2.3991,-2.2679,0.0,0.0,0.0,0.0,0.0,0.0,0.0,0.0,0.0,0.0,0.0,0.0,0.0,0.0,0.0,-2.0795,0.0,-2.2454,-2.279,0.0,0.0,0.0,-2.4098,-2.4714,-2.4728,-2.4592,-2.4351,0.0,0.0,0.0,0.0,-2.5669,-2.4547,-2.4263,-2.4114,-2.4145,-2.4145,-2.4161,-2.4225,-2.5179,-2.5973,-2.6168,-2.7352,-2.8563,-2.9489,-3.0082,-3.0295,-3.0781,-3.0879,-3.0898,-3.0898,-3.0898,-3.0898,-3.0898,-3.082,-3.0762,-3.0273,-3.0215,-3.0117,-2.9785,-2.9941,-3.0078,-3.7895,-3.8529,-3.8542,-3.7668,-3.6258,-3.685,-3.7319,-3.769,-3.7961,-3.7838,-3.7518,-3.6284,-3.4939,-3.3482,-3.3119,-3.2974,-3.2974,-3.2925,-3.2994,-3.3086,-3.3086,-3.3155,-3.3292,-3.3292,-3.3292,-3.3269,-3.3155,-3.3109,-3.3086,-3.2921,-3.2669,-3.2208,-3.1931,-3.1467,-3.1006,-3.17,-3.2139,-3.2391,-3.2879,-3.2764,-3.2193,-3.194,-3.1178,-2.9988,-2.9943,-2.976,-2.9462,-2.8792,-2.8053,-2.727,-2.5558,-2.4271,-2.3521,-2.2285,0.0,0.0,0.0,0.0,0.0,0.0,0.0,0.0,0.0,-2.0625,-2.1348,0.0,-2.1562,0.0,-2.187,-2.2368,-2.2999,-2.3641,0.0,0.0,-2.5353,-2.5618,-2.6085,-2.5792,-2.5764,-2.626,-2.6537,-2.6729,-2.6787,-2.7133,-2.7364,-2.7054,-2.5324,-2.4209,-2.4464,-2.4512,-2.4563,-2.4846,-2.5201,-2.5343,-2.5631,-2.6298,-2.7484,-2.8377,-2.9146,-2.9848,-3.0743,-3.0898,-3.0898,-3.0898,-3.0898,-3.0898,-3.0898,-3.0898,-3.0859,-3.0762,-3.0723,-3.0703,-3.0605,-3.0644,-3.0684,-3.7791,-3.8267,-3.8739,-3.7927,-3.6407,-3.7599,-3.8364,-3.8693,-3.8009,-3.7682,-3.7538,-3.6396,-3.5179,-3.4009,-3.3958,-3.3958,-3.3958,-3.3958,-3.3958,-3.3958,-3.3958,-3.3843,-3.3614,-3.3591,-3.3499,-3.3292,-3.3292,-3.3292,-3.3292,-3.3292,-3.3132,-3.2856,-3.2833,-3.2669,-3.2271,-3.2417,-3.2604,-3.2833,-3.3132,-3.2902,-3.2121,-3.194,-3.1387,-3.0606,-3.0217,-3.0011,-2.9897,-2.9255,-2.8451,-2.745,-2.6111,-2.4873,-2.387,-2.2955,-2.2221,0.0,0.0,0.0,0.0,0.0,0.0,0.0,0.0,0.0,0.0,0.0,-2.2676,0.0,-2.334,0.0,-2.4562,-2.5013,-2.5566,-2.6181,-2.6373,-2.6613,-2.704,-2.7027,-2.7072,-2.7268,-2.7828,-2.8123,-2.7831,-2.8206,-2.8387,-2.8068,-2.6781,-2.588,-2.6064,-2.6114,-2.6198,-2.6399,-2.6719,-2.722,-2.7581,-2.8122,-2.8659,-2.9194,-2.9726,-3.0274,-3.082,-3.0898,-3.0898,-3.0898,-3.0898,-3.0898,-3.0898,-3.0898,-3.0898,-3.0898,-3.0898,-3.0898,-3.0898,-3.0898,-3.0898,-3.7737,-3.7844,-3.795,-3.7578,-3.7012,-3.8267,-3.9156,-3.9647,-3.7631,-3.7151,-3.764,-3.6327,-3.5463,-3.4992,-3.4923,-3.49,-3.49,-3.4831,-3.4808,-3.4808,-3.4808,-3.4555,-3.4119,-3.4078,-3.3848,-3.3384,-3.3415,-3.3369,-3.3292,-3.3292,-3.3292,-3.3292,-3.3292,-3.3292,-3.3269,-3.2833,-3.281,-3.3269,-3.3292,-3.304,-3.2512,-3.2124,-3.1593,-3.0996,-3.0353,-2.9942,-2.9851,-2.937,-2.8549,-2.7427,-2.6711,-2.5657,-2.4173,-2.3624,-2.3076,0.0,-2.2385,0.0,0.0,0.0,0.0,0.0,0.0,0.0,0.0,-2.3101,-2.3906,-2.5137,-2.4883,-2.5156,-2.6367,-2.6504,-2.6699,-2.7051,-2.7148,-2.7344,-2.7773,-2.8144,-2.8284,-2.7957,-2.9276,-2.9585,-2.8286,-2.8913,-2.9235,-2.8641,-2.8498,-2.8457,-2.8415,-2.8122,-2.7829,-2.7984,-2.8737,-2.9163,-3.0011,-3.0426,-3.0563,-3.0721,-3.0741,-3.0937,-3.1113,-3.1094,-3.1074,-3.1074,-3.1113,-3.1094,-3.1055,-3.1074,-3.1074,-3.1113,-3.1133,-3.1074,-3.0937,-3.0898,-3.0898,-3.8948,-3.9647,-4.0313,-4.0465,-4.0262,-3.9208,-3.8477,-3.8056,-3.8973,-3.908,-3.8436,-3.6885,-3.611,-3.5956,-3.5566,-3.5382,-3.5359,-3.4992,-3.4808,-3.4808,-3.4808,-3.4739,-3.4676,-3.4671,-3.4365,-3.3894,-3.3854,-3.3668,-3.3292,-3.3292,-3.3292,-3.3292,-3.3292,-3.3292,-3.3269,0.0,0.0,0.0,-3.3292,-3.304,-3.2512,-3.2446,-3.1915,-3.1065,-3.0672,0.0,-2.9622,-2.9255,-2.8702,-2.7896,-2.704,0.0,0.0,0.0,0.0,0.0,0.0,0.0,0.0,0.0,0.0,0.0,-2.4355,-2.4355,-2.4082,-2.4453,-2.5145,-2.6035,-2.6074,-2.625,-2.6836,-2.7226,-2.7461,-2.7539,-2.7851,-2.8223,-2.8633,-2.875,-2.8972,-2.9637,-2.9984,-3.0237,-3.0219,-3.049,-3.0528,-3.0313,-3.064,-3.0813,-3.0773,-2.9237,-2.8062,-2.8044,-2.8691,-2.9058,-2.9523,-2.9726,-3.0161,-3.048,-3.0724,-3.107,-3.1754,-3.1894,-3.1974,-3.1894,-3.1934,-3.1914,-3.1894,-3.1934,-3.1875,-3.1914,-3.1914,-3.1719,-3.1055,-3.0898,-3.0898,-3.9296,0.0,-3.9917,-4.0157,0.0,-3.8896,-3.8757,-3.9322,-3.8575,-3.7974,-3.7524,-3.6688,-3.6254,-3.6309,-3.6002,-3.5887,-3.5887,-3.5634,-3.5679,-3.5945,-3.5945,-3.5987,-3.5968,-3.5709,-3.5207,-3.4485,-3.4156,-3.375,-3.3292,-3.3292,-3.3292,-3.3292,-3.3292,-3.3292,-3.3292,-3.3292,-3.3292,-3.3292,-3.3292,-3.3155,-3.2879,-3.2446,-3.1892,-3.1387,0.0,0.0,0.0,0.0,0.0,0.0,0.0,0.0,0.0,0.0,0.0,-2.4381,-2.4673,-2.4529,-2.3834,-2.418,-2.4609,-2.4992,-2.5664,-2.584,-2.543,-2.5781,-2.6309,-2.6953,-2.7012,-2.7187,-2.7598,-2.7851,-2.7969,-2.7988,-2.8359,-2.8691,-2.8926,-2.9297,-2.9707,-3.0117,-3.041,-3.0644,-3.0859,-3.1094,-3.1191,-3.123,-3.1562,-3.1836,-3.1756,-3.086,-3.0106,-3.0106,-3.0237,-3.0461,-3.0667,-3.0741,-3.0803,-3.1336,-3.1459,-3.1661,-3.2107,-3.2229,-3.2229,-3.2229,-3.2229,-3.2229,-3.2229,-3.2229,-3.2229,-3.2229,-3.2229,-3.2131,-3.1582,-3.1348,-3.1133,-3.9897,-3.9589,-3.9614,-3.9639,-3.9638,-3.8823,-3.9466,-4.0816,0.0,0.0,0.0,-3.6639,-3.653,-3.653,-3.6585,-3.6539,-3.6556,-3.6556,-3.6836,-3.7227,-3.712,-3.7121,-3.7168,-3.6654,-3.5921,-3.502,-3.4402,-3.3899,-3.3407,-3.3415,-3.3369,-3.3319,-3.3369,-3.3369,-3.3292,-3.3292,-3.3292,-3.3292,-3.3292,-3.3292,-3.3269,-3.2515,-3.2009,-3.1825,-3.0531,-2.9779,-2.96,-2.9163,-2.8617,-2.8041,-2.7954,-2.7646,-2.7099,-2.7015,-2.6615,-2.5842,-2.5879,-2.5594,-2.4812,-2.5176,-2.5605,-2.6055,-2.6738,-2.6973,-2.6641,-2.6934,-2.7305,-2.7734,-2.7826,-2.7963,-2.8262,-2.8281,-2.832,-2.8398,-2.8711,-2.8965,-2.916,-2.9746,-3.0195,-3.0332,-3.0664,-3.0918,-3.1016,-3.1309,-3.1562,-3.168,-3.2012,-3.2324,-3.2344,-3.2166,-3.1947,-3.2024,-3.2002,-3.2244,-3.2383,-3.238,-3.2383,-3.24,-3.2441,-3.2383,-3.2383,-3.2383,-3.2402,-3.2461,-3.2402,-3.2422,-3.2402,-3.2441,-3.2383,-3.2383,-3.2444,-3.2363,-3.2266,-3.1992,-3.1641,-4.2211,-4.2762,-4.2762,-4.2345,-4.161,-4.081,-4.0267,-3.9801,-3.957,-3.9187,-3.8682,-3.7901,-3.7563,-3.7586,-3.7586,-3.7613,-3.7637,-3.7692,-3.776,0.0,-3.7358,-3.7096,-3.7109,-3.6555,-3.5981,-3.5403,-3.4932,-3.4416,-3.3968,-3.3927,-3.3717,-3.3419,-3.3717,-3.3717,-3.3342,-3.3292,-3.3292,-3.3292,-3.3292,-3.3292,-3.3292,-3.3155,-3.2699,-3.18,-3.1379,-3.0712,-2.9874,-2.9554,-2.9349,-2.9236,-2.8857,-2.8611,-2.85,-2.7522,-2.6854,-2.671,-2.6451,-2.6264,-2.6123,-2.6504,-2.6934,-2.7344,-2.75,-2.7539,-2.7552,-2.7591,-2.7806,-2.8144,-2.8184,-2.8223,-2.8281,-2.8301,-2.8457,-2.8769,-2.8887,-2.9199,-2.9883,-3.0117,-3.0371,-3.0723,-3.084,-3.1035,-3.1348,-3.1484,-3.1699,-3.2031,-3.2441,-3.2812,-3.2988,-3.2617,-3.2383,-3.2617,-3.2715,-3.2871,-3.3066,-3.3223,-3.3164,-3.3242,-3.3184,-3.3144,-3.3125,-3.3144,-3.3144,-3.3203,-3.3144,-3.3164,-3.3184,-3.3242,-3.3164,-3.3144,-3.3144,-3.3066,-3.2773,-3.2617,-3.2441,-4.3755,-4.3415,-4.3415,-4.281,-4.1864,-4.2385,-4.1976,-4.1046,-4.1403,-4.0765,-3.9419,-3.8951,-3.8783,-3.8727,-3.8447,-3.8498,-3.8816,-3.8485,-3.853,-3.8858,-3.8299,-3.8048,-3.7921,-3.7151,-3.6626,-3.6373,-3.5926,-3.5408,-3.489,-3.4631,-3.4223,-3.3741,-3.3668,-3.3519,-3.3319,-3.3292,-3.3292,-3.3292,-3.3292,-3.3292,-3.3269,-3.2994,-3.2627,-3.2167,-3.1675,-3.119,-3.0736,-3.0433,-3.0292,-3.0292,-3.009,-3.0025,-2.9956,-2.9569,-2.9151,-2.8757,-2.8711,-2.8293,-2.7432,-2.7385,-2.7559,-2.7969,-2.8008,-2.8008,-2.8008,-2.8061,-2.8086,-2.8281,-2.8301,-2.8301,-2.8301,-2.8496,-2.8711,-2.8906,-2.9316,-2.9766,-3.0137,-3.0449,-3.0644,-3.084,-3.0898,-3.1055,-3.1465,-3.1719,-3.2031,-3.2461,-3.2871,-3.3223,-3.3379,-3.3105,-3.291,-3.3086,-3.3144,-3.3203,-3.3398,-3.3418,-3.3418,-3.3418,-3.3418,-3.3418,-3.3418,-3.3418,-3.3418,-3.3418,-3.3418,-3.3418,-3.3418,-3.3418,-3.3418,-3.3418,-3.3418,-3.3301,-3.3164,-3.3144,-3.291,-4.4623,-4.3614,-4.3802,-4.3115,-4.2113,-4.3355,-4.3131,-4.1947,-4.2264,-4.1601,-4.0248,-3.9754,-3.9586,-3.9698,-3.908,-3.9179,-3.9642,-3.9116,-3.9109,-3.9526,-3.8924,-3.8658,-3.8668,-3.7619,-3.7175,-3.7268,-3.6835,-3.6359,-3.5949,-3.5479,-3.4896,-3.4202,-3.3588,-3.3292,-3.3292,-3.3292,-3.3292,-3.3292,-3.3292,-3.3292,-3.3269,-3.2879,-3.2627,-3.2466,-3.1977,-3.1604,-3.1442,-3.1275,-3.1157,-3.1157,-3.1179,-3.1205,-3.1157,-3.1227,-3.1031,-3.0585,-3.0488,-3.0018,-2.8897,-2.8531,-2.8508,-2.8827,-2.8654,-2.8601,-2.8548,-2.8486,-2.8398,-2.832,-2.8379,-2.8457,-2.8516,-2.8828,-2.9101,-2.9219,-2.9785,-3.0215,-3.0371,-3.0684,-3.0898,-3.0898,-3.0976,-3.1191,-3.1601,-3.2031,-3.2461,-3.2891,-3.3223,-3.3398,-3.3418,-3.3418,-3.3418,-3.3418,-3.3418,-3.3476,-3.3535,-3.3574,-3.3633,-3.3672,-3.3652,-3.3672,-3.3691,-3.3691,-3.3574,-3.3594,-3.3594,-3.3535,-3.3457,-3.3418,-3.3418,-3.3418,-3.3418,-3.3418,-3.3398,-3.3379,-3.3184,-4.4398,-4.4346,-4.4942,-4.4485,-4.3153,-4.3284,-4.2588,-4.1395,-4.1296,-4.1558,-4.1638,-4.0058,-3.9651,-4.0024,-3.9534,-3.9684,-4.0194,-3.9604,-3.9433,-3.9465,-3.8437,-3.8255,-3.8647,-3.7625,-3.7364,-3.7777,-3.7392,-3.7156,-3.7043,-3.648,-3.5696,-3.4745,-3.375,-3.3292,-3.3292,-3.3292,-3.3292,-3.3292,-3.3292,-3.3292,-3.3292,-3.3247,-3.2994,-3.2512,-3.2443,-3.2142,-3.1727,-3.1706,-3.1706,-3.1636,-3.1682,-3.1729,-3.1682,-3.1109,-3.0852,-3.1174,-3.0571,-3.024,-3.049,-3.0545,-3.0463,-3.0526,-2.9796,-2.9323,-2.9343,-2.9045,-2.8691,-2.8457,-2.8652,-2.8848,-2.8887,-2.9258,-2.9629,-2.9922,-3.0137,-3.0351,-3.0723,-3.0859,-3.0898,-3.0898,-3.1211,-3.1621,-3.2031,-3.248,-3.2891,-3.3242,-3.3359,-3.3418,-3.3418,-3.3418,-3.3457,-3.3437,-3.3437,-3.3594,-3.3867,-3.4004,-3.4082,-3.4375,-3.4238,-3.416,-3.4238,-3.416,-3.4023,-3.4004,-3.3965,-3.3828,-3.3574,-3.3418,-3.3418,-3.3418,-3.3418,-3.3418,-3.3418,-3.3418,-3.3203,-4.5502,-4.5047,-4.5342,-4.4643,-4.3436,-4.2992,-4.2793,-4.2681,-4.2174,-4.2061,-4.2118,-4.0571,-4.0397,-4.132,-4.1067,-4.1142,-4.1347,-4.1096,-4.1055,-4.104,-4.03,-3.9698,-3.9223,-3.8521,-3.8233,-3.8421,-3.823,-3.8169,-3.798,-3.6957,-3.5666,-3.4435,-3.3899,-3.3568,-3.3315,-3.3292,-3.3292,-3.3292,-3.3292,-3.3292,-3.3292,-3.3292,-3.3178,-3.2994,-3.2948,-3.2879,-3.2695,-3.2673,-3.265,-3.265,-3.265,-3.265,-3.2722,-3.2355,-3.2275,-3.2429,-3.1677,-3.1287,-3.1483,-3.1094,-3.0785,-3.0785,-3.0005,-2.9533,-2.9533,-2.9621,-2.9425,-2.8859,-2.9062,-2.9297,-2.9336,-2.9687,-3.0019,-3.0195,-3.043,-3.0684,-3.0859,-3.0898,-3.0976,-3.1211,-3.1406,-3.1797,-3.2422,-3.291,-3.3223,-3.3398,-3.3418,-3.3418,-3.3418,-3.3418,-3.3535,-3.373,-3.3809,-3.3867,-3.4062,-3.4062,-3.418,-3.4297,-3.4414,-3.4512,-3.4355,-3.4473,-3.4434,-3.4453,-3.4277,-3.4101,-3.3867,-3.3555,-3.3418,-3.3437,-3.3418,-3.3418,-3.3418,-3.3418,-3.332,-4.5768,-4.5208,-4.5208,-4.4507,-4.3381,-4.3103,-4.3017,-4.3042,-4.2569,-4.24,-4.2287,-4.1206,-4.1206,-4.2004,-4.1777,-4.1777,-4.2061,-4.1891,-4.1864,-4.183,-4.1324,-4.0722,-4.0065,-3.9374,-3.9111,-3.9244,-3.9124,-3.8879,-3.8534,-3.7124,-3.5695,-3.4544,-3.428,-3.3981,-3.3522,-3.3476,-3.3407,-3.3292,-3.3292,-3.3292,-3.3292,-3.3292,-3.3292,-3.3292,-3.3292,-3.3292,-3.3292,-3.3292,-3.3292,-3.3292,-3.3292,-3.3292,-3.3292,-3.3292,-3.3292,-3.3242,-3.2695,-3.2342,-3.2342,-3.1812,-3.1454,-3.1424,-3.0766,-3.0381,-3.0485,-3.0764,-3.0696,-3.0233,-3.0429,-3.0634,-2.9841,-3.0137,-3.0371,-3.041,-3.0703,-3.0918,-3.1055,-3.1055,-3.125,-3.1621,-3.1836,-3.2129,-3.2812,-3.3223,-3.3398,-3.3418,-3.3418,-3.3418,-3.3437,-3.3516,-3.373,-3.4023,-3.4141,-3.4316,-3.4394,-3.4512,-3.4453,-3.459,-3.4883,-3.4844,-3.457,-3.4863,-3.4883,-3.4863,-3.459,-3.4375,-3.4277,-3.3965,-3.3672,-3.3594,-3.3535,-3.3457,-3.3418,-3.3418,-3.3418,-4.437,-4.4424,-4.437,-4.3962,-4.3356,-4.3932,-4.3048,-4.1606,-4.1948,-4.2174,-4.2174,-4.2004,-4.2061,-4.2061,-4.1033,-4.1033,-4.1891,-4.1549,-4.1296,-4.1314,-4.0821,-4.0724,-4.1072,-4.0144,-3.9894,-4.0217,-3.9765,-3.905,-3.8113,-3.7001,-3.611,-3.5458,-3.5073,-3.4538,-3.4129,-3.4037,-3.3729,-3.3434,-3.3365,-3.3292,-3.3292,-3.3292,-3.3292,-3.3292,-3.3292,-3.3292,-3.3292,-3.3292,-3.3292,-3.3292,-3.3292,-3.3292,-3.3292,-3.3292,-3.3292,-3.3292,-3.3242,-3.3242,-3.317,-3.3069,-3.3092,-3.3088,-3.2641,-3.2597,-3.2381,-3.2566,-3.2547,-3.2619,-3.2825,-3.2467,-3.0787,-3.0873,-3.1014,-3.0917,-3.0918,-3.1113,-3.1485,-3.1485,-3.168,-3.215,-3.2522,-3.2832,-3.3301,-3.3398,-3.3418,-3.3418,-3.3418,-3.3457,-3.3535,-3.3789,-3.4062,-3.4219,-3.4473,-3.4824,-3.5215,-3.5137,-3.5351,-3.5449,-3.5293,-3.541,-3.5586,-3.5684,-3.5488,-3.5332,-3.5195,-3.5,-3.4766,-3.4531,-3.4316,-3.4082,-3.3691,-3.3555,-3.3437,-3.3418,-3.3418,-4.5582,-4.5047,-4.4533,-4.3823,-4.324,-4.3987,-4.3547,-4.24,-4.3159,-4.3184,-4.2681,-4.2287,-4.2344,-4.265,-4.1777,-4.1663,-4.2118,-4.2231,-4.2287,-4.2319,-4.2146,-4.1985,-4.1723,-4.1052,-4.0562,-4.0392,-3.9879,-3.929,-3.8579,-3.8097,-3.7464,-3.6682,-3.6441,-3.6085,-3.5588,-3.493,-3.4493,-3.4307,-3.3654,-3.3292,-3.3342,-3.3292,-3.3292,-3.3292,-3.3292,-3.3292,-3.3292,-3.3292,-3.3292,-3.3292,-3.3292,-3.3292,-3.3292,-3.3292,-3.3292,-3.3292,-3.3292,-3.3292,-3.3292,-3.3292,-3.343,-3.3678,-3.3151,-3.2952,-3.3254,-3.3539,-3.3529,-3.3231,-3.3908,-3.3669,-3.2839,-3.2525,-3.242,-3.1845,-3.173,-3.1968,-3.2193,-3.192,-3.2017,-3.3113,-3.3364,-3.3262,-3.3359,-3.3418,-3.3418,-3.3437,-3.3652,-3.3809,-3.3906,-3.4199,-3.4551,-3.4844,-3.5039,-3.5293,-3.5723,-3.5527,-3.5469,-3.5586,-3.5605,-3.5566,-3.5664,-3.584,-3.5723,-3.5664,-3.5605,-3.543,-3.5117,-3.4844,-3.4668,-3.4316,-3.3945,-3.375,-3.3476,-3.3516,-3.3476,-4.6058,-4.5395,-4.4615,-4.4097,-4.3878,-4.4398,-4.4206,-4.3517,-4.4042,-4.3823,-4.3017,-4.2569,-4.2625,-4.2874,-4.2594,-4.24,-4.24,-4.2793,-4.2986,-4.2986,-4.2986,-4.2785,-4.2404,-4.1626,-4.1156,-4.0918,-4.0067,-3.9455,-3.9058,-3.8704,-3.8174,-3.7469,-3.7445,-3.7232,-3.6675,-3.6009,-3.5568,-3.528,-3.4507,-3.4073,-3.405,-3.3837,-3.3767,-3.3767,-3.3618,-3.3419,-3.3342,-3.3292,-3.3292,-3.3292,-3.3292,-3.3292,-3.3292,-3.3292,-3.3292,-3.3292,-3.3292,-3.3292,-3.3315,-3.343,-3.366,-3.3981,-3.3838,-3.381,-3.4146,-3.4648,-3.4546,-3.4384,-3.4692,-3.5024,-3.468,-3.46,-3.4202,-3.3179,-3.2892,-3.3141,-3.3679,-3.2993,-3.2994,-3.3593,-3.3598,-3.3379,-3.3418,-3.3418,-3.3496,-3.3594,-3.3906,-3.4082,-3.4277,-3.4648,-3.5,-3.5332,-3.5488,-3.5664,-3.5898,-3.5781,-3.5664,-3.5762,-3.5781,-3.5742,-3.5742,-3.5918,-3.5996,-3.5957,-3.5859,-3.5684,-3.5449,-3.5176,-3.4863,-3.4531,-3.4336,-3.416,-3.3906,-3.3672,-3.3613,-4.5555,-4.5449,-4.467,-4.4724,-4.5235,-4.5342,-4.4993,-4.4315,-4.4261,-4.3823,-4.3017,-4.293,-4.293,-4.2986,-4.293,-4.293,-4.293,-4.2986,-4.2986,-4.2986,-4.2986,-4.2961,-4.2886,-4.1824,-4.1496,-4.1823,-4.0467,-3.9783,-3.9734,-3.8843,-3.8234,-3.8104,-3.819,-3.8028,-3.7308,-3.7239,-3.697,-3.6461,-3.5831,-3.5541,-3.5569,-3.506,-3.4821,-3.47,-3.4308,-3.379,-3.3342,-3.3342,-3.3292,-3.3292,-3.3292,-3.3292,-3.3292,-3.3292,-3.3292,-3.3292,-3.3292,-3.3315,-3.3361,-3.3752,-3.4027,-3.4257,-3.4893,-3.5222,-3.5382,-3.5825,-3.6022,-3.5968,-3.6068,-3.6168,-3.6228,-3.6415,-3.605,-3.4633,-3.4289,-3.4672,-3.5198,-3.4875,-3.4105,-3.372,-3.3607,-3.3418,-3.3418,-3.3476,-3.3633,-3.3906,-3.416,-3.4355,-3.4687,-3.5098,-3.5351,-3.5488,-3.5684,-3.5918,-3.5996,-3.6016,-3.6016,-3.6016,-3.5976,-3.5937,-3.5918,-3.6016,-3.6016,-3.5996,-3.5996,-3.584,-3.5801,-3.5527,-3.5351,-3.5078,-3.4863,-3.4551,-3.4277,-3.4004,-3.3789,-4.6401,-4.6269,-4.5475,-4.5235,-4.5502,-4.5502,-4.5047,-4.4315,-4.4315,-4.3793,-4.3098,-4.2986,-4.2986,-4.2986,-4.2986,-4.3042,-4.2986,-4.2986,-4.2986,-4.2986,-4.2986,-4.2986,-4.2824,-4.2171,-4.1731,-4.1478,-4.1051,-4.081,-4.0657,-4.0025,-3.9724,-3.9755,-3.9899,-3.9572,-3.8881,-3.8714,-3.8339,-3.7582,-3.6688,-3.6196,-3.6196,-3.6028,-3.5787,-3.5351,-3.488,-3.434,-3.384,-3.3469,-3.3292,-3.3292,-3.3292,-3.3292,-3.3292,-3.3292,-3.3292,-3.3315,-3.3614,-3.3775,-3.3843,-3.4257,-3.4693,-3.5014,-3.5359,-3.568,-3.5979,-3.6162,-3.6277,-3.6277,-3.6332,-3.6369,-3.6736,-3.692,-3.6499,-3.5382,-3.5553,-3.5969,-3.6544,-3.6616,-3.5966,-3.4736,-3.4423,-3.4173,-3.3666,-3.3613,-3.3906,-3.416,-3.457,-3.5019,-3.5195,-3.5527,-3.5801,-3.5859,-3.6016,-3.6035,-3.6035,-3.6035,-3.6035,-3.6035,-3.6035,-3.6035,-3.6035,-3.6035,-3.6035,-3.6035,-3.6035,-3.6016,-3.5996,-3.5879,-3.5684,-3.5508,-3.5234,-3.4922,-3.459,-3.4355,-3.418,-4.6766,-4.669,-4.5847,-4.5873,-4.6374,-4.6164,-4.5688,-4.5288,-4.5235,-4.475,-4.4016,-4.3932,-4.3713,-4.3517,-4.3462,-4.3295,-4.3042,-4.2986,-4.2986,-4.2986,-4.2986,-4.2986,-4.3017,-4.3017,-4.2785,-4.2494,-4.2207,-4.2062,-4.2036,-4.1185,-4.0727,-4.0581,-4.0669,-4.0363,-3.9749,-3.955,-3.9145,-3.861,-3.7859,-3.7412,-3.7363,-3.7166,-3.6796,-3.6204,-3.5729,-3.5209,-3.4601,-3.4148,-3.3683,-3.3384,-3.3292,-3.3292,-3.3292,-3.3453,-3.3545,-3.366,-3.4004,-3.4303,-3.4349,-3.4785,-3.5175,-3.5474,-3.568,-3.591,-3.6208,-3.6254,-3.6323,-3.653,-3.6576,-3.6759,-3.7219,-3.754,-3.7303,-3.6871,-3.7026,-3.7269,-3.748,-3.7635,-3.7089,-3.5828,-3.5108,-3.4691,-3.4389,-3.3975,-3.4303,-3.4531,-3.5039,-3.5508,-3.5605,-3.584,-3.5957,-3.6016,-3.6016,-3.6035,-3.6035,-3.6035,-3.6035,-3.6035,-3.6035,-3.6035,-3.6035,-3.6035,-3.6035,-3.6035,-3.6035,-3.6035,-3.5996,-3.5996,-3.5879,-3.5703,-3.5566,-3.5371,-3.5078,-3.4883,-3.4648,-4.6766,-4.6662,-4.5847,-4.6374,-4.7647,-4.695,-4.6558,-4.6662,-4.6558,-4.6006,-4.5449,-4.5235,-4.494,-4.437,-4.4152,-4.3738,-4.3098,-4.2986,-4.2986,-4.2986,-4.3042,-4.3042,-4.324,-4.3768,-4.41,-4.4271,-4.3773,-4.3512,-4.3433,-4.2223,-4.1182,-4.0963,-4.0995,-4.0379,-4.0002,-3.9851,-3.9955,-3.9495,-3.9094,-3.8817,-3.8843,-3.8417,-3.7767,-3.7242,-3.6763,-3.6207,-3.5577,-3.5039,-3.4383,-3.3522,-3.3499,-3.3522,-3.3499,-3.3821,-3.405,-3.4073,-3.4555,-3.4785,-3.4923,-3.529,-3.5566,-3.5657,-3.5979,-3.63,-3.6346,-3.6438,-3.6622,-3.7012,-3.7058,-3.7288,-3.7793,-3.8183,-3.8401,-3.8596,-3.8422,-3.8335,-3.7985,-3.7954,-3.7533,-3.6624,-3.5665,-3.521,-3.5556,-3.4999,-3.5176,-3.5501,-3.5904,-3.6229,-3.6091,-3.6296,-3.6132,-3.6016,-3.6035,-3.6035,-3.6035,-3.6035,-3.6035,-3.6035,-3.6035,-3.6035,-3.6035,-3.6035,-3.6035,-3.6035,-3.6035,-3.6035,-3.6016,-3.6016,-3.6016,-3.5918,-3.582,-3.5762,-3.5586,-3.5332,-3.5039,-4.6766,-4.6714,-4.5847,-4.6164,-4.695,-4.6216,-4.6216,-4.6662,-4.6111,-4.5873,-4.5555,-4.5502,-4.5154,-4.437,-4.4315,-4.3848,-4.3154,-4.2986,-4.2986,-4.2986,-4.2986,-4.3406,-4.3823,-4.4206,-4.467,-4.5182,-4.505,-4.497,-4.4811,-4.3458,-4.2749,-4.2648,-4.2553,-4.1931,-4.0689,-4.1389,-4.1182,-3.9902,-3.9572,-3.9446,-3.9421,-3.932,-3.879,-3.7857,-3.7655,-3.7154,-3.6279,-3.5695,-3.5108,-3.4515,-3.4395,-3.4395,-3.4349,-3.4486,-3.4578,-3.467,-3.5037,-3.5336,-3.5428,-3.5772,-3.6048,-3.6071,-3.6208,-3.6438,-3.6805,-3.6828,-3.7081,-3.7471,-3.7609,-3.7816,-3.8275,-3.8527,-3.8757,-3.9055,-3.9078,-3.903,-3.893,-3.8894,-3.8514,-3.7616,-3.7497,-3.7264,-3.6959,-3.6958,-3.718,-3.7491,-3.7715,-3.7678,-3.7153,-3.6924,-3.6789,-3.6219,-3.6035,-3.6035,-3.6035,-3.6035,-3.6035,-3.6035,-3.6035,-3.6035,-3.6035,-3.6035,-3.6035,-3.6035,-3.6035,-3.6035,-3.6035,-3.6016,-3.6035,-3.6035,-3.5976,-3.5879,-3.5801,-3.5605,-3.5391,-4.6296,-4.6164,-4.5369,-4.5688,-4.661,-4.59,-4.6216,-4.7105,-4.6818,-4.6583,-4.6583,-4.661,-4.59,-4.4886,-4.4778,-4.4097,-4.3098,-4.2986,-4.2986,-4.2986,-4.2986,-4.3555,-4.4299,-4.4621,-4.5316,-4.6127,-4.6108,-4.6032,-4.5741,-4.4491,-4.3745,-4.3274,-4.3202,-4.234,-4.0983,-4.1414,-4.1389,-4.0205,-3.9848,-3.9697,-3.9697,-3.9697,-3.9237,-3.8526,-3.8374,-3.7919,-3.716,-3.6749,-3.6166,-3.537,-3.4941,-3.4808,-3.4831,-3.4992,-3.5083,-3.5129,-3.5566,-3.5841,-3.5887,-3.6171,-3.6369,-3.653,-3.6599,-3.6851,-3.7242,-3.7356,-3.7563,-3.8022,-3.8091,-3.839,-3.8757,-3.8895,-3.901,-3.9216,-3.9308,-3.94,-3.9584,-3.9652,-3.9482,-3.9183,-3.8942,-3.8861,-3.8306,-3.8487,-3.8616,-3.8742,-3.8779,-3.8357,-3.7775,-3.7709,-3.7374,-3.6742,-3.6219,-3.6219,-3.6152,-3.6152,-3.6084,-3.6016,-3.6035,-3.6035,-3.6035,-3.6035,-3.6035,-3.6035,-3.6035,-3.6035,-3.6035,-3.6035,-3.6035,-3.6035,-3.6035,-3.5996,-3.5918,-3.5859,-3.5644,-4.5342,-4.5289,-4.4533,-4.5127,-4.6401,-4.5847,-4.6426,-4.7852,-4.7953,-4.7852,-4.775,-4.7852,-4.6662,-4.5395,-4.5047,-4.4453,-4.3042,-4.2986,-4.2986,-4.2986,-4.3103,-4.3537,-4.4547,-4.4944,-4.584,-4.6759,-4.6857,-4.6892,-4.6556,-4.5342,-4.4301,-4.388,-4.3159,-4.2204,-4.1641,-4.119,-4.0807,-4.0603,-4.0249,-3.9998,-3.9923,-3.9873,-3.9461,-3.8819,-3.869,-3.8586,-3.8222,-3.7988,-3.7383,-3.5958,-3.5364,-3.5143,-3.5113,-3.5405,-3.5566,-3.5703,-3.6048,-3.6346,-3.6369,-3.6484,-3.6668,-3.7012,-3.7104,-3.7333,-3.7747,-3.7885,-3.8091,-3.8596,-3.8665,-3.8849,-3.9124,-3.9262,-3.9262,-3.9308,-3.9308,-3.9538,-3.9965,-4.0126,-4.0249,-4.0625,-3.9933,-3.9918,-3.9806,-3.9516,-3.9131,-4.0103,-4.0105,-3.967,-3.9101,-3.8772,-3.8109,-3.7146,-3.6809,-3.6471,-3.6403,-3.6268,-3.6152,-3.6084,-3.6016,-3.6035,-3.6035,-3.6035,-3.6035,-3.6035,-3.6035,-3.6035,-3.6035,-3.6035,-3.6035,-3.6035,-3.6035,-3.6035,-3.6016,-3.5976,-3.584,-4.4587,-4.4479,-4.3628,-4.4261,-4.5635,-4.5635,-4.6478,-4.8004,-4.8083,-4.7596,-4.7208,-4.7105,-4.6138,-4.4587,-4.4561,-4.3987,-4.3098,-4.2986,-4.2986,-4.2986,-4.2986,-4.3624,-4.4441,-4.481,-4.5599,-4.6613,-4.7086,-4.7354,-4.7355,-4.6662,-4.5846,-4.5076,-4.457,-4.3823,-4.2279,-4.2457,-4.2121,-4.1336,-4.1003,-4.0701,-4.0375,-4.0325,-3.9887,-3.9041,-3.8939,-3.9099,-3.9206,-3.8893,-3.8247,-3.7551,-3.6974,-3.6494,-3.6018,-3.6025,-3.6094,-3.6231,-3.6576,-3.6874,-3.692,-3.7173,-3.7494,-3.7586,-3.7655,-3.7839,-3.8344,-3.8413,-3.8642,-3.9033,-3.9147,-3.917,-3.9285,-3.9308,-3.9308,-3.9308,-3.9331,-3.9492,-3.9965,-4.0103,-4.0135,-4.0349,-4.0776,-4.1132,-4.1206,-4.138,-4.1306,-4.1527,-4.1357,-4.1077,-4.0473,-3.9823,-3.8948,-3.7934,-3.7673,-3.7473,-3.726,-3.7126,-3.6789,-3.6471,-3.6287,-3.6287,-3.6287,-3.6035,-3.6035,-3.6035,-3.6035,-3.6035,-3.6035,-3.6035,-3.6035,-3.6035,-3.6016,-3.5976,-3.5957,-3.5976,-3.584,-4.3683,-4.3683,-4.3184,-4.3987,-4.5289,-4.5154,-4.59,-4.7157,-4.7053,-4.6662,-4.6296,-4.6164,-4.5475,-4.4315,-4.4261,-4.3823,-4.3129,-4.2986,-4.2986,-4.3098,-4.3351,-4.3942,-4.4465,-4.5019,-4.5877,-4.6948,-4.746,-4.7802,-4.7796,-4.726,-4.6506,-4.6058,-4.5741,-4.4674,-4.347,-4.3669,-4.3117,-4.203,-4.1859,-4.158,-4.1006,-4.0849,-4.0721,-4.0103,-3.9975,-4.0134,-4.0395,-4.0159,-3.9549,-3.8881,-3.8424,-3.759,-3.6633,-3.6507,-3.6622,-3.6714,-3.7104,-3.7356,-3.7471,-3.7632,-3.7862,-3.816,-3.816,-3.8459,-3.878,-3.8918,-3.9185,-3.951,-3.9462,-3.9308,-3.9308,-3.9308,-3.9308,-3.9308,-3.9308,-3.9423,-3.9675,-3.9965,-4.0356,-4.0724,-4.126,-4.1587,-4.1948,-4.2132,-4.2184,-4.1888,-4.1847,-4.1569,-4.0751,-4.0169,-3.9693,-3.8997,-3.876,-3.8498,-3.8246,-3.7975,-3.7642,-3.7193,-3.6742,-3.6809,-3.6856,-3.6471,-3.6035,-3.6035,-3.6035,-3.6035,-3.6035,-3.6035,-3.6016,-3.6016,-3.5996,-3.5918,-3.5801,-3.5684,-3.5469,-4.2986,-4.2986,-4.2986,-4.3878,-4.5101,-4.4642,-4.5235,-4.6348,-4.5847,-4.5555,-4.5289,-4.5289,-4.4832,-4.4206,-4.4042,-4.3628,-4.3209,-4.2986,-4.2986,-4.3098,-4.3823,-4.4318,-4.4782,-4.5575,-4.6444,-4.7303,-4.7656,-4.7937,-4.7875,-4.7414,-4.7002,-4.669,-4.6111,-4.5316,-4.4701,-4.4412,-4.4069,-4.3054,-4.269,-4.2358,-4.1749,-4.1562,-4.1351,-4.1096,-4.1071,-4.1046,-4.11,-4.1018,-4.0715,-3.9837,-3.9671,-3.8532,-3.7371,-3.6851,-3.7206,-3.7284,-3.7834,-3.8089,-3.8215,-3.8273,-3.847,-3.8746,-3.8688,-3.8872,-3.917,-3.9298,-3.9533,-3.9791,-3.9755,-3.9485,-3.9308,-3.9308,-3.9308,-3.9308,-3.9308,-3.9308,-3.9377,-3.9698,-4.0249,-4.1,-4.1168,-4.1443,-4.1811,-4.2063,-4.2155,-4.2161,-4.2161,-4.1924,-4.111,-4.0659,-4.0294,-4.0406,-4.0211,-3.9736,-3.9453,-3.8705,-3.8374,-3.8175,-3.7595,-3.7461,-3.7508,-3.6991,-3.6539,-3.6084,-3.6035,-3.6035,-3.6035,-3.6035,-3.6016,-3.6016,-3.5879,-3.5723,-3.5547,-3.5351,-3.5098,-4.2986,-4.2986,-4.2986,-4.3602,-4.4424,-4.437,-4.4778,-4.5608,-4.5502,-4.5101,-4.4507,-4.4479,-4.4042,-4.3462,-4.324,-4.3098,-4.3042,-4.2986,-4.2986,-4.3184,-4.3932,-4.4642,-4.5155,-4.6186,-4.7039,-4.7623,-4.774,-4.774,-4.7999,-4.7903,-4.7494,-4.695,-4.6662,-4.6138,-4.5342,-4.4781,-4.4836,-4.4408,-4.3793,-4.3208,-4.2897,-4.2309,-4.1856,-4.1501,-4.1476,-4.1451,-4.1376,-4.1326,-4.1006,-4.0409,-3.9916,-3.9213,-3.8427,-3.7993,-3.796,-3.8311,-3.8854,-3.9192,-3.9125,-3.951,-3.9477,-3.9347,-3.9147,-3.9206,-3.9344,-3.9367,-3.9638,-3.9989,-4.0106,-3.9896,-3.9367,-3.9308,-3.9308,-3.9308,-3.9308,-3.9308,-3.9331,-3.9469,-3.9721,-4.0318,-4.0709,-4.1122,-4.1466,-4.1696,-4.1696,-4.1719,-4.1719,-4.1696,-4.1251,-4.1148,-4.1216,-4.1466,-4.1911,-4.1312,-4.069,-3.9713,-3.9101,-3.9233,-3.8772,-3.8242,-3.8109,-3.7642,-3.7193,-3.6674,-3.6219,-3.6035,-3.6035,-3.6035,-3.6016,-3.6016,-3.5781,-3.5508,-3.5273,-3.5059,-3.4785,-4.2986,-4.2986,-4.2986,-4.3517,-4.4097,-4.3793,-4.4097,-4.4724,-4.4398,-4.3987,-4.3713,-4.3628,-4.3406,-4.3098,-4.2986,-4.2986,-4.2986,-4.2986,-4.2986,-4.324,-4.4235,-4.4778,-4.5262,-4.6558,-4.7208,-4.7513,-4.7521,-4.7746,-4.8055,-4.8083,-4.7852,-4.7647,-4.7494,-4.7053,-4.6453,-4.6374,-4.5847,-4.5635,-4.5101,-4.4457,-4.3818,-4.3055,-4.2439,-4.2258,-4.2158,-4.2183,-4.2183,-4.2183,-4.1908,-4.1355,-4.074,-4.0266,-3.9846,-3.9423,-3.9068,-3.9269,-3.9884,-4.0192,-3.9962,-4.0047,-3.9849,-3.9403,-3.9308,-3.9485,-3.9661,-3.9814,-3.9931,-4.0165,-4.0513,-4.0281,-3.9426,-3.9308,-3.9308,-3.9308,-3.9308,-3.9308,-3.9308,-3.9308,-3.9492,-3.9721,-4.0135,-4.0594,-4.103,-4.1191,-4.1191,-4.1191,-4.1191,-4.1191,-4.1191,-4.1168,-4.1237,-4.1811,-4.2092,-4.1998,-4.1421,-4.069,-4.0105,-4.0236,-3.9953,-3.943,-3.8904,-3.8507,-3.7842,-3.7126,-3.6674,-3.6219,-3.6035,-3.6035,-3.6035,-3.5976,-3.5664,-3.5351,-3.5019,-3.4726,-3.4434,-4.2986,-4.2986,-4.2986,-4.3406,-4.3903,-4.3295,-4.3406,-4.3793,-4.3351,-4.3098,-4.2986,-4.3042,-4.3042,-4.2986,-4.2986,-4.2986,-4.2986,-4.2986,-4.2986,-4.3295,-4.4398,-4.4886,-4.5369,-4.6401,-4.7596,-4.7494,-4.7722,-4.8083,-4.8083,-4.8083,-4.8083,-4.7981,-4.8083,-4.7801,-4.726,-4.7208,-4.6818,-4.6662,-4.6164,-4.5688,-4.4479,-4.3462,-4.2986,-4.2986,-4.2986,-4.2911,-4.2836,-4.2836,-4.2668,-4.2164,-4.168,-4.1272,-4.1182,-4.0836,-4.0415,-4.0269,-4.0875,-4.0928,-4.0745,-4.0374,-4.0223,-3.9661,-3.9344,-3.9638,-4.0106,-4.0397,-4.0571,-4.0513,-4.0745,-4.0629,-3.9779,-3.9367,-3.9308,-3.9308,-3.9308,-3.9308,-3.9308,-3.9308,-3.9308,-3.9538,-3.9744,-4.0089,-4.0548,-4.0663,-4.0663,-4.0663,-4.0663,-4.0663,-4.064,-4.0456,-4.0663,-4.1466,-4.1971,-4.2184,-4.1956,-4.1637,-4.1293,-4.1421,-4.1013,-4.0431,-3.9953,-3.943,-3.8639,-3.7775,-3.7126,-3.6674,-3.6355,-3.6035,-3.6035,-3.5898,-3.5547,-3.5195,-3.4883,-3.4394,-3.3945,-4.2986,-4.2986,-4.2986,-4.3073,-4.3154,-4.3042,-4.3042,-4.3154,-4.3098,-4.2986,-4.2986,-4.2986,-4.2986,-4.2986,-4.2986,-4.2986,-4.3042,-4.3154,-4.3154,-4.3351,-4.4315,-4.5047,-4.5422,-4.6348,-4.7363,-4.7596,-4.7931,-4.8083,-4.8083,-4.8083,-4.8083,-4.8083,-4.8083,-4.8004,-4.7801,-4.7494,-4.726,-4.7363,-4.6426,-4.5315,-4.4424,-4.3517,-4.3154,-4.2986,-4.2986,-4.2986,-4.2986,-4.2986,-4.293,-4.2818,-4.2256,-4.1972,-4.1948,-4.1923,-4.1866,-4.1817,-4.1923,-4.1948,-4.1688,-4.1206,-4.0629,-3.9989,-3.9638,-3.9697,-4.0397,-4.1263,-4.1549,-4.1033,-4.1148,-4.0803,-4.0106,-3.9661,-3.9426,-3.9367,-3.9367,-3.9367,-3.9308,-3.9308,-3.9308,-3.9331,-3.9538,-3.9744,-4.0066,-4.0172,-4.0218,-4.0218,-4.0218,-4.0218,-4.0287,-4.0158,-4.0295,-4.1145,-4.1926,-4.2247,-4.2275,-4.1956,-4.202,-4.2275,-4.187,-4.1335,-4.0884,-4.0236,-3.9364,-3.8573,-3.7842,-3.7059,-3.6606,-3.6287,-3.6084,-3.5801,-3.543,-3.5078,-3.4746,-3.418,-3.3574,-4.2986,-4.2986,-4.2986,-4.2986,-4.2986,-4.2986,-4.2986,-4.2986,-4.2986,-4.2986,-4.2986,-4.2986,-4.2986,-4.2986,-4.2986,-4.2986,-4.3098,-4.3462,-4.3738,-4.4013,-4.4858,-4.5555,-4.5847,-4.6766,-4.7699,-4.7494,-4.7852,-4.8083,-4.8083,-4.8083,-4.8083,-4.8083,-4.8083,-4.8083,-4.8083,-4.775,-4.7801,-4.7647,-4.687,-4.5847,-4.4993,-4.4206,-4.3517,-4.3042,-4.2986,-4.2986,-4.2986,-4.2986,-4.2986,-4.293,-4.24,-4.2287,-4.24,-4.2344,-4.2174,-4.2625,-4.2625,-4.2457,-4.2061,-4.1492,-4.0918,-4.0397,-4.0048,-4.0281,-4.1148,-4.1948,-4.2344,-4.172,-4.1663,-4.1263,-4.0571,-4.0339,-3.9873,-3.9638,-3.9579,-3.9426,-3.9367,-3.9308,-3.9308,-3.9308,-3.9331,-3.9538,-3.9675,-3.9698,-3.9744,-3.9744,-3.9721,-3.9721,-3.9974,-4.0272,-4.0525,-4.0961,-4.1696,-4.2252,-4.2275,-4.2148,-4.2148,-4.2275,-4.2275,-4.1806,-4.1614,-4.1035,-4.0236,-3.9561,-3.9035,-3.8175,-3.7126,-3.6606,-3.6423,-3.5886,-3.5312,-3.5178,-3.4955,-3.4004,-3.3516,-4.2986,-4.2986,-4.2986,-4.2986,-4.2986,-4.2986,-4.2986,-4.2986,-4.2986,-4.2986,-4.2986,-4.2986,-4.2986,-4.2986,-4.2986,-4.2986,-4.3017,-4.3683,-4.4042,-4.4696,-4.5235,-4.5662,-4.6058,-4.7026,-4.726,-4.7105,-4.7801,-4.8083,-4.8083,-4.8083,-4.8083,-4.8083,-4.8083,-4.8083,-4.8083,-4.8032,-4.8083,-4.7981,-4.7208,-4.6269,-4.5475,-4.467,-4.3823,-4.324,-4.2986,-4.2986,-4.2986,-4.2986,-4.2986,-4.293,-4.2625,-4.2569,-4.2818,-4.2625,-4.2569,-4.2849,-4.293,-4.2737,-4.2344,-4.1834,-4.1206,-4.086,-4.0687,-4.1091,-4.181,-4.2625,-4.2849,-4.2344,-4.2061,-4.1549,-4.1033,-4.1033,-4.0455,-4.0048,-3.9896,-3.972,-3.9485,-3.9367,-3.9308,-3.9308,-3.9308,-3.9308,-3.94,-3.9354,-3.9354,-3.9331,-3.9308,-3.9331,-3.9744,-4.0295,-4.064,-4.1007,-4.1696,-4.2229,-4.2275,-4.2275,-4.2275,-4.2275,-4.2275,-4.2212,-4.202,-4.1678,-4.11,-4.056,-4.0105,-3.9233,-3.8175,-3.7461,-3.6722,-3.6556,-3.6236,-3.5731,-3.5187,-3.4187,-3.3559,-4.2986,-4.2986,-4.2986,-4.2986,-4.2986,-4.2986,-4.2986,-4.2986,-4.2986,-4.2986,-4.2986,-4.2986,-4.2986,-4.2986,-4.2986,-4.2986,-4.2986,-4.3073,-4.3683,-4.3903,-4.3878,-4.5127,-4.598,-4.6558,-4.6766,-4.7699,-4.8083,-4.8083,-4.8083,-4.8083,-4.8083,-4.8083,-4.8083,-4.8083,-4.8083,-4.8083,-4.8083,-4.7981,-4.7391,-4.6426,-4.5635,-4.4832,-4.4068,-4.324,-4.3042,-4.3017,-4.2986,-4.2986,-4.2986,-4.2986,-4.2874,-4.2793,-4.293,-4.2874,-4.2905,-4.293,-4.2986,-4.293,-4.2681,-4.2287,-4.2004,-4.1948,-4.1891,-4.1834,-4.2231,-4.2681,-4.2849,-4.2793,-4.2457,-4.2118,-4.172,-4.1492,-4.1091,-4.0513,-4.0223,-3.9989,-3.9697,-3.9367,-3.9308,-3.9308,-3.9308,-3.9367,-3.9541,-3.9564,-3.9354,-3.9354,-3.9538,-3.9561,-3.9905,-4.0387,-4.0709,-4.1145,-4.1811,-4.2184,-4.2252,-4.2275,-4.2275,-4.2275,-4.2275,-4.2275,-4.2212,-4.1934,-4.1614,-4.1293,-4.0755,-4.0018,-3.9495,-3.9101,-3.8597,-3.7902,-3.7308,-3.679,-3.5912,-3.4983,-3.4263,-4.2986,-4.2986,-4.2986,-4.2986,-4.2986,-4.2986,-4.2986,-4.2986,-4.2986,-4.2986,-4.2986,-4.2986,-4.2986,-4.2986,-4.2986,-4.2986,-4.3098,-4.3628,-4.3987,-4.4533,-4.5073,-4.5874,-4.6662,-4.7078,-4.7517,-4.8004,-4.8083,-4.8083,-4.8083,-4.8083,-4.8083,-4.8083,-4.8083,-4.8083,-4.8083,-4.8083,-4.8083,-4.8032,-4.7647,-4.6974,-4.5794,-4.5741,-4.4966,-4.3154,-4.3683,-4.3406,-4.3098,-4.3042,-4.2986,-4.2986,-4.2986,-4.2986,-4.2986,-4.2986,-4.2986,-4.2986,-4.2986,-4.2986,-4.293,-4.2457,-4.2118,-4.2118,-4.2118,-4.2231,-4.2513,-4.2874,-4.2986,-4.293,-4.2818,-4.2513,-4.2061,-4.2118,-4.2004,-4.1148,-4.0629,-4.0339,-3.9931,-3.9521,-3.9521,-3.9603,-3.9544,-3.9485,-3.9682,-3.9821,-3.9587,-3.94,-3.9629,-3.9882,-4.0226,-4.0571,-4.0938,-4.126,-4.1903,-4.2161,-4.2252,-4.2275,-4.2275,-4.2275,-4.2275,-4.2275,-4.2275,-4.2275,-4.1998,-4.1742,-4.155,-4.1013,-4.0755,-4.0884,-4.03,-3.9084,-3.8373,-3.7909,-3.6957,-3.5908,-3.5324,-4.2986,-4.2986,-4.2986,-4.2986,-4.2986,-4.2986,-4.2986,-4.2986,-4.2986,-4.2986,-4.2986,-4.2986,-4.2986,-4.2986,-4.2986,-4.2986,-4.3265,-4.3793,-4.437,-4.494,-4.5635,-4.6662,-4.7157,-4.7442,-4.7596,-4.7981,-4.8083,-4.8083,-4.8083,-4.8083,-4.8083,-4.8083,-4.8083,-4.8083,-4.8083,-4.8083,-4.8083,-4.8083,-4.7953,-4.7414,-4.6164,-4.6296,-4.5768,-4.3848,-4.3987,-4.3738,-4.324,-4.2986,-4.2986,-4.2986,-4.2986,-4.2986,-4.2986,-4.2986,-4.2986,-4.2986,-4.2986,-4.2986,-4.2874,-4.2681,-4.2344,-4.2457,-4.24,-4.2625,-4.2849,-4.2986,-4.2986,-4.2986,-4.2986,-4.2818,-4.2344,-4.2569,-4.2457,-4.1606,-4.1033,-4.0687,-4.0106,-3.9697,-3.9814,-3.9989,-3.9779,-3.9554,-4.0148,-4.0356,-4.0255,-4.0043,-4.0158,-4.0364,-4.0571,-4.0938,-4.1306,-4.1627,-4.1971,-4.2201,-4.2275,-4.2275,-4.2275,-4.2275,-4.2275,-4.2275,-4.2275,-4.2275,-4.2275,-4.2061,-4.1934,-4.187,-4.1742,-4.1678,-4.0948,-4.0018,-3.9412,-3.8979,-3.8208,-3.7276,-3.6708,-4.2986,-4.2986,-4.2986,-4.2986,-4.2986,-4.2986,-4.2986,-4.2986,-4.2986,-4.2986,-4.2986,-4.2986,-4.3098,-4.3098,-4.3184,-4.3295,-4.3572,-4.4097,-4.4724,-4.5369,-4.5794,-4.6662,-4.7208,-4.7494,-4.7647,-4.7981,-4.8083,-4.8083,-4.8083,-4.8083,-4.8083,-4.8083,-4.8083,-4.8083,-4.8083,-4.8083,-4.8083,-4.8083,-4.8083,-4.7466,-4.6898,-4.6846,-4.5927,-4.4804,-4.4424,-4.4097,-4.3462,-4.3017,-4.3042,-4.2986,-4.2986,-4.2986,-4.2986,-4.2986,-4.2986,-4.2986,-4.2986,-4.2986,-4.2986,-4.2986,-4.2905,-4.2849,-4.2737,-4.293,-4.2986,-4.2986,-4.2986,-4.2986,-4.2986,-4.2986,-4.293,-4.293,-4.2513,-4.2174,-4.1606,-4.0976,-4.0397,-3.9931,-4.0048,-4.0352,-3.993,-3.9692,-4.0379,-4.088,-4.0854,-4.0823,-4.08,-4.0892,-4.1053,-4.1306,-4.1719,-4.1857,-4.2132,-4.2201,-4.2275,-4.2275,-4.2275,-4.2275,-4.2275,-4.2275,-4.2275,-4.2275,-4.2275,-4.2275,-4.2212,-4.2084,-4.2148,-4.2212,-4.1486,-4.0862,-4.0487,-4.0002,-3.9308,-3.8753,-3.8164,-4.2986,-4.2986,-4.2986,-4.2986,-4.2986,-4.2986,-4.2986,-4.2986,-4.2986,-4.2986,-4.2986,-4.2986,-4.3406,-4.3683,-4.3878,-4.4042,-4.4615,-4.4778,-4.5395,-4.5502,-4.6058,-4.6558,-4.7157,-4.7596,-4.775,-4.8032,-4.8083,-4.8083,-4.8083,-4.8083,-4.8083,-4.8083,-4.8083,-4.8083,-4.8083,-4.8083,-4.8083,-4.8083,-4.8032,-4.7699,-4.7002,-4.7208,-4.6818,-4.5208,-4.5101,-4.4615,-4.3768,-4.3351,-4.3042,-4.2986,-4.2986,-4.2986,-4.2986,-4.2986,-4.2986,-4.2986,-4.2986,-4.2986,-4.2986,-4.2986,-4.2986,-4.2986,-4.2986,-4.2986,-4.2986,-4.2986,-4.2986,-4.2986,-4.2986,-4.2986,-4.2986,-4.2986,-4.2737,-4.2513,-4.2004,-4.132,-4.0745,-4.0281,-4.0188,-4.0597,-4.0551,-4.0662,-4.1144,-4.1422,-4.1368,-4.1443,-4.142,-4.1581,-4.1742,-4.188,-4.2132,-4.2155,-4.2184,-4.2229,-4.2275,-4.2275,-4.2275,-4.2275,-4.2275,-4.2275,-4.2275,-4.2275,-4.2275,-4.2275,-4.2275,-4.2275,-4.2275,-4.2275,-4.2212,-4.1779,-4.1384,-4.1189,-4.0923,-4.0211,-3.9528,-4.2986,-4.2986,-4.2986,-4.2986,-4.2986,-4.2986,-4.2986,-4.2986,-4.2986,-4.2986,-4.2986,-4.3042,-4.3462,-4.4097,-4.437,-4.4724,-4.5449,-4.5847,-4.5953,-4.6058,-4.6818,-4.726,-4.7545,-4.775,-4.7981,-4.8083,-4.8083,-4.8083,-4.8083,-4.8083,-4.8083,-4.8083,-4.8083,-4.8083,-4.8083,-4.8083,-4.8083,-4.8083,-4.8032,-4.7852,-4.7596,-4.7545,-4.7363,-4.6269,-4.5582,-4.5101,-4.4315,-4.3628,-4.3042,-4.3042,-4.3042,-4.3042,-4.2986,-4.2986,-4.2986,-4.2986,-4.2986,-4.2986,-4.2986,-4.2986,-4.2986,-4.2986,-4.2986,-4.2986,-4.2986,-4.2986,-4.2986,-4.2986,-4.2986,-4.2986,-4.2986,-4.2986,-4.293,-4.2706,-4.2287,-4.1549,-4.1033,-4.0629,-4.0761,-4.1171,-4.1423,-4.1633,-4.1831,-4.186,-4.1903,-4.1971,-4.204,-4.2178,-4.227,-4.2293,-4.2275,-4.2252,-4.2252,-4.2252,-4.2275,-4.2275,-4.2275,-4.2275,-4.2275,-4.2275,-4.2275,-4.2275,-4.2275,-4.2275,-4.2275,-4.2275,-4.2275,-4.2275,-4.2212,-4.2212,-4.2079,-4.2056,-4.2275,-4.1643,-4.0692,-4.2986,-4.2986,-4.2986,-4.2986,-4.2986,-4.2986,-4.2986,-4.2986,-4.2986,-4.2986,-4.2986,-4.2986,-4.3462,-4.4152,-4.437,-4.4886,-4.5714,-4.6506,-4.6794,-4.7002,-4.7596,-4.7852,-4.7953,-4.8032,-4.8083,-4.8083,-4.8083,-4.8083,-4.8083,-4.8083,-4.8083,-4.8083,-4.8083,-4.8083,-4.8083,-4.8083,-4.8083,-4.8083,-4.8083,-4.7981,-4.7903,-4.7981,-4.7647,-4.6818,-4.6164,-4.5475,-4.475,-4.3987,-4.3462,-4.324,-4.3129,-4.3098,-4.3042,-4.2986,-4.2986,-4.2986,-4.2986,-4.2986,-4.2986,-4.2986,-4.2986,-4.2986,-4.2986,-4.2986,-4.2986,-4.2986,-4.2986,-4.2986,-4.2986,-4.2986,-4.2986,-4.2986,-4.2986,-4.2706,-4.24,-4.1891,-4.1378,-4.1268,-4.1567,-4.1808,-4.2062,-4.2233,-4.2427,-4.2497,-4.2218,-4.2201,-4.2201,-4.2224,-4.2293,-4.2316,-4.2275,-4.2275,-4.2252,-4.2275,-4.2275,-4.2275,-4.2275,-4.2275,-4.2275,-4.2275,-4.2275,-4.2275,-4.2275,-4.2275,-4.2275,-4.2275,-4.2275,-4.2275,-4.2275,-4.2275,-4.2275,-4.2275,-4.2275,-4.2275,-4.1665,-4.2986,-4.2986,-4.2986,-4.2986,-4.2986,-4.2986,-4.2986,-4.2986,-4.2986,-4.2986,-4.2986,-4.2986,-4.3517,-4.4315,-4.4859,-4.5582,-4.6453,-4.7208,-4.7596,-4.7852,-4.7903,-4.8083,-4.8083,-4.8083,-4.8083,-4.8083,-4.8083,-4.8083,-4.8083,-4.8083,-4.8083,-4.8083,-4.8083,-4.8083,-4.8083,-4.8083,-4.8083,-4.8083,-4.8083,-4.8083,-4.8083,-4.8083,-4.7801,-4.7466,-4.6766,-4.6138,-4.5715,-4.5047,-4.4479,-4.3987,-4.3932,-4.3738,-4.2986,-4.2986,-4.2986,-4.2986,-4.2986,-4.2986,-4.2986,-4.2986,-4.2986,-4.2986,-4.2986,-4.2986,-4.2986,-4.2986,-4.2986,-4.2986,-4.2986,-4.2986,-4.2986,-4.2986,-4.2986,-4.2818,-4.2513,-4.2118,-4.1769,-4.2095,-4.2363,-4.2852,-4.3027,-4.3,-4.3174,-4.2676,-4.2397,-4.2379,-4.2275,-4.2275,-4.2275,-4.2275,-4.2275,-4.2275,-4.2275,-4.2275,-4.2275,-4.2275,-4.2275,-4.2275,-4.2275,-4.2275,-4.2275,-4.2275,-4.2275,-4.2275,-4.2275,-4.2275,-4.2275,-4.2275,-4.2275,-4.2275,-4.2275,-4.2275,-4.2275,-4.2275,-4.2275,-4.3154,-4.3321,-4.3098,-4.2986,-4.2986,-4.2986,-4.2986,-4.2986,-4.2986,-4.2986,-4.2986,-4.2986,-4.3462,-4.4261,-4.4778,-4.5582,-4.6794,-4.7157,-4.7596,-4.8032,-4.8083,-4.8083,-4.8083,-4.8083,-4.8083,-4.8083,-4.8083,-4.8083,-4.8083,-4.8083,-4.8083,-4.8083,-4.8083,-4.8083,-4.8083,-4.8083,-4.8083,-4.8083,-4.8083,-4.8083,-4.8083,-4.8083,-4.8083,-4.7931,-4.726,-4.695,-4.6714,-4.6006,-4.5315,-4.4832,-4.4778,-4.437,-4.3572,-4.324,-4.3042,-4.2986,-4.2986,-4.2986,-4.2986,-4.2986,-4.2986,-4.2986,-4.2986,-4.2986,-4.2986,-4.2986,-4.2986,-4.2986,-4.2986,-4.2986,-4.2986,-4.2986,-4.2986,-4.2986,-4.2681,-4.24,-4.2591,-4.2863,-4.3334,-4.3878,-4.4007,-4.3953,-4.366,-4.3028,-4.2593,-4.2402,-4.2275,-4.2275,-4.2275,-4.2275,-4.2275,-4.2275,-4.2275,-4.2275,-4.2275,-4.2275,-4.2275,-4.2275,-4.2275,-4.2275,-4.2275,-4.2275,-4.2275,-4.2275,-4.2275,-4.2275,-4.2275,-4.2275,-4.2275,-4.2275,-4.2275,-4.2275,-4.2275,-4.2275,-4.2275,-4.3321,-4.3734,-4.3265,-4.3154,-4.3129,-4.3129,-4.3098,-4.3042,-4.3042,-4.2986,-4.2986,-4.2986,-4.3406,-4.3987,-4.4533,-4.5369,-4.6401,-4.7002,-4.7647,-4.8083,-4.8083,-4.8083,-4.8083,-4.8083,-4.8083,-4.8083,-4.8083,-4.8083,-4.8083,-4.8083,-4.8083,-4.8083,-4.8083,-4.8083,-4.8083,-4.8083,-4.8083,-4.8083,-4.8083,-4.8083,-4.8083,-4.8083,-4.8083,-4.7981,-4.7494,-4.695,-4.6766,-4.6269,-4.5661,-4.5608,-4.5502,-4.5208,-4.4453,-4.3462,-4.3154,-4.3098,-4.3098,-4.2986,-4.2986,-4.2986,-4.2986,-4.2986,-4.2986,-4.2986,-4.2986,-4.2986,-4.2986,-4.2986,-4.2986,-4.2986,-4.2986,-4.2986,-4.2986,-4.2986,-4.2874,-4.275,-4.2967,-4.3465,-4.4353,-4.4734,-4.4822,-4.467,-4.4017,-4.3451,-4.2696,-4.2443,-4.2275,-4.2275,-4.2275,-4.2275,-4.2275,-4.2275,-4.2275,-4.2275,-4.2275,-4.2275,-4.2275,-4.2275,-4.2275,-4.2275,-4.2275,-4.2275,-4.2275,-4.2275,-4.2275,-4.2275,-4.2275,-4.2275,-4.2275,-4.2275,-4.2275,-4.2275,-4.2275,-4.2275,-4.2275,-4.3098,-4.3265,-4.3543,-4.3929,-4.4203,-4.3874,-4.3679,-4.3623,-4.3209,-4.3017,-4.2986,-4.3017,-4.3098,-4.3462,-4.4563,-4.5395,-4.59,-4.7002,-4.7801,-4.8032,-4.8083,-4.8083,-4.8083,-4.8083,-4.8083,-4.8083,-4.8083,-4.8083,-4.8083,-4.8083,-4.8083,-4.8083,-4.8083,-4.8083,-4.8083,-4.8083,-4.8083,-4.8083,-4.8083,-4.8083,-4.8083,-4.8083,-4.8083,-4.8032,-4.775,-4.7699,-4.7596,-4.7545,-4.7002,-4.6662,-4.6506,-4.6006,-4.5235,-4.3823,-4.3462,-4.3738,-4.3406,-4.3129,-4.2986,-4.2986,-4.2986,-4.2986,-4.2986,-4.2986,-4.2986,-4.2986,-4.2986,-4.2986,-4.2986,-4.2986,-4.2986,-4.2986,-4.2986,-4.2986,-4.3062,-4.32,-4.3337,-4.4302,-4.5271,-4.5425,-4.5523,-4.5074,-4.4422,-4.374,-4.3075,-4.2633,-4.2402,-4.2275,-4.2275,-4.2275,-4.2275,-4.2275,-4.2275,-4.2275,-4.2275,-4.2275,-4.2275,-4.2275,-4.2275,-4.2275,-4.2275,-4.2275,-4.2275,-4.2275,-4.2275,-4.2275,-4.2275,-4.2275,-4.2275,-4.2275,-4.2275,-4.2275,-4.2275,-4.2275,-4.2275,-4.3321,-4.3793,-4.4422,-4.4531,-4.4367,-4.4258,-4.3984,-4.3543,-4.3432,-4.3113,-4.269,-4.2635,-4.2735,-4.3002,-4.4165,-4.513,-4.5581,-4.687,-4.7596,-4.7953,-4.8083,-4.8083,-4.8083,-4.8083,-4.8083,-4.8083,-4.8083,-4.8083,-4.8083,-4.8083,-4.8083,-4.8083,-4.8083,-4.8083,-4.8083,-4.8083,-4.8083,-4.8083,-4.8083,-4.8083,-4.8083,-4.8083,-4.8083,-4.8083,-4.8083,-4.8083,-4.8083,-4.8083,-4.7852,-4.7312,-4.7002,-4.6662,-4.59,-4.494,-4.4315,-4.4097,-4.3823,-4.3406,-4.3184,-4.3098,-4.3098,-4.3098,-4.3042,-4.3017,-4.2986,-4.2986,-4.2986,-4.2986,-4.2986,-4.2986,-4.2986,-4.2986,-4.2986,-4.2986,-4.3388,-4.3708,-4.4152,-4.4937,-4.5623,-4.5905,-4.5889,-4.5586,-4.4915,-4.4299,-4.3615,-4.2949,-4.2696,-4.2339,-4.2275,-4.2275,-4.2275,-4.2275,-4.2275,-4.2275,-4.2275,-4.2275,-4.2275,-4.2275,-4.2275,-4.2275,-4.2275,-4.2275,-4.2275,-4.2275,-4.2275,-4.2275,-4.2275,-4.2275,-4.2275,-4.2275,-4.2275,-4.2275,-4.2275,-4.2275,-4.2275,-4.3819,-4.483,-4.5395,-4.5126,-4.4338,-4.4505,-4.4232,-4.3572,-4.3734,-4.3369,-4.2633,-4.2587,-4.2679,-4.2789,-4.3344,-4.4332,-4.542,-4.6648,-4.7374,-4.7903,-4.8083,-4.8083,-4.8083,-4.8083,-4.8083,-4.8083,-4.8083,-4.8083,-4.8083,-4.8083,-4.8083,-4.8083,-4.8083,-4.8083,-4.8083,-4.8083,-4.8083,-4.8083,-4.8083,-4.8083,-4.8083,-4.8083,-4.8083,-4.8083,-4.8083,-4.8083,-4.8083,-4.8083,-4.8083,-4.775,-4.726,-4.7053,-4.6558,-4.5847,-4.5315,-4.4886,-4.4615,-4.4152,-4.3713,-4.3462,-4.3351,-4.324,-4.3129,-4.3129,-4.3129,-4.3184,-4.3184,-4.3042,-4.3042,-4.3067,-4.3067,-4.3011,-4.3011,-4.3288,-4.379,-4.4292,-4.492,-4.5522,-4.5924,-4.6326,-4.612,-4.5914,-4.5367,-4.473,-4.4051,-4.3451,-4.2886,-4.2593,-4.2275,-4.2275,-4.2275,-4.2275,-4.2275,-4.2275,-4.2275,-4.2275,-4.2275,-4.2275,-4.2275,-4.2275,-4.2275,-4.2275,-4.2275,-4.2275,-4.2275,-4.2275,-4.2275,-4.2275,-4.2275,-4.2275,-4.2275,-4.2275,-4.2275,-4.2275,-4.2275,-4.4367,-4.5448,-4.5555,-4.5715,-4.5822,-4.5126,-4.483,-4.4964,-4.4203,-4.3768,-4.3595,-4.3454,-4.3008,-4.1789,-4.318,-4.4305,-4.5364,-4.6531,-4.7392,-4.7999,-4.8258,-4.8185,-4.8083,-4.8083,-4.8083,-4.8083,-4.8083,-4.8083,-4.8083,-4.8083,-4.8083,-4.8083,-4.8083,-4.8083,-4.8083,-4.8083,-4.8083,-4.8083,-4.8083,-4.8083,-4.8083,-4.8083,-4.8083,-4.8083,-4.8083,-4.8083,-4.8083,-4.8083,-4.8083,-4.7852,-4.7442,-4.7391,-4.7105,-4.6583,-4.6058,-4.5821,-4.5529,-4.5101,-4.467,-4.4261,-4.4097,-4.4042,-4.3932,-4.3768,-4.3823,-4.3878,-4.3683,-4.3209,-4.3179,-4.3174,-4.3143,-4.3143,-4.3137,-4.384,-4.4443,-4.4895,-4.5447,-4.5824,-4.62,-4.6326,-4.624,-4.5914,-4.5489,-4.4853,-4.4237,-4.3615,-4.3012,-4.2696,-4.2529,-4.2402,-4.2339,-4.2275,-4.2275,-4.2275,-4.2275,-4.2275,-4.2275,-4.2275,-4.2275,-4.2275,-4.2275,-4.2275,-4.2275,-4.2275,-4.2275,-4.2275,-4.2275,-4.2275,-4.2275,-4.2275,-4.2275,-4.2275,-4.2275,-4.2275,-4.2275]},{"header":{"parameterUnit":"m.s-1","parameterCategory":1,"la1":31.0,"la2":29.5877,"lo1":-88.7671,"lo2":-86.6584,"dy":0.0162,"dx":0.0185,"nx":115,"ny":88,"refTime":"2024-02-29T06:00:00:Z","depth":0,"parameterNumber":3,"parameterNumberName":"V-component_of_WINDS"},"data":[0.0,0.0,0.0,0.0,0.0,0.0,0.0,0.0,0.0,0.0,0.0,0.0,0.0,0.0,0.0,0.0,0.0,0.0,0.0,0.0,0.0,0.0,0.0,0.0,0.0,0.0,0.0,0.0,0.0,0.0,0.0,0.0,0.0,0.0,0.0,0.0,0.0,0.0,0.0,0.0,0.0,0.0,0.0,0.0,0.0,0.0,0.0,0.0,0.0,0.0,0.0,0.0,0.0,0.0,0.0,0.0,0.0,0.0,0.0,0.0,0.0,0.0,0.0,0.0,0.0,0.0,0.0,0.0,0.0,0.0,0.0,0.0,0.0,0.0,0.0,0.0,0.0,0.0,0.0,0.0,0.0,0.0,0.0,0.0,0.0,0.0,0.0,0.0,0.0,0.0,0.0,0.0,0.0,0.0,0.0,0.0,0.0,0.0,0.0,0.0,0.0,0.0,0.0,0.0,0.0,0.0,0.0,0.0,0.0,0.0,0.0,0.0,0.0,0.0,0.0,0.0,0.0,0.0,0.0,0.0,0.0,0.0,0.0,0.0,0.0,0.0,0.0,0.0,0.0,0.0,0.0,0.0,0.0,0.0,0.0,0.0,0.0,0.0,0.0,0.0,0.0,0.0,0.0,0.0,0.0,0.0,0.0,0.0,0.0,0.0,0.0,0.0,0.0,0.0,0.0,0.0,0.0,0.0,0.0,0.0,0.0,0.0,0.0,0.0,0.0,0.0,0.0,0.0,0.0,0.0,0.0,0.0,0.0,0.0,0.0,0.0,0.0,0.0,0.0,0.0,0.0,0.0,0.0,0.0,0.0,0.0,0.0,0.0,0.0,0.0,0.0,0.0,0.0,0.0,0.0,0.0,0.0,0.0,0.0,0.0,0.0,0.0,0.0,0.0,0.0,0.0,0.0,0.0,0.0,0.0,0.0,0.0,0.0,0.0,0.0,0.0,0.0,0.0,0.0,0.0,0.0,0.0,0.0,0.0,0.0,0.0,0.0,0.0,0.0,0.0,0.0,0.0,0.0,0.0,0.0,0.0,0.0,0.0,0.0,0.0,0.0,0.0,0.0,0.0,0.0,0.0,0.0,0.0,0.0,0.0,0.0,0.0,0.0,0.0,0.0,0.0,0.0,0.0,0.0,0.0,0.0,0.0,0.0,0.0,0.0,0.0,0.0,0.0,0.0,0.0,0.0,0.0,0.0,0.0,0.0,0.0,0.0,0.0,0.0,0.0,0.0,0.0,0.0,0.0,0.0,0.0,0.0,0.0,0.0,0.0,0.0,0.0,0.0,0.0,0.0,0.0,0.0,0.0,0.0,0.0,0.0,0.0,0.0,0.0,0.0,0.0,0.0,0.0,0.0,0.0,0.0,0.0,0.0,0.0,0.0,0.0,0.0,0.0,0.0,0.0,0.0,0.0,0.0,0.0,0.0,0.0,0.0,0.0,0.0,0.0,0.0,0.0,0.0,0.0,0.0,0.0,0.0,0.0,0.0,0.0,0.0,0.0,0.0,0.0,0.0,0.0,0.0,0.0,0.0,0.0,0.0,0.0,0.0,0.0,0.0,0.0,0.0,0.0,0.0,0.0,0.0,0.0,0.0,0.0,0.0,0.0,0.0,0.0,0.0,0.0,0.0,0.0,0.0,0.0,0.0,0.0,0.0,0.0,0.0,0.0,0.0,0.0,0.0,0.0,0.0,0.0,0.0,0.0,0.0,0.0,0.0,0.0,0.0,0.0,0.0,0.0,0.0,0.0,0.0,0.0,0.0,0.0,0.0,0.0,0.0,0.0,0.0,0.0,0.0,0.0,0.0,0.0,0.0,0.0,0.0,0.0,0.0,0.0,0.0,0.0,0.0,0.0,0.0,0.0,0.0,0.0,0.0,0.0,0.0,0.0,0.0,0.0,0.0,0.0,0.0,0.0,0.0,0.0,0.0,0.0,0.0,0.0,0.0,0.0,0.0,0.0,0.0,0.0,0.0,0.0,0.0,0.0,0.0,0.0,0.0,0.0,0.0,0.0,0.0,0.0,0.0,0.0,0.0,0.0,0.0,0.0,0.0,0.0,0.0,0.0,0.0,0.0,0.0,0.0,0.0,0.0,0.0,0.0,0.0,0.0,0.0,0.0,0.0,0.0,0.0,0.0,0.0,0.0,0.0,0.0,0.0,0.0,0.0,0.0,0.0,0.0,0.0,0.0,0.0,0.0,0.0,0.0,0.0,0.0,0.0,0.0,0.0,0.0,0.0,0.0,0.0,0.0,0.0,0.0,0.0,0.0,0.0,0.0,0.0,0.0,0.0,0.0,0.0,0.0,0.0,0.0,0.0,0.0,0.0,0.0,0.0,0.0,0.0,0.0,0.0,0.0,0.0,0.0,0.0,0.0,0.0,0.0,0.0,0.0,0.0,0.0,0.0,0.0,0.0,0.0,0.0,0.0,0.0,0.0,0.0,0.0,0.0,0.0,0.0,0.0,0.0,0.0,0.0,0.0,0.0,0.0,0.0,0.0,0.0,0.0,0.0,0.0,0.0,0.0,0.0,0.0,0.0,0.0,0.0,0.0,0.0,0.0,0.0,0.0,0.0,0.0,0.0,0.0,0.0,0.0,0.0,0.0,0.0,0.0,0.0,0.0,0.0,0.0,0.0,0.0,0.0,0.0,0.0,0.0,0.0,0.0,0.0,0.0,0.0,0.0,0.0,0.0,0.0,0.0,0.0,0.0,0.0,0.0,0.0,0.0,0.0,0.0,0.0,0.0,0.0,0.0,0.0,0.0,0.0,0.0,0.0,0.0,0.0,0.0,0.0,0.0,0.0,0.0,0.0,0.0,0.0,0.0,0.0,0.0,0.0,0.0,0.0,0.0,0.0,0.0,0.0,0.0,0.0,0.0,0.0,0.0,0.0,0.0,0.0,0.0,0.0,0.0,0.0,0.0,0.0,0.0,0.0,0.0,0.0,0.0,0.0,0.0,0.0,0.0,0.0,0.0,0.0,0.0,0.0,0.0,0.0,0.0,0.0,0.0,0.0,0.0,0.0,0.0,0.0,0.0,0.0,0.0,0.0,0.0,0.0,0.0,0.0,0.0,0.0,0.0,0.0,0.0,0.0,0.0,0.0,0.0,0.0,0.0,0.0,0.0,0.0,0.0,0.0,0.0,0.0,0.0,0.0,0.0,0.0,0.0,0.0,0.0,0.0,0.0,0.0,0.0,0.0,0.0,0.0,0.0,0.0,0.0,0.0,0.0,0.0,0.0,0.0,0.0,0.0,0.0,0.0,0.0,0.0,0.0,0.0,0.0,0.0,0.0,0.0,0.0,0.0,0.0,0.0,0.0,0.0,0.0,0.0,0.0,0.0,0.0,0.0,0.0,0.0,0.0,0.0,0.0,0.0,0.0,0.0,0.0,0.0,0.0,0.0,0.0,0.0,0.0,0.0,0.0,0.0,0.0,0.0,0.0,0.0,0.0,0.0,0.0,0.0,0.0,0.0,0.0,0.0,0.0,0.0,0.0,0.0,0.0,0.0,0.0,0.0,0.0,0.0,0.0,0.0,0.0,0.0,0.0,0.0,0.0,0.0,0.0,0.0,0.0,0.0,0.0,0.0,0.0,0.0,0.0,0.0,0.0,0.0,0.0,0.0,0.0,0.0,0.0,0.0,0.0,0.0,0.0,0.0,0.0,0.0,0.0,0.0,0.0,0.0,0.0,0.0,0.0,0.0,0.0,0.0,0.0,0.0,0.0,0.0,0.0,0.0,0.0,0.0,0.0,0.0,0.0,0.0,0.0,0.0,0.0,0.0,0.0,0.0,0.0,0.0,0.0,0.0,0.0,0.0,0.0,0.0,0.0,0.0,0.0,0.0,0.0,0.0,0.0,0.0,0.0,0.0,0.0,0.0,0.0,0.0,0.0,0.0,0.0,0.0,0.0,0.0,0.0,0.0,0.0,0.0,0.0,0.0,0.0,0.0,0.0,0.0,0.0,0.0,0.0,0.0,0.0,0.0,0.0,0.0,0.0,0.0,0.0,0.0,0.0,0.0,0.0,0.0,0.0,0.0,0.0,0.0,0.0,0.0,0.0,0.0,0.0,0.0,0.0,0.0,0.0,0.0,0.0,0.0,0.0,0.0,0.0,0.0,0.0,0.0,0.0,0.0,0.0,0.0,0.0,0.0,0.0,0.0,0.0,0.0,0.0,0.0,0.0,0.0,0.0,0.0,0.0,0.0,0.0,0.0,0.0,0.0,0.0,0.0,0.0,0.0,0.0,0.0,0.0,3.0918,0.0,0.0,0.0,0.0,0.0,0.0,0.0,0.0,0.0,0.0,0.0,0.0,0.0,0.0,0.0,0.0,0.0,0.0,0.0,0.0,0.0,0.0,0.0,0.0,0.0,0.0,0.0,0.0,0.0,0.0,0.0,0.0,0.0,0.0,0.0,0.0,0.0,0.0,0.0,0.0,0.0,0.0,0.0,0.0,0.0,0.0,0.0,0.0,0.0,0.0,0.0,0.0,0.0,0.0,0.0,0.0,0.0,0.0,0.0,0.0,0.0,0.0,0.0,0.0,0.0,0.0,0.0,0.0,0.0,0.0,0.0,0.0,0.0,0.0,0.0,0.0,0.0,0.0,0.0,0.0,0.0,0.0,0.0,0.0,0.0,0.0,0.0,0.0,0.0,0.0,0.0,0.0,0.0,0.0,0.0,0.0,0.0,0.0,0.0,0.0,0.0,0.0,0.0,0.0,0.0,0.0,0.0,0.0,0.0,0.0,3.0312,3.048,3.0647,3.0851,3.1092,0.0,0.0,0.0,0.0,0.0,0.0,0.0,0.0,0.0,0.0,0.0,0.0,0.0,0.0,0.0,0.0,0.0,0.0,0.0,0.0,0.0,0.0,0.0,0.0,0.0,0.0,0.0,0.0,0.0,0.0,0.0,0.0,0.0,0.0,0.0,0.0,0.0,0.0,0.0,0.0,0.0,0.0,0.0,0.0,0.0,0.0,0.0,0.0,0.0,0.0,0.0,0.0,0.0,0.0,0.0,0.0,0.0,0.0,0.0,0.0,0.0,0.0,0.0,0.0,0.0,0.0,0.0,0.0,0.0,0.0,0.0,0.0,0.0,0.0,0.0,0.0,0.0,0.0,0.0,0.0,0.0,0.0,0.0,0.0,0.0,0.0,0.0,0.0,0.0,0.0,0.0,0.0,0.0,0.0,0.0,0.0,0.0,0.0,0.0,0.0,0.0,0.0,0.0,0.0,0.0,0.0,0.0,0.0,0.0,0.0,0.0,0.0,3.0777,3.0972,3.1072,0.0,0.0,0.0,0.0,0.0,0.0,0.0,0.0,0.0,0.0,0.0,0.0,0.0,0.0,0.0,0.0,0.0,0.0,0.0,0.0,0.0,0.0,0.0,0.0,0.0,0.0,0.0,0.0,0.0,0.0,0.0,0.0,0.0,0.0,0.0,0.0,0.0,0.0,0.0,0.0,0.0,0.0,0.0,0.0,0.0,0.0,0.0,0.0,0.0,0.0,0.0,0.0,0.0,0.0,0.0,0.0,0.0,0.0,0.0,0.0,0.0,0.0,0.0,0.0,0.0,0.0,0.0,0.0,0.0,0.0,0.0,0.0,0.0,0.0,0.0,0.0,0.0,0.0,0.0,0.0,0.0,0.0,0.0,0.0,0.0,0.0,0.0,0.0,0.0,0.0,0.0,0.0,0.0,0.0,0.0,0.0,0.0,0.0,0.0,0.0,0.0,0.0,0.0,0.0,0.0,0.0,0.0,0.0,0.0,0.0,3.0688,3.0708,3.0892,0.0,3.0783,0.0,0.0,0.0,0.0,0.0,0.0,0.0,0.0,0.0,0.0,0.0,0.0,0.0,0.0,0.0,0.0,0.0,0.0,0.0,0.0,0.0,0.0,0.0,0.0,0.0,0.0,0.0,0.0,0.0,0.0,0.0,0.0,0.0,0.0,0.0,0.0,0.0,0.0,0.0,0.0,0.0,0.0,0.0,0.0,0.0,0.0,0.0,0.0,0.0,0.0,0.0,0.0,0.0,0.0,0.0,0.0,0.0,0.0,0.0,0.0,0.0,0.0,0.0,0.0,0.0,0.0,0.0,0.0,0.0,0.0,0.0,0.0,0.0,0.0,0.0,0.0,0.0,0.0,0.0,0.0,0.0,0.0,0.0,0.0,0.0,0.0,0.0,0.0,0.0,0.0,0.0,0.0,0.0,0.0,0.0,0.0,0.0,0.0,0.0,0.0,0.0,0.0,0.0,0.0,0.0,0.0,0.0,0.0,0.0,0.0,3.1404,3.1549,3.1631,3.161,0.0,0.0,0.0,0.0,0.0,0.0,0.0,0.0,0.0,0.0,0.0,0.0,0.0,0.0,0.0,0.0,0.0,0.0,0.0,0.0,0.0,0.0,0.0,0.0,0.0,0.0,0.0,0.0,0.0,0.0,0.0,0.0,0.0,0.0,0.0,0.0,0.0,0.0,0.0,0.0,0.0,0.0,0.0,0.0,0.0,0.0,0.0,0.0,0.0,0.0,0.0,0.0,0.0,0.0,0.0,0.0,0.0,0.0,0.0,0.0,0.0,0.0,0.0,0.0,0.0,0.0,0.0,0.0,0.0,0.0,0.0,0.0,0.0,0.0,0.0,0.0,0.0,0.0,0.0,0.0,0.0,0.0,0.0,0.0,0.0,0.0,0.0,0.0,0.0,0.0,0.0,0.0,0.0,0.0,0.0,0.0,0.0,0.0,0.0,0.0,0.0,0.0,0.0,0.0,0.0,0.0,0.0,0.0,0.0,0.0,3.1762,3.2256,3.2454,3.2231,3.2088,3.2018,0.0,0.0,0.0,0.0,0.0,0.0,0.0,0.0,0.0,0.0,0.0,0.0,0.0,0.0,0.0,0.0,0.0,0.0,0.0,0.0,0.0,0.0,0.0,0.0,0.0,0.0,0.0,0.0,0.0,0.0,0.0,0.0,0.0,0.0,0.0,0.0,0.0,0.0,0.0,0.0,0.0,0.0,0.0,0.0,0.0,0.0,0.0,0.0,0.0,0.0,0.0,0.0,0.0,0.0,0.0,0.0,0.0,0.0,0.0,0.0,0.0,0.0,0.0,0.0,0.0,0.0,0.0,0.0,0.0,0.0,0.0,0.0,0.0,0.0,0.0,0.0,0.0,0.0,0.0,0.0,0.0,0.0,0.0,0.0,0.0,0.0,0.0,0.0,0.0,0.0,0.0,0.0,0.0,0.0,0.0,0.0,0.0,0.0,0.0,0.0,0.0,0.0,0.0,0.0,0.0,0.0,0.0,0.0,3.1774,3.2615,3.3134,3.3334,3.2575,3.2109,0.0,0.0,0.0,0.0,0.0,0.0,0.0,0.0,0.0,0.0,0.0,0.0,0.0,0.0,0.0,0.0,0.0,0.0,0.0,0.0,0.0,0.0,0.0,0.0,0.0,0.0,0.0,0.0,0.0,0.0,0.0,0.0,0.0,0.0,0.0,0.0,0.0,0.0,0.0,0.0,0.0,0.0,0.0,0.0,0.0,0.0,0.0,0.0,0.0,0.0,0.0,0.0,0.0,0.0,0.0,0.0,0.0,0.0,0.0,0.0,0.0,0.0,0.0,0.0,0.0,0.0,0.0,0.0,0.0,0.0,0.0,0.0,0.0,0.0,0.0,0.0,0.0,0.0,0.0,0.0,0.0,0.0,0.0,0.0,0.0,0.0,0.0,0.0,0.0,0.0,0.0,0.0,0.0,0.0,0.0,0.0,0.0,0.0,0.0,0.0,0.0,0.0,0.0,0.0,0.0,0.0,0.0,0.0,0.0,3.2648,3.3513,3.425,3.4754,3.4023,3.3394,0.0,0.0,0.0,0.0,0.0,0.0,0.0,0.0,0.0,0.0,0.0,0.0,0.0,0.0,0.0,0.0,0.0,0.0,0.0,0.0,0.0,0.0,0.0,0.0,0.0,0.0,0.0,0.0,0.0,0.0,0.0,0.0,0.0,0.0,0.0,0.0,0.0,0.0,0.0,0.0,0.0,0.0,0.0,0.0,0.0,0.0,0.0,0.0,0.0,0.0,0.0,0.0,0.0,0.0,0.0,0.0,0.0,0.0,0.0,0.0,0.0,0.0,0.0,0.0,0.0,0.0,0.0,0.0,0.0,0.0,0.0,0.0,0.0,0.0,0.0,0.0,0.0,0.0,0.0,0.0,0.0,0.0,0.0,0.0,0.0,0.0,0.0,0.0,0.0,0.0,0.0,0.0,0.0,0.0,0.0,0.0,0.0,0.0,0.0,0.0,0.0,0.0,0.0,0.0,0.0,0.0,0.0,0.0,0.0,3.3818,0.0,3.5115,3.5532,3.4878,3.4134,0.0,0.0,0.0,0.0,0.0,0.0,0.0,0.0,0.0,0.0,0.0,0.0,0.0,0.0,0.0,0.0,0.0,0.0,0.0,0.0,0.0,0.0,0.0,0.0,0.0,0.0,0.0,0.0,0.0,0.0,0.0,0.0,0.0,0.0,0.0,0.0,0.0,0.0,0.0,0.0,0.0,0.0,0.0,0.0,0.0,0.0,0.0,0.0,0.0,0.0,0.0,0.0,0.0,0.0,0.0,0.0,0.0,0.0,0.0,0.0,0.0,0.0,0.0,0.0,0.0,0.0,0.0,0.0,0.0,0.0,0.0,0.0,0.0,0.0,0.0,0.0,0.0,0.0,0.0,0.0,0.0,0.0,0.0,0.0,0.0,0.0,0.0,0.0,0.0,0.0,0.0,0.0,0.0,0.0,0.0,0.0,0.0,0.0,0.0,0.0,0.0,0.0,0.0,0.0,0.0,0.0,0.0,0.0,3.4326,3.5224,3.5453,3.5566,3.56,3.4912,3.4201,0.0,0.0,0.0,0.0,0.0,0.0,0.0,0.0,0.0,0.0,0.0,0.0,0.0,0.0,0.0,0.0,0.0,0.0,0.0,0.0,0.0,0.0,0.0,0.0,0.0,0.0,0.0,0.0,0.0,0.0,0.0,0.0,0.0,0.0,0.0,0.0,0.0,0.0,0.0,0.0,0.0,0.0,0.0,0.0,0.0,0.0,0.0,0.0,0.0,0.0,0.0,0.0,0.0,0.0,0.0,0.0,0.0,0.0,0.0,0.0,0.0,0.0,0.0,0.0,0.0,0.0,0.0,0.0,0.0,0.0,0.0,0.0,0.0,0.0,0.0,0.0,0.0,0.0,0.0,0.0,0.0,0.0,0.0,0.0,0.0,0.0,0.0,0.0,0.0,0.0,0.0,0.0,0.0,0.0,0.0,0.0,0.0,0.0,0.0,0.0,0.0,0.0,0.0,0.0,0.0,0.0,0.0,0.0,0.0,3.5325,3.5487,3.56,3.56,3.5363,3.4912,0.0,0.0,0.0,0.0,0.0,0.0,0.0,0.0,0.0,0.0,0.0,0.0,0.0,0.0,0.0,0.0,0.0,0.0,0.0,0.0,0.0,0.0,0.0,0.0,0.0,0.0,0.0,0.0,0.0,0.0,0.0,0.0,0.0,0.0,0.0,0.0,0.0,0.0,0.0,0.0,0.0,0.0,0.0,0.0,0.0,0.0,0.0,0.0,0.0,0.0,0.0,0.0,0.0,0.0,0.0,0.0,0.0,0.0,0.0,0.0,0.0,0.0,0.0,0.0,0.0,0.0,0.0,0.0,0.0,0.0,0.0,0.0,0.0,0.0,0.0,0.0,0.0,0.0,0.0,0.0,0.0,0.0,0.0,0.0,0.0,0.0,0.0,0.0,0.0,0.0,0.0,0.0,0.0,0.0,0.0,0.0,0.0,0.0,0.0,0.0,0.0,0.0,0.0,0.0,0.0,0.0,0.0,0.0,0.0,3.653,3.6498,3.6445,3.6445,3.6197,3.569,3.4945,0.0,0.0,0.0,0.0,0.0,0.0,0.0,0.0,0.0,0.0,0.0,0.0,0.0,0.0,0.0,0.0,0.0,0.0,0.0,0.0,0.0,0.0,0.0,0.0,0.0,0.0,0.0,0.0,0.0,0.0,0.0,0.0,0.0,0.0,0.0,0.0,0.0,0.0,0.0,0.0,0.0,0.0,0.0,0.0,0.0,0.0,0.0,0.0,0.0,0.0,0.0,0.0,0.0,0.0,0.0,0.0,0.0,0.0,0.0,0.0,0.0,0.0,0.0,0.0,0.0,0.0,0.0,0.0,0.0,0.0,0.0,0.0,0.0,0.0,0.0,0.0,0.0,0.0,0.0,0.0,0.0,0.0,0.0,0.0,0.0,0.0,0.0,0.0,0.0,0.0,0.0,0.0,0.0,0.0,0.0,0.0,0.0,0.0,0.0,0.0,0.0,0.0,0.0,0.0,0.0,0.0,0.0,0.0,3.8673,3.8317,3.8091,3.7922,3.728,3.6502,0.0,0.0,0.0,0.0,0.0,0.0,0.0,0.0,0.0,0.0,0.0,0.0,0.0,0.0,0.0,0.0,0.0,0.0,0.0,0.0,0.0,0.0,0.0,0.0,0.0,0.0,0.0,0.0,0.0,0.0,0.0,0.0,0.0,0.0,0.0,0.0,0.0,0.0,0.0,0.0,0.0,0.0,0.0,0.0,0.0,0.0,0.0,0.0,0.0,0.0,0.0,0.0,0.0,0.0,0.0,0.0,0.0,0.0,0.0,0.0,0.0,0.0,0.0,0.0,0.0,0.0,0.0,0.0,0.0,0.0,0.0,0.0,0.0,0.0,0.0,0.0,0.0,0.0,0.0,0.0,0.0,0.0,0.0,0.0,0.0,0.0,0.0,0.0,0.0,0.0,0.0,0.0,0.0,0.0,0.0,0.0,0.0,0.0,0.0,0.0,0.0,0.0,0.0,0.0,0.0,0.0,0.0,0.0,0.0,3.9402,4.0534,4.0358,3.8768,3.8497,3.7821,0.0,0.0,0.0,0.0,0.0,0.0,0.0,0.0,0.0,0.0,0.0,0.0,0.0,0.0,0.0,0.0,0.0,0.0,0.0,0.0,0.0,0.0,0.0,0.0,0.0,0.0,0.0,0.0,0.0,0.0,0.0,0.0,0.0,0.0,0.0,0.0,0.0,0.0,0.0,0.0,0.0,0.0,0.0,0.0,0.0,0.0,0.0,0.0,0.0,0.0,0.0,0.0,0.0,0.0,0.0,0.0,0.0,0.0,0.0,0.0,0.0,0.0,0.0,0.0,0.0,0.0,0.0,0.0,0.0,0.0,0.0,0.0,0.0,0.0,0.0,0.0,0.0,0.0,0.0,0.0,0.0,0.0,0.0,0.0,0.0,0.0,0.0,0.0,0.0,0.0,0.0,0.0,0.0,0.0,0.0,0.0,0.0,0.0,0.0,0.0,0.0,0.0,0.0,0.0,0.0,0.0,0.0,0.0,3.9819,4.0641,4.2321,4.2516,4.0899,3.9952,3.8937,0.0,0.0,0.0,0.0,0.0,0.0,0.0,0.0,0.0,0.0,0.0,0.0,0.0,0.0,0.0,0.0,0.0,0.0,0.0,0.0,0.0,0.0,0.0,0.0,0.0,0.0,0.0,0.0,0.0,0.0,0.0,0.0,0.0,0.0,0.0,0.0,0.0,0.0,0.0,0.0,0.0,0.0,0.0,0.0,0.0,0.0,0.0,0.0,0.0,0.0,0.0,0.0,0.0,0.0,0.0,0.0,0.0,0.0,0.0,0.0,0.0,0.0,0.0,0.0,0.0,0.0,0.0,0.0,0.0,0.0,0.0,0.0,0.0,0.0,0.0,0.0,0.0,0.0,0.0,0.0,0.0,0.0,0.0,0.0,0.0,0.0,0.0,0.0,0.0,0.0,0.0,0.0,0.0,0.0,0.0,0.0,0.0,0.0,0.0,0.0,0.0,0.0,0.0,0.0,0.0,0.0,0.0,0.0,4.0961,4.196,4.3614,4.422,4.3504,4.1448,3.9918,0.0,0.0,0.0,0.0,0.0,0.0,0.0,0.0,0.0,0.0,0.0,0.0,0.0,0.0,0.0,0.0,0.0,0.0,0.0,0.0,0.0,0.0,0.0,0.0,0.0,0.0,0.0,0.0,0.0,0.0,0.0,0.0,0.0,0.0,0.0,0.0,0.0,0.0,0.0,0.0,0.0,0.0,0.0,0.0,0.0,0.0,0.0,0.0,0.0,0.0,0.0,0.0,0.0,0.0,0.0,0.0,0.0,0.0,0.0,0.0,0.0,0.0,0.0,0.0,0.0,0.0,0.0,0.0,0.0,0.0,0.0,0.0,0.0,0.0,0.0,0.0,0.0,0.0,0.0,0.0,0.0,0.0,0.0,0.0,0.0,0.0,0.0,0.0,0.0,0.0,0.0,0.0,0.0,0.0,0.0,0.0,0.0,0.0,0.0,0.0,0.0,0.0,0.0,0.0,0.0,0.0,0.0,0.0,4.0809,4.2356,4.3394,4.4083,4.4316,4.2692,4.0933,0.0,0.0,0.0,0.0,0.0,0.0,0.0,0.0,0.0,0.0,0.0,0.0,0.0,0.0,0.0,0.0,0.0,0.0,0.0,0.0,0.0,0.0,0.0,0.0,0.0,0.0,0.0,0.0,0.0,0.0,0.0,0.0,0.0,0.0,0.0,0.0,0.0,0.0,0.0,0.0,0.0,0.0,0.0,0.0,0.0,0.0,0.0,0.0,3.4101,0.0,0.0,0.0,0.0,0.0,0.0,0.0,0.0,0.0,0.0,0.0,0.0,0.0,0.0,0.0,0.0,0.0,0.0,0.0,0.0,0.0,0.0,0.0,0.0,0.0,0.0,0.0,0.0,0.0,0.0,0.0,0.0,0.0,0.0,0.0,0.0,0.0,0.0,0.0,0.0,0.0,0.0,0.0,0.0,0.0,0.0,0.0,0.0,0.0,0.0,0.0,0.0,0.0,0.0,0.0,0.0,0.0,0.0,0.0,4.1005,4.2473,4.3377,4.4035,4.4553,4.3436,4.1779,0.0,0.0,0.0,0.0,0.0,0.0,0.0,0.0,0.0,0.0,0.0,0.0,0.0,0.0,0.0,0.0,0.0,0.0,0.0,0.0,0.0,0.0,0.0,0.0,0.0,0.0,0.0,0.0,0.0,0.0,0.0,0.0,0.0,0.0,0.0,0.0,0.0,0.0,0.0,0.0,0.0,0.0,0.0,0.0,0.0,0.0,0.0,0.0,0.0,0.0,0.0,0.0,0.0,0.0,0.0,0.0,0.0,0.0,0.0,0.0,0.0,0.0,0.0,0.0,0.0,0.0,0.0,0.0,0.0,0.0,0.0,0.0,0.0,0.0,0.0,0.0,0.0,0.0,0.0,0.0,0.0,0.0,0.0,0.0,0.0,0.0,0.0,0.0,0.0,0.0,0.0,0.0,0.0,0.0,0.0,0.0,0.0,0.0,0.0,0.0,0.0,0.0,0.0,0.0,0.0,0.0,0.0,3.9829,4.1197,4.2462,4.3264,4.3948,4.444,4.368,4.2252,4.018,0.0,0.0,0.0,0.0,0.0,0.0,0.0,0.0,0.0,0.0,0.0,0.0,0.0,0.0,0.0,0.0,0.0,0.0,0.0,0.0,0.0,0.0,0.0,0.0,0.0,0.0,0.0,0.0,0.0,0.0,0.0,0.0,0.0,0.0,0.0,0.0,0.0,0.0,3.2719,3.5254,0.0,0.0,0.0,0.0,0.0,0.0,0.0,0.0,3.6797,0.0,0.0,0.0,0.0,0.0,0.0,0.0,0.0,0.0,0.0,0.0,0.0,0.0,0.0,0.0,0.0,0.0,0.0,0.0,0.0,0.0,0.0,0.0,0.0,0.0,0.0,0.0,0.0,0.0,0.0,0.0,0.0,0.0,0.0,0.0,0.0,0.0,0.0,0.0,0.0,0.0,0.0,0.0,0.0,0.0,0.0,0.0,0.0,0.0,0.0,0.0,0.0,0.0,0.0,0.0,0.0,3.8777,3.9551,4.073,4.236,4.2956,4.3446,4.3885,4.3008,4.1711,4.018,0.0,0.0,0.0,0.0,0.0,0.0,0.0,0.0,0.0,0.0,0.0,0.0,0.0,0.0,0.0,0.0,0.0,0.0,0.0,0.0,0.0,0.0,0.0,0.0,0.0,0.0,0.0,0.0,0.0,0.0,0.0,0.0,0.0,0.0,0.0,0.0,0.0,0.0,0.0,3.7161,3.8465,0.0,0.0,0.0,0.0,0.0,0.0,0.0,0.0,3.777,0.0,0.0,0.0,0.0,0.0,0.0,0.0,0.0,0.0,0.0,0.0,0.0,0.0,0.0,0.0,0.0,0.0,0.0,0.0,0.0,0.0,0.0,0.0,0.0,0.0,0.0,0.0,0.0,0.0,0.0,0.0,0.0,0.0,0.0,0.0,0.0,0.0,0.0,0.0,0.0,0.0,0.0,0.0,0.0,0.0,0.0,0.0,0.0,0.0,0.0,0.0,0.0,0.0,0.0,0.0,3.9391,4.0036,4.0991,4.2333,4.2867,4.3325,4.3768,4.3188,4.2185,0.0,0.0,0.0,0.0,0.0,0.0,0.0,0.0,0.0,0.0,0.0,0.0,0.0,0.0,0.0,0.0,0.0,0.0,0.0,0.0,0.0,0.0,0.0,0.0,0.0,0.0,0.0,0.0,0.0,0.0,0.0,0.0,0.0,0.0,0.0,0.0,0.0,0.0,0.0,0.0,3.9004,4.0207,4.063,0.0,0.0,0.0,0.0,0.0,0.0,3.9771,3.9279,0.0,0.0,0.0,0.0,0.0,0.0,0.0,0.0,0.0,0.0,0.0,0.0,0.0,0.0,0.0,0.0,0.0,0.0,0.0,0.0,0.0,0.0,0.0,0.0,0.0,0.0,0.0,0.0,0.0,0.0,0.0,0.0,0.0,0.0,0.0,0.0,0.0,0.0,0.0,0.0,0.0,0.0,0.0,0.0,0.0,0.0,0.0,0.0,0.0,0.0,0.0,0.0,0.0,0.0,0.0,4.0159,4.0674,4.1502,4.2558,4.3031,4.3457,4.3802,4.3396,4.2436,0.0,0.0,0.0,0.0,0.0,0.0,0.0,0.0,0.0,0.0,0.0,0.0,0.0,0.0,0.0,0.0,0.0,0.0,0.0,0.0,0.0,0.0,0.0,0.0,0.0,0.0,0.0,0.0,0.0,0.0,0.0,0.0,0.0,0.0,0.0,0.0,0.0,0.0,0.0,0.0,0.0,4.1986,4.1796,4.2314,0.0,0.0,0.0,0.0,4.1533,4.1547,0.0,0.0,0.0,0.0,0.0,0.0,0.0,0.0,0.0,0.0,0.0,0.0,0.0,0.0,0.0,0.0,0.0,0.0,0.0,0.0,0.0,0.0,0.0,0.0,0.0,0.0,0.0,0.0,0.0,0.0,0.0,0.0,0.0,0.0,0.0,0.0,0.0,0.0,0.0,0.0,0.0,0.0,0.0,0.0,0.0,0.0,0.0,0.0,0.0,0.0,0.0,0.0,0.0,0.0,0.0,0.0,4.0767,4.1277,4.2073,4.3234,4.3747,4.3951,4.3802,4.278,4.1613,0.0,0.0,0.0,0.0,0.0,0.0,0.0,0.0,0.0,0.0,0.0,0.0,0.0,0.0,0.0,0.0,0.0,0.0,0.0,0.0,0.0,0.0,0.0,0.0,0.0,0.0,0.0,0.0,0.0,0.0,0.0,0.0,0.0,0.0,0.0,0.0,0.0,0.0,0.0,0.0,0.0,4.3408,4.492,4.511,4.4772,0.0,0.0,4.4192,4.4968,4.4994,0.0,0.0,0.0,0.0,0.0,0.0,0.0,0.0,0.0,0.0,0.0,0.0,0.0,0.0,0.0,0.0,0.0,0.0,0.0,0.0,0.0,0.0,0.0,0.0,0.0,0.0,0.0,0.0,0.0,0.0,0.0,0.0,0.0,0.0,0.0,0.0,0.0,0.0,0.0,0.0,0.0,0.0,0.0,0.0,0.0,0.0,0.0,0.0,0.0,0.0,0.0,0.0,0.0,0.0,0.0,3.8432,4.0384,4.1626,4.2291,4.2393,4.3235,4.3489,4.3023,4.2142,4.1076,0.0,0.0,0.0,0.0,0.0,0.0,0.0,0.0,0.0,0.0,0.0,0.0,0.0,0.0,0.0,0.0,0.0,0.0,0.0,0.0,0.0,0.0,0.0,0.0,0.0,0.0,0.0,0.0,0.0,0.0,0.0,0.0,0.0,0.0,0.0,0.0,0.0,0.0,0.0,0.0,0.0,0.0,4.4965,4.5792,0.0,0.0,0.0,4.5957,4.6394,0.0,0.0,0.0,0.0,0.0,0.0,0.0,0.0,0.0,0.0,0.0,0.0,0.0,0.0,0.0,0.0,0.0,0.0,0.0,0.0,0.0,0.0,0.0,0.0,0.0,0.0,0.0,0.0,0.0,0.0,0.0,0.0,0.0,0.0,0.0,0.0,0.0,0.0,0.0,0.0,0.0,0.0,0.0,0.0,0.0,0.0,0.0,0.0,0.0,0.0,0.0,0.0,0.0,0.0,0.0,0.0,0.0,4.0511,4.2133,4.2762,4.2325,4.3166,4.3364,4.2743,4.188,0.0,0.0,0.0,0.0,0.0,0.0,0.0,0.0,0.0,0.0,0.0,0.0,0.0,0.0,0.0,0.0,0.0,0.0,0.0,0.0,0.0,0.0,0.0,0.0,0.0,0.0,0.0,3.1427,0.0,0.0,0.0,0.0,0.0,0.0,0.0,0.0,0.0,0.0,0.0,0.0,0.0,0.0,4.5691,4.5494,4.6845,4.739,0.0,0.0,4.7747,4.7377,4.7535,4.7417,0.0,0.0,0.0,0.0,0.0,0.0,0.0,0.0,0.0,0.0,0.0,0.0,0.0,0.0,0.0,0.0,0.0,0.0,0.0,0.0,0.0,0.0,0.0,0.0,0.0,0.0,0.0,0.0,0.0,0.0,0.0,0.0,0.0,0.0,0.0,0.0,0.0,0.0,0.0,0.0,0.0,0.0,0.0,0.0,0.0,0.0,0.0,0.0,0.0,0.0,0.0,0.0,0.0,0.0,0.0,4.1917,4.3051,4.3786,4.4197,4.4294,4.4139,4.3684,4.2199,4.1211,0.0,0.0,0.0,0.0,0.0,0.0,0.0,0.0,0.0,0.0,0.0,0.0,0.0,0.0,0.0,0.0,0.0,0.0,0.0,0.0,0.0,0.0,0.0,0.0,0.0,0.0,0.0,0.0,0.0,0.0,0.0,0.0,0.0,0.0,0.0,0.0,0.0,0.0,0.0,0.0,0.0,4.6956,4.7831,4.9281,4.9959,0.0,0.0,4.9745,4.8341,4.9317,4.9185,4.607,0.0,0.0,0.0,0.0,0.0,0.0,0.0,0.0,0.0,0.0,0.0,0.0,0.0,0.0,0.0,0.0,0.0,0.0,0.0,0.0,0.0,0.0,0.0,0.0,0.0,0.0,0.0,0.0,0.0,0.0,0.0,0.0,0.0,0.0,0.0,0.0,0.0,0.0,0.0,0.0,0.0,0.0,0.0,0.0,0.0,0.0,0.0,0.0,0.0,0.0,0.0,0.0,0.0,3.9743,4.1406,4.2925,4.3553,4.3379,4.3761,4.3451,4.246,4.1195,4.0449,0.0,0.0,0.0,0.0,0.0,0.0,0.0,0.0,0.0,0.0,0.0,0.0,0.0,0.0,0.0,0.0,0.0,0.0,0.0,0.0,0.0,0.0,0.0,0.0,0.0,0.0,0.0,0.0,3.4805,3.5528,3.6057,0.0,0.0,0.0,0.0,0.0,0.0,0.0,0.0,0.0,0.0,4.7832,4.8758,4.9817,0.0,0.0,4.9971,5.0256,4.9613,4.9588,4.917,4.7657,4.615,0.0,0.0,0.0,0.0,0.0,0.0,0.0,0.0,0.0,0.0,0.0,0.0,0.0,0.0,0.0,0.0,0.0,0.0,0.0,0.0,0.0,0.0,0.0,0.0,0.0,0.0,0.0,0.0,0.0,0.0,0.0,0.0,0.0,0.0,0.0,0.0,0.0,0.0,0.0,0.0,0.0,0.0,0.0,0.0,0.0,0.0,0.0,0.0,0.0,0.0,0.0,0.0,4.0031,4.163,4.2988,4.345,4.3011,4.345,4.3178,4.2077,4.1081,4.054,0.0,0.0,0.0,0.0,0.0,0.0,0.0,0.0,0.0,0.0,0.0,0.0,0.0,0.0,0.0,0.0,0.0,0.0,0.0,0.0,0.0,0.0,0.0,0.0,0.0,0.0,0.0,0.0,3.5649,3.6373,3.6954,0.0,0.0,0.0,0.0,0.0,0.0,0.0,0.0,0.0,0.0,4.8663,4.9543,5.0352,5.0637,5.0102,5.0446,5.0681,5.0357,4.982,4.9149,4.8301,0.0,0.0,0.0,0.0,0.0,0.0,0.0,0.0,0.0,0.0,0.0,0.0,0.0,0.0,0.0,0.0,0.0,0.0,0.0,0.0,0.0,0.0,0.0,0.0,0.0,0.0,0.0,0.0,0.0,0.0,0.0,0.0,0.0,0.0,0.0,0.0,0.0,0.0,0.0,0.0,0.0,0.0,0.0,0.0,0.0,0.0,0.0,0.0,0.0,0.0,0.0,0.0,0.0,4.099,4.3003,4.3463,4.3671,4.3671,4.3671,4.3481,4.3025,4.2299,4.196,4.1957,0.0,0.0,0.0,0.0,0.0,0.0,0.0,0.0,0.0,0.0,0.0,0.0,0.0,0.0,0.0,0.0,0.0,0.0,0.0,0.0,0.0,0.0,0.0,0.0,0.0,0.0,3.5649,3.6478,3.6989,0.0,0.0,0.0,0.0,0.0,0.0,0.0,0.0,0.0,0.0,4.8152,4.9481,5.0363,5.1137,5.1637,5.1601,5.1536,5.1221,5.0439,5.0069,4.9283,0.0,0.0,0.0,0.0,0.0,0.0,0.0,0.0,0.0,0.0,0.0,0.0,0.0,0.0,0.0,0.0,0.0,0.0,0.0,0.0,0.0,0.0,0.0,0.0,0.0,0.0,0.0,3.5547,3.5799,0.0,0.0,0.0,0.0,0.0,0.0,0.0,0.0,0.0,0.0,0.0,3.9846,4.0417,0.0,0.0,0.0,0.0,0.0,0.0,0.0,0.0,0.0,0.0,0.0,0.0,4.1022,4.3003,4.3529,4.3927,4.4303,4.3924,4.34,4.2845,4.1693,4.0682,3.988,0.0,0.0,0.0,0.0,0.0,0.0,0.0,0.0,0.0,0.0,0.0,0.0,0.0,0.0,0.0,0.0,0.0,0.0,0.0,0.0,0.0,0.0,0.0,0.0,0.0,3.5427,0.0,0.0,0.0,0.0,0.0,0.0,0.0,0.0,0.0,0.0,0.0,4.5574,4.8057,4.9363,5.0363,5.1173,5.153,5.1708,0.0,0.0,0.0,0.0,0.0,0.0,0.0,0.0,0.0,0.0,0.0,0.0,0.0,0.0,4.5286,4.2814,4.1941,4.1576,4.1542,0.0,0.0,0.0,0.0,0.0,0.0,0.0,0.0,0.0,0.0,0.0,0.0,0.0,0.0,0.0,0.0,3.8098,0.0,0.0,0.0,0.0,0.0,0.0,0.0,0.0,4.1021,4.1561,4.1945,4.2456,4.2363,0.0,4.1629,4.0341,0.0,0.0,0.0,0.0,0.0,0.0,0.0,0.0,4.1406,4.3387,4.3656,4.4018,4.4654,4.405,4.3458,4.2932,4.1885,4.0921,3.999,3.9606,3.8614,0.0,0.0,0.0,0.0,0.0,0.0,0.0,0.0,0.0,0.0,0.0,0.0,0.0,0.0,0.0,0.0,0.0,0.0,0.0,0.0,0.0,0.0,0.0,3.6367,0.0,0.0,0.0,0.0,0.0,0.0,0.0,0.0,0.0,4.4198,4.5728,4.75,4.941,5.0374,5.1101,5.1637,0.0,0.0,0.0,0.0,0.0,0.0,0.0,5.011,4.9478,4.8718,4.8391,4.8877,4.944,4.9887,4.9918,0.0,0.0,4.5809,4.4756,4.4248,4.4248,4.4248,4.4181,4.391,4.4079,4.4181,0.0,0.0,0.0,0.0,0.0,0.0,0.0,0.0,3.8235,3.8895,0.0,3.9308,0.0,0.0,0.0,0.0,0.0,0.0,0.0,0.0,4.2546,4.3311,4.3981,4.415,4.3866,4.3131,4.2525,4.1789,4.0958,3.9366,0.0,0.0,0.0,0.0,0.0,0.0,4.2141,4.4092,4.391,4.405,4.4717,4.405,4.3563,4.3297,4.2876,4.2484,4.2213,4.1531,4.051,3.9082,3.7618,0.0,0.0,0.0,0.0,0.0,0.0,0.0,0.0,0.0,0.0,0.0,0.0,0.0,0.0,0.0,0.0,0.0,0.0,0.0,0.0,3.6644,0.0,0.0,0.0,0.0,0.0,0.0,0.0,0.0,0.0,0.0,4.6672,4.8116,4.9517,5.0399,0.0,0.0,0.0,0.0,5.1744,5.1779,5.2319,5.2661,5.2467,5.2004,5.1309,5.0264,0.0,0.0,5.0065,5.0777,5.1285,5.1285,5.0744,4.9965,4.9255,4.8342,4.7804,4.7804,4.7703,4.7631,4.7056,4.7192,4.75,4.055,0.0,0.0,0.0,0.0,3.8305,3.9234,4.0583,4.0619,4.0992,4.1663,4.1407,0.0,0.0,0.0,0.0,0.0,0.0,4.2947,4.3137,4.387,4.4281,4.4535,4.5045,4.4953,4.4256,4.4204,4.3572,4.236,4.1949,4.0953,3.9495,0.0,0.0,0.0,0.0,4.2457,4.3952,4.4285,4.478,4.5476,4.4303,4.3205,4.2136,4.2109,4.1939,4.1526,4.1243,4.0812,4.0067,3.8461,0.0,0.0,0.0,0.0,0.0,0.0,0.0,0.0,0.0,0.0,0.0,0.0,0.0,0.0,0.0,0.0,0.0,0.0,0.0,3.662,3.715,3.7772,0.0,0.0,0.0,0.0,0.0,0.0,0.0,0.0,0.0,4.9776,4.9437,4.9632,0.0,0.0,5.1886,5.2483,5.2554,5.2743,5.3278,0.0,0.0,0.0,5.3109,5.2621,5.1829,5.1548,5.1452,5.1623,5.2334,5.2841,5.2841,5.2672,5.2435,5.2164,5.027,4.8815,4.868,4.868,4.8612,4.8443,4.8578,4.8646,4.3983,4.1007,4.0191,3.999,4.0269,4.0794,4.1512,4.2443,4.2985,4.315,4.3011,4.3122,4.2542,4.1536,4.1588,0.0,0.0,0.0,4.3829,4.4117,4.4527,4.4875,4.5159,4.5602,4.557,4.5159,4.495,4.4415,4.3622,4.3506,4.2875,4.1789,0.0,0.0,4.1628,4.2076,4.2995,4.4363,4.4566,4.5065,4.5792,4.4397,4.3144,4.1979,4.2045,4.2045,4.197,4.1969,4.1791,4.1405,3.9863,3.8612,0.0,0.0,0.0,0.0,0.0,0.0,0.0,0.0,0.0,0.0,0.0,3.3093,3.3901,0.0,0.0,0.0,3.5335,3.6461,3.79,3.8288,0.0,0.0,0.0,0.0,0.0,0.0,0.0,4.6758,4.8356,4.9864,5.1183,5.0928,5.1095,5.2442,5.26,5.2814,5.3278,0.0,5.3492,5.393,5.4064,5.4052,5.3997,5.3576,5.3083,5.2478,5.2352,5.2435,5.2739,5.3213,5.3484,5.3518,5.3518,5.3518,5.3518,5.1995,5.0642,5.0371,5.0304,5.0236,4.9965,5.0101,5.0236,4.6782,4.5585,4.3472,4.2447,4.2415,4.3563,4.3928,4.3885,4.5059,4.505,4.4184,4.4486,4.4271,4.3661,4.3827,0.0,0.0,4.3895,4.4208,4.478,4.478,4.5159,4.5792,4.5823,4.5823,4.5792,4.5128,4.4812,4.4749,4.4354,4.4106,4.4011,4.2874,4.2301,4.2269,4.2776,4.3661,4.4932,4.4851,4.5065,4.5602,4.4401,4.328,4.2366,4.2333,4.2523,4.2958,4.3171,4.3082,4.2712,4.1449,4.0225,3.9183,0.0,0.0,0.0,0.0,0.0,0.0,0.0,0.0,0.0,0.0,0.0,0.0,0.0,0.0,0.0,3.6661,0.0,3.9088,3.9976,0.0,0.0,0.0,4.3586,4.5165,4.5424,4.6251,4.818,0.0,0.0,0.0,0.0,5.3366,5.402,5.402,5.4001,5.4073,5.4073,5.4108,5.4251,5.4461,5.4606,5.4556,5.3973,5.3297,5.2791,5.25,5.2738,5.3315,5.3484,5.3518,5.3518,5.3518,5.3518,5.3518,5.3382,5.3281,5.2435,5.2334,5.2164,5.1589,5.186,5.2097,4.807,4.7262,4.6239,4.5695,4.548,4.5304,4.5172,4.5117,4.4941,4.4994,4.521,4.5108,4.5125,4.5248,4.5273,4.5282,4.5282,4.5317,4.5412,4.5539,4.5539,4.5634,4.5823,4.5823,4.5823,4.5792,4.5634,4.557,4.5539,4.5417,4.5069,4.4535,4.4253,4.3913,4.357,4.4034,4.444,4.4788,4.5254,4.5096,4.4208,4.3861,4.311,4.1849,4.1785,4.1916,4.2174,4.2586,4.289,4.3116,4.1605,4.0695,4.0637,3.8599,0.0,0.0,0.0,0.0,0.0,0.0,0.0,0.0,0.0,3.5633,3.6975,0.0,3.7347,0.0,3.8072,3.9137,4.0755,4.1469,0.0,0.0,4.4584,4.5512,4.6459,4.738,4.8327,4.9258,5.0305,5.1483,5.2858,5.3251,5.3704,5.4559,5.4308,5.4215,5.4786,5.4893,5.5169,5.5642,5.5782,5.5933,5.5758,5.5446,5.4825,5.4368,5.396,5.3709,5.3517,5.3518,5.3518,5.3518,5.3518,5.3518,5.3518,5.3518,5.345,5.3281,5.3213,5.3179,5.301,5.3078,5.3145,4.8697,4.8324,4.7946,4.7895,4.7986,4.7058,4.6436,4.6214,4.6728,4.6741,4.6355,4.6168,4.6368,4.6703,4.674,4.674,4.674,4.674,4.674,4.674,4.674,4.6582,4.6266,4.6234,4.6108,4.5823,4.5823,4.5823,4.5823,4.5823,4.5602,4.5223,4.5191,4.5069,4.4827,4.4721,4.4875,4.5191,4.5602,4.5286,4.4211,4.3861,4.32,4.2126,4.1877,4.1784,4.1914,4.227,4.258,4.2676,4.1584,4.0788,4.0523,3.9068,3.7913,0.0,0.0,0.0,0.0,0.0,0.0,0.0,0.0,0.0,0.0,0.0,3.9276,0.0,4.0426,0.0,4.3192,4.3654,4.4282,4.5461,4.6026,4.6564,4.731,4.826,4.9218,5.009,5.1119,5.2203,5.3463,5.3752,5.4098,5.4791,5.4607,5.4564,5.4952,5.5058,5.5235,5.5658,5.5549,5.5348,5.5169,5.4896,5.4617,5.4333,5.4044,5.3783,5.3517,5.3518,5.3518,5.3518,5.3518,5.3518,5.3518,5.3518,5.3518,5.3518,5.3518,5.3518,5.3518,5.3518,5.3518,4.8738,4.8656,4.8573,4.8862,4.934,4.8324,4.7606,4.7249,4.8821,4.8746,4.7425,4.7556,4.7816,4.8162,4.8067,4.8035,4.8035,4.794,4.7909,4.7909,4.7909,4.7561,4.6961,4.6797,4.6481,4.595,4.5782,4.5719,4.5823,4.5823,4.5823,4.5823,4.5823,4.5823,4.5792,4.5191,4.5159,4.5792,4.5823,4.5476,4.4749,4.4113,4.3485,4.276,4.226,4.1978,4.1947,4.2238,4.2326,4.2133,4.1526,4.0762,3.9933,3.9124,3.8405,0.0,3.7907,0.0,0.0,0.0,0.0,0.0,0.0,0.0,0.0,4.0113,4.1407,4.3538,4.3098,4.3572,4.5669,4.5906,4.6244,4.6853,4.7022,4.7361,4.8105,4.8748,4.9613,5.0826,5.1745,5.2692,5.3621,5.3952,5.4267,5.4582,5.4745,5.4811,5.4876,5.4896,5.4913,5.4922,5.462,5.4704,5.4422,5.4191,5.4158,5.4024,5.4058,5.3856,5.389,5.3856,5.3822,5.3822,5.389,5.3856,5.3788,5.3822,5.3822,5.389,5.3923,5.3822,5.3585,5.3518,5.3518,4.7776,4.7249,4.6682,4.655,4.6726,4.7563,4.8157,4.849,4.7807,4.7619,4.789,4.8948,4.9474,4.9489,4.8952,4.8699,4.8667,4.8162,4.7909,4.7909,4.7909,4.7814,4.7618,4.6749,4.6441,4.6545,4.5751,4.5499,4.5823,4.5823,4.5823,4.5823,4.5823,4.5823,4.5792,0.0,0.0,0.0,4.5823,4.5476,4.4749,4.4555,4.3927,4.2758,4.2704,0.0,4.2109,4.227,4.2553,4.2853,4.1639,0.0,0.0,0.0,0.0,0.0,0.0,0.0,0.0,0.0,0.0,0.0,4.2185,4.2185,4.1711,4.2354,4.3443,4.5094,4.5162,4.5466,4.6481,4.7158,4.7564,4.7699,4.824,4.8883,4.9593,4.9796,5.0435,5.1854,5.2196,5.2636,5.3411,5.3617,5.3685,5.3851,5.4295,5.4601,5.4668,5.4842,5.4926,5.4892,5.5261,5.5819,5.6413,5.6351,5.5986,5.5991,5.5858,5.5621,5.5278,5.5243,5.5242,5.5243,5.531,5.5277,5.5243,5.531,5.5209,5.5277,5.5277,5.4938,5.3788,5.3518,5.3518,4.8852,0.0,4.7889,4.733,0.0,4.7819,4.8183,4.8127,4.8279,4.8604,4.8903,4.9582,4.99,4.986,4.9552,4.9394,4.9394,4.9047,4.8772,4.8577,4.8577,4.8302,4.7731,4.7388,4.6934,4.6498,4.6159,4.5924,4.5823,4.5823,4.5823,4.5823,4.5823,4.5823,4.5823,4.5823,4.5823,4.5823,4.5823,4.5634,4.5254,4.4555,4.3895,4.32,0.0,0.0,0.0,0.0,0.0,0.0,0.0,0.0,0.0,0.0,0.0,4.0081,4.0361,4.0722,4.1178,4.188,4.2625,4.3396,4.4451,4.4756,4.4045,4.4654,4.5568,4.6684,4.6786,4.709,4.78,4.824,4.8443,4.8477,4.912,4.9695,5.0101,5.0744,5.1454,5.2164,5.2672,5.3078,5.345,5.3856,5.4025,5.4093,5.4668,5.5141,5.5142,5.5246,5.5305,5.5305,5.5545,5.5957,5.6334,5.6472,5.6438,5.6099,5.603,5.5961,5.5751,5.5681,5.5681,5.5681,5.5681,5.5681,5.5681,5.5681,5.5681,5.5681,5.5681,5.5512,5.4702,5.4296,5.3923,4.9822,4.9217,4.9248,4.8624,4.7765,4.848,4.8412,4.8001,0.0,0.0,0.0,5.0199,5.0279,5.0279,5.0239,5.0176,4.997,4.997,4.9667,4.9178,4.9259,4.8817,4.7895,4.8093,4.7668,4.6684,4.6705,4.6445,4.5981,4.5782,4.5719,4.5755,4.5719,4.5719,4.5823,4.5823,4.5823,4.5823,4.5823,4.5823,4.5792,4.465,4.3955,4.3703,4.2902,4.2333,4.2077,4.2333,4.2327,4.1868,4.1738,4.1474,4.104,4.0815,4.0983,4.1659,4.182,4.2178,4.2868,4.3606,4.435,4.5128,4.6312,4.6718,4.6143,4.665,4.7293,4.8037,4.8075,4.8311,4.8951,4.8984,4.9052,4.9187,4.9729,5.0168,5.0507,5.1522,5.23,5.2536,5.3112,5.3551,5.3721,5.4228,5.4668,5.4871,5.5446,5.5987,5.6021,5.5853,5.5754,5.5889,5.5992,5.5988,5.6089,5.6225,5.6089,5.6259,5.619,5.6089,5.6089,5.6089,5.6122,5.6224,5.6122,5.6156,5.6122,5.619,5.6089,5.6089,5.6053,5.6055,5.5886,5.5412,5.4803,4.8345,4.7701,4.7701,4.7968,4.8504,4.9178,4.9725,5.0149,5.0082,5.0383,5.0869,5.1454,5.1701,5.1733,5.1733,5.1181,5.0288,5.0247,4.9657,0.0,4.9128,4.9228,4.9023,4.8511,4.8404,4.8394,4.6993,4.6404,4.6539,4.5745,4.5463,4.5682,4.5463,4.5463,4.5787,4.5823,4.5823,4.5823,4.5823,4.5823,4.5823,4.5634,4.4903,4.3769,4.3688,4.3156,4.1979,4.2109,4.211,4.2045,4.15,4.1147,4.1082,4.0899,4.1154,4.2129,4.3165,4.4145,4.5133,4.5906,4.665,4.7361,4.7631,4.7699,4.7601,4.7669,4.8041,4.8748,4.8815,4.8883,4.8984,4.9018,4.9289,4.983,5.0033,5.0574,5.1758,5.2164,5.2604,5.3213,5.3416,5.3754,5.4296,5.4532,5.4905,5.548,5.619,5.6833,5.7137,5.6494,5.6089,5.6494,5.6664,5.6934,5.7273,5.7543,5.7442,5.7577,5.7476,5.7408,5.7374,5.7408,5.7408,5.7509,5.7408,5.7442,5.7476,5.7577,5.7442,5.7408,5.7408,5.7273,5.6765,5.6494,5.619,4.8489,4.8323,4.8323,4.8495,4.88,4.8866,4.9475,5.035,5.0563,5.0678,5.0796,5.1107,5.1234,5.1276,5.1487,5.1204,5.0472,5.0725,5.01,4.8852,4.9242,4.914,4.8646,4.8746,4.8604,4.8159,4.7567,4.6881,4.6195,4.5852,4.5622,4.5494,4.5499,4.5609,4.5755,4.5823,4.5823,4.5823,4.5823,4.5823,4.5792,4.5412,4.4907,4.4275,4.41,4.3727,4.3091,4.3162,4.3261,4.3261,4.2973,4.2781,4.2781,4.2623,4.2815,4.355,4.4,4.4733,4.5768,4.684,4.7733,4.8443,4.8511,4.8511,4.8511,4.848,4.8646,4.8984,4.9018,4.9018,4.9018,4.9357,4.9729,5.0067,5.0777,5.1555,5.2198,5.2739,5.3078,5.3416,5.3518,5.3788,5.4499,5.4938,5.548,5.6224,5.6934,5.7543,5.7814,5.734,5.7002,5.7306,5.7408,5.7509,5.7848,5.7881,5.7881,5.7881,5.7881,5.7881,5.7881,5.7881,5.7881,5.7881,5.7881,5.7881,5.7881,5.7881,5.7881,5.7881,5.7881,5.7679,5.7442,5.7408,5.7002,4.9126,4.9296,4.9076,4.9163,4.9307,4.9004,4.9616,5.0773,5.1271,5.1258,5.094,5.1228,5.1358,5.1271,5.1744,5.1522,5.0969,5.1324,5.0739,4.9469,4.9597,4.9259,4.8504,4.9027,4.8777,4.7916,4.8004,4.7384,4.622,4.6238,4.5995,4.5491,4.5704,4.5823,4.5823,4.5823,4.5823,4.5823,4.5823,4.5823,4.5792,4.5254,4.4907,4.4685,4.4316,4.4103,4.3979,4.405,4.4086,4.4086,4.4118,4.4052,4.4086,4.4084,4.4317,4.4816,4.4882,4.5245,4.6245,4.7249,4.8037,4.8574,4.8767,4.8798,4.8829,4.9092,4.9187,4.9052,4.9154,4.9289,4.939,4.9932,5.0405,5.0608,5.1589,5.2334,5.2604,5.3145,5.3518,5.3518,5.3653,5.4025,5.4735,5.548,5.6224,5.6968,5.7543,5.7848,5.7881,5.7881,5.7881,5.7881,5.7881,5.7983,5.8084,5.8152,5.8254,5.8321,5.8287,5.8321,5.8355,5.8355,5.8152,5.8186,5.8186,5.8084,5.7949,5.7881,5.7881,5.7881,5.7881,5.7881,5.7848,5.7814,5.7476,4.9854,4.9795,4.9153,4.9514,5.0525,5.0567,5.1206,5.2274,5.2502,5.2245,5.188,5.3159,5.3463,5.3234,5.355,5.2903,5.1678,5.2082,5.1623,5.0513,5.0319,4.9967,4.9466,4.9367,4.9025,4.8461,4.7968,4.7558,4.72,4.6797,4.6416,4.6109,4.5924,4.5823,4.5823,4.5823,4.5823,4.5823,4.5823,4.5823,4.5823,4.576,4.5412,4.4749,4.4654,4.4341,4.387,4.374,4.374,4.3743,4.3807,4.3772,4.3807,4.412,4.468,4.5359,4.5862,4.6454,4.7176,4.7374,4.7473,4.7572,4.8032,4.8322,4.8356,4.9308,4.9695,4.9289,4.9627,4.9965,5.0033,5.0676,5.1319,5.1826,5.2198,5.257,5.3213,5.345,5.3518,5.3518,5.4059,5.4769,5.548,5.6258,5.6968,5.7577,5.778,5.7881,5.7881,5.7881,5.7949,5.7915,5.7915,5.8186,5.866,5.8896,5.9032,5.9539,5.9302,5.9167,5.9302,5.9167,5.893,5.8896,5.8829,5.8592,5.8152,5.7881,5.7881,5.7881,5.7881,5.7881,5.7881,5.7881,5.7509,4.8902,4.9268,4.8944,4.9582,5.0745,5.1122,5.1339,5.1433,5.1849,5.1941,5.1895,5.3113,5.3246,5.2532,5.2681,5.2424,5.1864,5.2013,5.1497,5.0455,5.055,5.0131,4.931,4.9416,4.9046,4.8301,4.7954,4.7452,4.6902,4.667,4.6586,4.6536,4.6445,4.6202,4.5855,4.5823,4.5823,4.5823,4.5823,4.5823,4.5823,4.5823,4.5665,4.5412,4.5349,4.5254,4.5001,4.497,4.4938,4.4938,4.4938,4.4938,4.4934,4.5151,4.5352,4.5674,4.6198,4.6604,4.6896,4.7202,4.7404,4.7404,4.7902,4.8194,4.8194,4.9055,4.9582,4.9734,5.0338,5.0744,5.0811,5.142,5.1995,5.23,5.2706,5.3145,5.345,5.3518,5.3653,5.4059,5.4397,5.5074,5.6156,5.7002,5.7543,5.7848,5.7881,5.7881,5.7881,5.7881,5.8084,5.8423,5.8558,5.866,5.8998,5.8998,5.9201,5.9404,5.9607,5.9776,5.9505,5.9708,5.9641,5.9674,5.937,5.9066,5.866,5.8118,5.7881,5.7915,5.7881,5.7881,5.7881,5.7881,5.7712,4.8653,4.912,4.912,4.9757,5.0793,5.1028,5.1152,5.1182,5.1526,5.1665,5.1757,5.2622,5.2622,5.1987,5.217,5.217,5.1941,5.2079,5.1698,5.097,5.103,5.0512,4.9587,4.939,4.895,4.814,4.7885,4.748,4.6954,4.6986,4.7154,4.7328,4.7182,4.6771,4.6139,4.6076,4.5981,4.5823,4.5823,4.5823,4.5823,4.5823,4.5823,4.5823,4.5823,4.5823,4.5823,4.5823,4.5823,4.5823,4.5823,4.5823,4.5823,4.5823,4.5823,4.5859,4.6156,4.6404,4.6404,4.6722,4.6963,4.703,4.7603,4.8035,4.82,4.8994,4.9726,5.0192,5.0894,5.1363,5.1557,5.2198,5.2604,5.2672,5.3179,5.3551,5.3788,5.3788,5.4126,5.4769,5.5141,5.5649,5.6833,5.7543,5.7848,5.7881,5.7881,5.7881,5.7915,5.8051,5.8423,5.893,5.9133,5.9438,5.9573,5.9776,5.9674,5.9911,6.0419,6.0351,5.9877,6.0385,6.0419,6.0385,5.9911,5.9539,5.937,5.8829,5.8321,5.8186,5.8084,5.7949,5.7881,5.7881,5.7881,4.9931,4.9883,4.9931,5.0239,5.0763,5.0316,5.1075,5.2306,5.2033,5.1849,5.1849,5.1987,5.1941,5.1941,5.2757,5.2757,5.2079,5.2352,5.2502,5.2289,5.1782,5.1311,5.0832,4.9573,4.8719,4.8249,4.7812,4.7794,4.8346,4.8221,4.8357,4.8692,4.8054,4.7429,4.676,4.6634,4.6424,4.5913,4.5818,4.5823,4.5823,4.5823,4.5823,4.5823,4.5823,4.5823,4.5823,4.5823,4.5823,4.5823,4.5823,4.5823,4.5823,4.5823,4.5823,4.5823,4.5859,4.5859,4.5864,4.5936,4.5968,4.6067,4.7052,4.7652,4.7893,4.9319,5.0358,5.0591,5.1155,5.1706,5.2135,5.2674,5.318,5.3281,5.3416,5.3754,5.4397,5.4397,5.4871,5.5546,5.6188,5.6867,5.7679,5.7848,5.7881,5.7881,5.7881,5.7949,5.8084,5.8524,5.8998,5.9268,5.9708,6.0317,6.0994,6.0858,6.1231,6.14,6.1129,6.1332,6.1637,6.1806,6.1467,6.1197,6.096,6.0622,6.0216,5.981,5.9438,5.9032,5.8355,5.8118,5.7915,5.7881,5.7881,4.8774,4.9268,4.9786,5.0412,5.0964,5.0268,5.065,5.1665,5.0981,5.1011,5.1433,5.1757,5.1711,5.1509,5.217,5.2261,5.1895,5.1803,5.1757,5.1681,5.1469,5.1045,5.0502,5.0245,4.9535,4.8459,4.8377,4.8304,4.8175,4.811,4.806,4.8022,4.7814,4.7348,4.6695,4.6459,4.6297,4.6047,4.5898,4.5823,4.5787,4.5823,4.5823,4.5823,4.5823,4.5823,4.5823,4.5823,4.5823,4.5823,4.5823,4.5823,4.5823,4.5823,4.5823,4.5823,4.5823,4.5823,4.5823,4.5823,4.6013,4.646,4.7125,4.7834,4.8385,4.9374,5.018,5.0566,5.0867,5.1353,5.1795,5.2177,5.2518,5.2868,5.2938,5.3205,5.3844,5.4324,5.4901,5.5797,5.6783,5.7611,5.778,5.7881,5.7881,5.7915,5.8287,5.8558,5.8727,5.9235,5.9844,6.0351,6.0689,6.1129,6.1873,6.1535,6.1434,6.1637,6.167,6.1603,6.1772,6.2076,6.1873,6.1772,6.167,6.1366,6.0825,6.0351,6.0047,5.9438,5.8795,5.8457,5.7983,5.8051,5.7983,4.8324,4.8894,4.9659,5.0172,5.0364,4.9854,5.0076,5.0728,5.022,5.0412,5.1152,5.1526,5.1479,5.1323,5.1556,5.1665,5.1665,5.1339,5.1229,5.1229,5.1229,5.099,5.0647,5.0835,5.026,4.9089,4.893,4.8723,4.8341,4.8225,4.8099,4.7958,4.7927,4.7548,4.6942,4.6717,4.6563,4.6291,4.5897,4.5734,4.5702,4.552,4.5426,4.5426,4.5536,4.5682,4.5787,4.5823,4.5823,4.5823,4.5823,4.5823,4.5823,4.5823,4.5823,4.5823,4.5823,4.5823,4.5855,4.6013,4.6329,4.6771,4.7548,4.8285,4.8765,4.9367,4.9914,5.0263,5.0478,5.0723,5.1054,5.1297,5.1797,5.2458,5.2638,5.3036,5.3897,5.4639,5.5458,5.6466,5.7325,5.7814,5.7881,5.7881,5.8017,5.8186,5.8727,5.9032,5.937,6.0013,6.0622,6.1197,6.1467,6.1772,6.2178,6.1975,6.1772,6.1941,6.1975,6.1907,6.1907,6.2212,6.2347,6.2279,6.211,6.1806,6.14,6.0926,6.0385,5.981,5.9471,5.9167,5.8727,5.8321,5.822,4.8745,4.8844,4.9611,4.9562,4.9042,4.8944,4.9317,4.9979,5.0028,5.0412,5.1152,5.1276,5.1276,5.1229,5.1276,5.1276,5.1276,5.1229,5.1229,5.1229,5.1229,5.1199,5.1109,5.1076,5.0789,5.0064,4.9309,4.891,4.8849,4.8614,4.8499,4.8552,4.8335,4.7915,4.7538,4.7344,4.7108,4.6564,4.5965,4.5696,4.5526,4.5179,4.4871,4.4816,4.5117,4.5457,4.5787,4.5787,4.5823,4.5823,4.5823,4.5823,4.5823,4.5823,4.5823,4.5823,4.5823,4.5855,4.5918,4.6455,4.6834,4.715,4.8137,4.8814,4.9036,4.9536,4.9923,4.9962,4.9986,5.001,5.0208,5.07,5.1485,5.2449,5.2674,5.3264,5.4459,5.5407,5.6341,5.7389,5.7772,5.7881,5.7881,5.7983,5.8254,5.8727,5.9167,5.9505,6.008,6.0791,6.1231,6.1467,6.1806,6.2212,6.2347,6.2381,6.2381,6.2381,6.2313,6.2245,6.2212,6.2381,6.2381,6.2347,6.2347,6.2076,6.2009,6.1535,6.1231,6.0757,6.0385,5.9844,5.937,5.8896,5.8524,4.805,4.8122,4.8873,4.9042,4.8795,4.8795,4.9268,4.9979,4.9979,5.0489,5.1135,5.1229,5.1229,5.1229,5.1229,5.1182,5.1229,5.1229,5.1229,5.1229,5.1229,5.1229,5.1263,5.1499,5.1304,5.0653,4.9689,4.9178,4.9102,4.8662,4.8404,4.8226,4.7445,4.716,4.7377,4.6756,4.6406,4.6722,4.6435,4.6225,4.6225,4.601,4.5702,4.5349,4.5663,4.5778,4.542,4.5646,4.5823,4.5823,4.5823,4.5823,4.5823,4.5823,4.5823,4.5855,4.6266,4.6487,4.6582,4.715,4.7751,4.8193,4.8667,4.911,4.9521,4.9773,4.9931,4.9931,4.9892,5.0058,5.0563,5.0816,5.1407,5.2088,5.2586,5.32,5.4179,5.493,5.5916,5.6963,5.7289,5.7439,5.7873,5.822,5.8727,5.9167,5.9877,6.0655,6.096,6.1535,6.2009,6.211,6.2381,6.2415,6.2415,6.2415,6.2415,6.2415,6.2415,6.2415,6.2415,6.2415,6.2415,6.2415,6.2415,6.2381,6.2347,6.2144,6.1806,6.1501,6.1028,6.0486,5.9911,5.9505,5.9201,4.7694,4.7824,4.8524,4.8446,4.8021,4.8223,4.8674,4.91,4.9149,4.9591,5.0191,5.0316,5.0508,5.0728,5.0775,5.0917,5.1182,5.1229,5.1229,5.1229,5.1229,5.1229,5.1152,5.1152,5.099,5.0418,4.9637,4.9248,4.9218,4.8865,4.8536,4.8148,4.7407,4.7051,4.7266,4.6718,4.6651,4.6942,4.6648,4.6407,4.6346,4.6204,4.595,4.5822,4.6144,4.6198,4.6022,4.6359,4.636,4.595,4.5823,4.5823,4.5823,4.6044,4.6171,4.6329,4.6803,4.7214,4.7277,4.7877,4.8415,4.8825,4.911,4.9426,4.9837,4.99,4.9995,5.0279,5.0342,5.0595,5.1227,5.167,5.1937,5.2292,5.2756,5.3349,5.4154,5.4759,5.5507,5.6375,5.6872,5.731,5.7947,5.8552,5.9265,5.981,6.0689,6.1501,6.167,6.2076,6.2279,6.2381,6.2381,6.2415,6.2415,6.2415,6.2415,6.2415,6.2415,6.2415,6.2415,6.2415,6.2415,6.2415,6.2415,6.2415,6.2347,6.2347,6.2144,6.1839,6.1603,6.1264,6.0757,6.0419,6.0013,4.7694,4.7796,4.8524,4.8021,4.6925,4.7568,4.7897,4.7796,4.7897,4.8374,4.8844,4.9042,4.9366,4.9931,5.0124,5.0537,5.1135,5.1229,5.1229,5.1229,5.1182,5.1182,5.0964,5.046,5.0066,4.9601,4.926,4.9073,4.9092,4.911,4.897,4.8388,4.8105,4.7909,4.7461,4.7282,4.7092,4.7173,4.6693,4.6466,4.6394,4.5885,4.5714,4.6093,4.6425,4.6762,4.6998,4.7352,4.7107,4.6139,4.6108,4.6139,4.6108,4.655,4.6866,4.6898,4.7561,4.7877,4.8067,4.8573,4.8952,4.9078,4.9521,4.9963,5.0026,5.0153,5.0405,5.0943,5.1006,5.1322,5.2017,5.2554,5.2976,5.3123,5.3249,5.3744,5.4755,5.4966,5.5254,5.5861,5.6525,5.7177,5.7881,5.8538,5.9569,6.042,6.0953,6.1351,6.1886,6.2082,6.2268,6.2381,6.2415,6.2415,6.2415,6.2415,6.2415,6.2415,6.2415,6.2415,6.2415,6.2415,6.2415,6.2415,6.2415,6.2415,6.2381,6.2381,6.2381,6.2212,6.2042,6.1941,6.1637,6.1197,6.0689,4.7694,4.7745,4.8524,4.8223,4.7568,4.8173,4.8173,4.7796,4.8274,4.8446,4.8745,4.8795,4.917,4.9931,4.9979,5.0442,5.1088,5.1229,5.1229,5.1229,5.1229,5.0822,5.0412,5.0076,4.9611,4.8985,4.8841,4.8862,4.8902,4.9121,4.9068,4.8845,4.7992,4.7708,4.7852,4.6988,4.6753,4.7239,4.716,4.701,4.698,4.686,4.6743,4.675,4.6813,4.6814,4.6854,4.7154,4.7446,4.7397,4.734,4.734,4.7277,4.7466,4.7593,4.7719,4.8225,4.8636,4.8762,4.9236,4.9615,4.9647,4.9837,5.0153,5.0658,5.069,5.1037,5.1575,5.1764,5.2049,5.2681,5.3028,5.3344,5.3755,5.3787,5.3967,5.4327,5.4401,5.4623,5.5246,5.5986,5.6703,5.746,5.8434,5.9356,5.9852,6.0357,6.0886,6.1528,6.1756,6.1837,6.2263,6.2415,6.2415,6.2415,6.2415,6.2415,6.2415,6.2415,6.2415,6.2415,6.2415,6.2415,6.2415,6.2415,6.2415,6.2415,6.2381,6.2415,6.2415,6.2313,6.2144,6.2009,6.167,6.1298,4.8151,4.8223,4.8972,4.8674,4.7847,4.8474,4.8173,4.7414,4.7643,4.7819,4.7819,4.7847,4.8474,4.9415,4.9513,5.0172,5.1135,5.1229,5.1229,5.1229,5.1229,5.0437,4.9524,4.9339,4.8808,4.7662,4.806,4.8296,4.8518,4.9088,4.9336,4.9128,4.8617,4.8492,4.8626,4.7641,4.7195,4.7597,4.7489,4.7309,4.7309,4.7309,4.7387,4.7364,4.7388,4.7352,4.7455,4.7676,4.7777,4.769,4.7763,4.7909,4.794,4.8162,4.8288,4.8351,4.8952,4.9331,4.9394,4.9671,5.0058,5.0279,5.0374,5.0721,5.1259,5.1417,5.1701,5.2333,5.2428,5.2839,5.3344,5.3534,5.3692,5.3976,5.4103,5.4229,5.4482,5.4577,5.4845,5.5442,5.6135,5.6808,5.7465,5.8563,5.918,5.9657,6.0144,6.0646,6.1193,6.1235,6.1439,6.1911,6.2263,6.2263,6.2302,6.2302,6.2341,6.2381,6.2415,6.2415,6.2415,6.2415,6.2415,6.2415,6.2415,6.2415,6.2415,6.2415,6.2415,6.2415,6.2415,6.2347,6.2212,6.211,6.1738,4.8944,4.8993,4.9786,4.9248,4.805,4.8524,4.7971,4.6717,4.6612,4.6717,4.6821,4.6717,4.7796,4.8894,4.9268,4.9805,5.1182,5.1229,5.1229,5.1229,5.1028,5.0194,4.8402,4.862,4.7885,4.6657,4.7165,4.7406,4.7791,4.8944,4.9417,4.9164,4.954,4.9743,4.9298,4.8656,4.8417,4.8282,4.7967,4.7668,4.7578,4.7519,4.7658,4.7831,4.7885,4.7969,4.816,4.8295,4.8173,4.7395,4.7792,4.8148,4.8218,4.8731,4.8952,4.9141,4.9615,5.0026,5.0058,5.0216,5.0469,5.0943,5.1069,5.1385,5.1954,5.2144,5.2428,5.3123,5.3218,5.3471,5.385,5.404,5.404,5.4103,5.4103,5.4419,5.4881,5.5102,5.5399,5.6043,5.6634,5.7407,5.8054,5.8723,5.9262,5.9176,5.9598,5.9935,6.0355,6.0567,6.0986,6.1669,6.187,6.207,6.211,6.2189,6.2302,6.2341,6.2381,6.2415,6.2415,6.2415,6.2415,6.2415,6.2415,6.2415,6.2415,6.2415,6.2415,6.2415,6.2415,6.2415,6.2381,6.2313,6.2076,4.9737,4.9834,5.0632,5.0028,4.8724,4.8724,4.792,4.656,4.6535,4.6977,4.7312,4.7414,4.8302,4.9737,4.9708,5.0268,5.1135,5.1229,5.1229,5.1229,5.1229,4.9963,4.8393,4.8158,4.7737,4.7022,4.6271,4.6332,4.6943,4.7796,4.8418,4.887,4.9068,4.9424,4.9832,4.9166,4.8992,4.9044,4.8865,4.8506,4.8117,4.8057,4.8066,4.8104,4.8086,4.7855,4.7666,4.7922,4.819,4.8389,4.8733,4.9094,4.9347,4.9584,4.9679,4.9868,5.0342,5.0753,5.0816,5.1164,5.1606,5.1733,5.1828,5.208,5.2776,5.287,5.3186,5.3724,5.3882,5.3913,5.4071,5.4103,5.4103,5.4103,5.4134,5.4356,5.4881,5.507,5.5241,5.5664,5.6512,5.7267,5.7502,5.8146,5.8582,5.876,5.8927,5.9075,5.9443,5.9881,6.0407,6.1003,6.1027,6.115,6.1554,6.1635,6.1837,6.207,6.2223,6.2223,6.2223,6.2415,6.2415,6.2415,6.2415,6.2415,6.2415,6.2415,6.2415,6.2415,6.2381,6.2313,6.2279,6.2313,6.2076,5.0585,5.0585,5.1011,5.0268,4.8993,4.917,4.8474,4.7363,4.7466,4.7796,4.8151,4.8223,4.8873,4.9979,5.0028,5.0412,5.1058,5.1229,5.1229,5.1135,5.087,4.9996,4.8953,4.7856,4.7197,4.6743,4.6335,4.6263,4.6662,4.726,4.7948,4.8324,4.8624,4.9291,4.9787,4.9143,4.9057,4.9429,4.901,4.8684,4.8761,4.879,4.8745,4.8648,4.8602,4.8471,4.8355,4.8501,4.8949,4.9431,4.9738,4.9883,4.9962,5.0247,5.0405,5.0532,5.1069,5.1417,5.1575,5.1796,5.2112,5.2523,5.2523,5.2934,5.3376,5.3566,5.3564,5.3762,5.3942,5.4103,5.4103,5.4103,5.4103,5.4103,5.4103,5.4261,5.4609,5.4881,5.5418,5.5923,5.6789,5.7372,5.7737,5.799,5.8194,5.8455,5.8532,5.8683,5.9016,5.9414,5.9686,6.005,5.9971,6.0139,6.0762,6.1069,6.1276,6.1595,6.1911,6.187,6.1797,6.207,6.2415,6.2415,6.2415,6.2415,6.2415,6.2415,6.2381,6.2381,6.2347,6.2212,6.2009,6.1806,6.1434,5.1229,5.1229,5.1229,5.0364,4.9219,4.9688,4.9149,4.81,4.8524,4.8745,4.8993,4.8993,4.9464,5.0076,5.022,5.0632,5.1041,5.1229,5.1229,5.1135,5.0412,4.9873,4.9193,4.7921,4.6749,4.588,4.6021,4.6292,4.6637,4.7105,4.7517,4.7824,4.8274,4.8915,4.9319,4.9001,4.8837,4.9528,4.9326,4.8942,4.9207,4.9313,4.9389,4.9194,4.9164,4.9134,4.909,4.9209,4.9611,5.0419,5.0549,5.0443,5.0389,5.0721,5.1092,5.1083,5.16,5.1946,5.1999,5.2198,5.2587,5.3207,5.325,5.3502,5.3913,5.3965,5.3793,5.3652,5.3726,5.3974,5.4103,5.4103,5.4103,5.4103,5.4103,5.4103,5.4198,5.464,5.5399,5.6302,5.6663,5.7042,5.7548,5.7895,5.8022,5.8162,5.8162,5.8237,5.8576,5.8747,5.8903,5.9206,5.9197,5.9469,6.0032,6.0609,6.082,6.0945,6.135,6.1432,6.1358,6.1716,6.203,6.2341,6.2415,6.2415,6.2415,6.2415,6.2381,6.2381,6.2144,6.1873,6.1569,6.1231,6.0791,5.1229,5.1229,5.1229,5.0603,4.9883,4.9931,4.9513,4.8696,4.8795,4.9219,4.9757,4.9834,5.022,5.0775,5.0964,5.1135,5.1182,5.1229,5.1229,5.1011,5.0316,4.9688,4.9063,4.7931,4.7039,4.6392,4.6102,4.6102,4.6453,4.6665,4.7081,4.7568,4.7796,4.8302,4.8944,4.93,4.9037,4.932,4.9607,4.9705,4.9457,4.9756,4.9883,4.9569,4.9539,4.9509,4.9419,4.9359,4.9524,5.0012,5.0406,5.0758,5.1111,5.158,5.1653,5.1539,5.1914,5.2246,5.2394,5.2789,5.335,5.3785,5.3882,5.3839,5.4028,5.406,5.3813,5.3552,5.3465,5.3671,5.406,5.4103,5.4103,5.4103,5.4103,5.4103,5.4134,5.4324,5.4672,5.5493,5.6031,5.6599,5.7073,5.739,5.739,5.7421,5.7421,5.739,5.7566,5.7688,5.7783,5.8133,5.8487,5.8863,5.9343,6.0001,6.0355,6.0269,6.0567,6.0903,6.0986,6.1276,6.1595,6.1951,6.2263,6.2415,6.2415,6.2415,6.2381,6.2381,6.1975,6.1501,6.1095,6.0723,6.025,5.1229,5.1229,5.1229,5.0728,5.0172,5.0489,5.0172,4.9562,4.9854,5.0268,5.0508,5.0632,5.0822,5.1135,5.1229,5.1229,5.1229,5.1229,5.1229,5.0964,4.9999,4.9513,4.9071,4.7897,4.7312,4.6895,4.6496,4.6209,4.6508,4.6535,4.6717,4.6925,4.7081,4.7466,4.7999,4.8021,4.8524,4.8724,4.9219,4.9592,4.9637,5.03,5.0465,5.0361,5.0242,5.0272,5.0272,5.0272,5.0501,5.0955,5.1448,5.177,5.2045,5.2317,5.2437,5.1993,5.2213,5.2616,5.2791,5.3265,5.3608,5.3985,5.4103,5.3974,5.3844,5.3683,5.3596,5.3421,5.3157,5.3334,5.4017,5.4103,5.4103,5.4103,5.4103,5.4103,5.4103,5.4103,5.4356,5.4672,5.5241,5.5873,5.6473,5.6694,5.6694,5.6694,5.6694,5.6694,5.6694,5.6663,5.6757,5.7548,5.8068,5.8473,5.8882,5.9343,5.9739,5.9652,5.9794,6.0141,6.0482,6.0736,6.1152,6.1635,6.1951,6.2263,6.2415,6.2415,6.2415,6.2313,6.1772,6.1231,6.0655,6.0148,5.9641,5.1229,5.1229,5.1229,5.0822,5.0394,5.0917,5.0822,5.0489,5.087,5.1135,5.1229,5.1182,5.1182,5.1229,5.1229,5.1229,5.1229,5.1229,5.1229,5.0917,4.9854,4.9415,4.8972,4.805,4.6977,4.7081,4.6794,4.6535,4.6535,4.6535,4.6535,4.664,4.6535,4.6769,4.726,4.7312,4.7643,4.7796,4.8223,4.8674,4.9834,5.0775,5.1229,5.1229,5.1229,5.1139,5.105,5.105,5.1189,5.1606,5.2048,5.2471,5.2592,5.286,5.279,5.2361,5.2435,5.274,5.298,5.3214,5.3377,5.3844,5.4028,5.3813,5.3465,5.3246,5.3113,5.3157,5.298,5.3069,5.3758,5.406,5.4103,5.4103,5.4103,5.4103,5.4103,5.4103,5.4103,5.4419,5.4703,5.5177,5.5809,5.5967,5.5967,5.5967,5.5967,5.5967,5.5936,5.5683,5.5967,5.7073,5.7769,5.8194,5.855,5.8778,5.8972,5.8882,5.912,5.952,5.9794,6.0141,6.0652,6.1193,6.1635,6.1951,6.2183,6.2415,6.2415,6.2178,6.1569,6.096,6.0419,5.9573,5.8795,5.1229,5.1229,5.1229,5.1105,5.1088,5.1182,5.1182,5.1088,5.1135,5.1229,5.1229,5.1229,5.1229,5.1229,5.1229,5.1229,5.1182,5.1088,5.1088,5.087,4.9979,4.9268,4.8923,4.81,4.7157,4.6977,4.6692,4.6535,4.6535,4.6535,4.6535,4.6535,4.6535,4.656,4.6769,4.7081,4.726,4.7157,4.7971,4.9022,4.9883,5.0728,5.1088,5.1229,5.1229,5.1229,5.1229,5.1229,5.1276,5.1369,5.1834,5.2063,5.2033,5.2002,5.2048,5.1987,5.2002,5.2033,5.2291,5.2622,5.3069,5.3552,5.3813,5.377,5.3246,5.2577,5.2352,5.2757,5.2667,5.2935,5.3465,5.3844,5.4017,5.406,5.406,5.406,5.4103,5.4103,5.4103,5.4134,5.4419,5.4703,5.5146,5.5165,5.5228,5.5228,5.5228,5.5228,5.5323,5.5272,5.5462,5.6631,5.7706,5.8148,5.8321,5.855,5.8504,5.8321,5.8564,5.8895,5.9209,5.9652,6.0184,6.0694,6.1152,6.1676,6.1991,6.2223,6.2341,6.2009,6.1366,6.0757,6.0182,5.9201,5.8152,5.1229,5.1229,5.1229,5.1229,5.1229,5.1229,5.1229,5.1229,5.1229,5.1229,5.1229,5.1229,5.1229,5.1229,5.1229,5.1229,5.1135,5.0775,5.0537,5.0298,4.9493,4.8852,4.8524,4.7694,4.6873,4.7081,4.6717,4.6535,4.6535,4.6535,4.6535,4.6535,4.6535,4.6535,4.6535,4.6821,4.6769,4.6925,4.7592,4.8524,4.9317,5.0076,5.0728,5.1182,5.1229,5.1229,5.1229,5.1229,5.1229,5.1276,5.1665,5.1757,5.1665,5.1711,5.1849,5.1479,5.1479,5.1618,5.1941,5.2397,5.2846,5.3246,5.3509,5.3334,5.2667,5.2033,5.1711,5.2215,5.2261,5.2577,5.3113,5.329,5.364,5.3813,5.3856,5.4017,5.406,5.4103,5.4103,5.4103,5.4134,5.4419,5.4609,5.464,5.4703,5.4703,5.4672,5.4672,5.5019,5.543,5.5778,5.6378,5.739,5.8289,5.8321,5.8413,5.8413,5.8321,5.8321,5.861,5.8746,5.9152,5.9652,6.0054,6.0397,6.0945,6.1635,6.1991,6.2144,6.1689,6.1163,6.0473,5.9789,5.8896,5.8051,5.1229,5.1229,5.1229,5.1229,5.1229,5.1229,5.1229,5.1229,5.1229,5.1229,5.1229,5.1229,5.1229,5.1229,5.1229,5.1229,5.1152,5.0585,5.022,4.964,4.9149,4.8753,4.8324,4.7438,4.726,4.7414,4.6769,4.6535,4.6535,4.6535,4.6535,4.6535,4.6535,4.6535,4.6535,4.6587,4.6535,4.664,4.7312,4.8122,4.8873,4.9611,5.0412,5.0964,5.1229,5.1229,5.1229,5.1229,5.1229,5.1276,5.1479,5.1526,5.1369,5.1479,5.1526,5.1293,5.1276,5.1386,5.1711,5.2124,5.2622,5.2891,5.3024,5.2712,5.2094,5.1479,5.1293,5.1711,5.1941,5.2352,5.2757,5.2757,5.3201,5.3509,5.3671,5.3801,5.3974,5.406,5.4103,5.4103,5.4103,5.4103,5.4229,5.4166,5.4166,5.4134,5.4103,5.4134,5.4703,5.5462,5.5936,5.6441,5.739,5.8257,5.8321,5.8321,5.8321,5.8321,5.8321,5.8367,5.8504,5.8701,5.9107,5.9431,5.9739,6.0269,6.0945,6.1432,6.1877,6.1293,6.0757,6.0058,5.929,5.8474,5.798,5.1229,5.1229,5.1229,5.1229,5.1229,5.1229,5.1229,5.1229,5.1229,5.1229,5.1229,5.1229,5.1229,5.1229,5.1229,5.1229,5.1229,5.1105,5.0585,5.0394,5.0364,4.9248,4.8453,4.7897,4.7694,4.6873,4.6535,4.6535,4.6535,4.6535,4.6535,4.6535,4.6535,4.6535,4.6535,4.6535,4.6535,4.664,4.7184,4.7971,4.8724,4.9464,5.025,5.0964,5.1182,5.1152,5.1229,5.1229,5.1229,5.1229,5.1323,5.1339,5.1276,5.1323,5.1246,5.1276,5.1229,5.1276,5.1433,5.1757,5.1987,5.2033,5.2079,5.2124,5.1803,5.1433,5.1293,5.1339,5.1618,5.1895,5.2215,5.2397,5.2712,5.3157,5.3377,5.3552,5.377,5.406,5.4103,5.4103,5.4103,5.406,5.4175,5.4206,5.4166,5.4166,5.4419,5.4451,5.4925,5.5588,5.6031,5.6631,5.7548,5.8194,5.8289,5.8321,5.8321,5.8321,5.8321,5.8321,5.8367,5.8518,5.8746,5.8972,5.9298,5.9751,6.0098,6.0355,6.0586,6.0655,6.0289,5.9598,5.9036,5.8366,5.8022,5.1229,5.1229,5.1229,5.1229,5.1229,5.1229,5.1229,5.1229,5.1229,5.1229,5.1229,5.1229,5.1229,5.1229,5.1229,5.1229,5.1135,5.0632,5.0268,4.9786,4.9297,4.8553,4.7796,4.7387,4.7002,4.656,4.6535,4.6535,4.6535,4.6535,4.6535,4.6535,4.6535,4.6535,4.6535,4.6535,4.6535,4.6587,4.6925,4.7489,4.8574,4.8624,4.9395,5.1088,5.0585,5.0822,5.1135,5.1182,5.1229,5.1229,5.1229,5.1229,5.1229,5.1229,5.1229,5.1229,5.1229,5.1229,5.1276,5.1618,5.1895,5.1895,5.1895,5.1803,5.1572,5.1323,5.1229,5.1276,5.1369,5.1572,5.1941,5.1895,5.1987,5.2667,5.3069,5.329,5.3596,5.3899,5.3899,5.3888,5.3931,5.3974,5.412,5.4309,5.4238,5.4229,5.4545,5.4893,5.5367,5.5841,5.6347,5.6789,5.7674,5.8162,5.8289,5.8321,5.8321,5.8321,5.8321,5.8321,5.8321,5.8321,5.8473,5.8655,5.8792,5.912,5.9298,5.9209,5.9467,6.004,5.9802,5.9078,5.8573,5.8169,5.8069,5.1229,5.1229,5.1229,5.1229,5.1229,5.1229,5.1229,5.1229,5.1229,5.1229,5.1229,5.1229,5.1229,5.1229,5.1229,5.1229,5.0994,5.0489,4.9931,4.9366,4.8724,4.7796,4.7363,4.7133,4.6977,4.664,4.6535,4.6535,4.6535,4.6535,4.6535,4.6535,4.6535,4.6535,4.6535,4.6535,4.6535,4.6535,4.6612,4.7105,4.8223,4.8151,4.8653,5.0442,5.0268,5.0537,5.0964,5.1229,5.1229,5.1229,5.1229,5.1229,5.1229,5.1229,5.1229,5.1229,5.1229,5.1229,5.1323,5.1433,5.1711,5.1618,5.1665,5.1479,5.1293,5.1229,5.1229,5.1229,5.1229,5.1369,5.1711,5.1526,5.1618,5.2306,5.2757,5.3024,5.3465,5.377,5.3683,5.3552,5.3758,5.4069,5.4505,5.4788,5.5153,5.5114,5.5272,5.5557,5.5841,5.6347,5.6852,5.7295,5.7769,5.8085,5.8321,5.8321,5.8321,5.8321,5.8321,5.8321,5.8321,5.8321,5.8321,5.8427,5.8518,5.8564,5.8655,5.8701,5.9165,5.9751,5.9263,5.8613,5.8139,5.7814,5.8038,5.1229,5.1229,5.1229,5.1229,5.1229,5.1229,5.1229,5.1229,5.1229,5.1229,5.1229,5.1229,5.1135,5.1135,5.1011,5.0917,5.068,5.0172,4.9562,4.8972,4.8574,4.7796,4.7312,4.7081,4.6925,4.664,4.6535,4.6535,4.6535,4.6535,4.6535,4.6535,4.6535,4.6535,4.6535,4.6535,4.6535,4.6535,4.6535,4.7053,4.762,4.7671,4.8503,4.9542,4.9883,5.0172,5.0775,5.1152,5.1182,5.1229,5.1229,5.1229,5.1229,5.1229,5.1229,5.1229,5.1229,5.1229,5.1229,5.1229,5.1246,5.1293,5.1386,5.1276,5.1229,5.1229,5.1229,5.1229,5.1229,5.1229,5.1276,5.1276,5.1572,5.1849,5.2306,5.2802,5.3246,5.3596,5.3509,5.3427,5.384,5.4258,5.4819,5.5372,5.5973,5.6189,5.6157,5.6283,5.6505,5.6852,5.7421,5.7611,5.799,5.8085,5.8321,5.8321,5.8321,5.8321,5.8321,5.8321,5.8321,5.8321,5.8321,5.8321,5.8367,5.8459,5.8413,5.8367,5.8837,5.9177,5.8771,5.8204,5.7732,5.7589,5.7934,5.1229,5.1229,5.1229,5.1229,5.1229,5.1229,5.1229,5.1229,5.1229,5.1229,5.1229,5.1229,5.0822,5.0585,5.0364,5.022,4.9659,4.9513,4.8894,4.8795,4.8324,4.7897,4.7363,4.6977,4.6821,4.6587,4.6535,4.6535,4.6535,4.6535,4.6535,4.6535,4.6535,4.6535,4.6535,4.6535,4.6535,4.6535,4.6587,4.6873,4.7517,4.7312,4.7643,4.912,4.9219,4.9659,5.046,5.087,5.1182,5.1229,5.1229,5.1229,5.1229,5.1229,5.1229,5.1229,5.1229,5.1229,5.1229,5.1229,5.1229,5.1229,5.1229,5.1229,5.1229,5.1229,5.1229,5.1229,5.1229,5.1229,5.1229,5.1229,5.1386,5.1572,5.1987,5.2532,5.298,5.3334,5.3452,5.3388,5.357,5.4951,5.5857,5.6235,5.6807,5.7042,5.701,5.7231,5.7453,5.7642,5.799,5.8022,5.8194,5.8257,5.8321,5.8321,5.8321,5.8321,5.8321,5.8321,5.8321,5.8321,5.8321,5.8321,5.8321,5.8321,5.8321,5.8321,5.8367,5.8437,5.8287,5.8281,5.8039,5.7964,5.8055,5.1229,5.1229,5.1229,5.1229,5.1229,5.1229,5.1229,5.1229,5.1229,5.1229,5.1229,5.1182,5.0775,5.0172,4.9931,4.9562,4.8844,4.8524,4.8424,4.8324,4.7643,4.726,4.7029,4.6821,4.664,4.6535,4.6535,4.6535,4.6535,4.6535,4.6535,4.6535,4.6535,4.6535,4.6535,4.6535,4.6535,4.6535,4.6587,4.6717,4.6977,4.7029,4.7157,4.8122,4.8774,4.9219,4.9979,5.0632,5.1182,5.1182,5.1182,5.1182,5.1229,5.1229,5.1229,5.1229,5.1229,5.1229,5.1229,5.1229,5.1229,5.1229,5.1229,5.1229,5.1229,5.1229,5.1229,5.1229,5.1229,5.1229,5.1229,5.1229,5.1276,5.1463,5.1757,5.2352,5.2757,5.3069,5.3361,5.3293,5.374,5.5249,5.6661,5.7221,5.7674,5.7769,5.7864,5.8053,5.818,5.8211,5.8321,5.8289,5.8289,5.8289,5.8321,5.8321,5.8321,5.8321,5.8321,5.8321,5.8321,5.8321,5.8321,5.8321,5.8321,5.8321,5.8321,5.8321,5.8367,5.8367,5.8318,5.8286,5.8321,5.8246,5.8249,5.1229,5.1229,5.1229,5.1229,5.1229,5.1229,5.1229,5.1229,5.1229,5.1229,5.1229,5.1229,5.0775,5.0124,4.9931,4.9415,4.8596,4.7948,4.7722,4.7517,4.6977,4.6717,4.6612,4.6587,4.6535,4.6535,4.6535,4.6535,4.6535,4.6535,4.6535,4.6535,4.6535,4.6535,4.6535,4.6535,4.6535,4.6535,4.6535,4.664,4.6665,4.664,4.6925,4.7643,4.8223,4.8873,4.9591,5.0268,5.0775,5.0964,5.1058,5.1135,5.1182,5.1229,5.1229,5.1229,5.1229,5.1229,5.1229,5.1229,5.1229,5.1229,5.1229,5.1229,5.1229,5.1229,5.1229,5.1229,5.1229,5.1229,5.1229,5.1229,5.1229,5.1463,5.1665,5.2079,5.2487,5.2821,5.3084,5.3391,5.3837,5.5039,5.6559,5.7432,5.7976,5.8085,5.8085,5.8116,5.8211,5.8243,5.8321,5.8321,5.8289,5.8321,5.8321,5.8321,5.8321,5.8321,5.8321,5.8321,5.8321,5.8321,5.8321,5.8321,5.8321,5.8321,5.8321,5.8321,5.8321,5.8321,5.8321,5.8321,5.8321,5.8321,5.8278,5.1229,5.1229,5.1229,5.1229,5.1229,5.1229,5.1229,5.1229,5.1229,5.1229,5.1229,5.1229,5.0728,4.9979,4.9386,4.8774,4.7999,4.7312,4.6977,4.6717,4.6665,4.6535,4.6535,4.6535,4.6535,4.6535,4.6535,4.6535,4.6535,4.6535,4.6535,4.6535,4.6535,4.6535,4.6535,4.6535,4.6535,4.6535,4.6535,4.6535,4.6535,4.6535,4.6769,4.7053,4.7694,4.8302,4.8703,4.9268,4.9834,5.0268,5.0316,5.0537,5.1229,5.1229,5.1229,5.1229,5.1229,5.1229,5.1229,5.1229,5.1229,5.1229,5.1229,5.1229,5.1229,5.1229,5.1229,5.1229,5.1229,5.1229,5.1229,5.1229,5.1229,5.1369,5.1572,5.1895,5.2276,5.2566,5.2902,5.3511,5.3971,5.5285,5.6777,5.7542,5.8087,5.8197,5.8321,5.8321,5.8321,5.8321,5.8321,5.8321,5.8321,5.8321,5.8321,5.8321,5.8321,5.8321,5.8321,5.8321,5.8321,5.8321,5.8321,5.8321,5.8321,5.8321,5.8321,5.8321,5.8321,5.8321,5.8321,5.8321,5.8321,5.8321,5.8321,5.1088,5.0947,5.1135,5.1229,5.1229,5.1229,5.1229,5.1229,5.1229,5.1229,5.1229,5.1229,5.0775,5.0028,4.9513,4.8774,4.7722,4.7363,4.6977,4.6587,4.6535,4.6535,4.6535,4.6535,4.6535,4.6535,4.6535,4.6535,4.6535,4.6535,4.6535,4.6535,4.6535,4.6535,4.6535,4.6535,4.6535,4.6535,4.6535,4.6535,4.6535,4.6535,4.6535,4.6692,4.726,4.7568,4.7745,4.8374,4.9022,4.9464,4.9513,4.9931,5.068,5.0964,5.1182,5.1229,5.1229,5.1229,5.1229,5.1229,5.1229,5.1229,5.1229,5.1229,5.1229,5.1229,5.1229,5.1229,5.1229,5.1229,5.1229,5.1229,5.1229,5.1229,5.1433,5.1665,5.2013,5.2346,5.292,5.3585,5.4587,5.5879,5.6898,5.7621,5.8089,5.8228,5.8321,5.8321,5.8321,5.8321,5.8321,5.8321,5.8321,5.8321,5.8321,5.8321,5.8321,5.8321,5.8321,5.8321,5.8321,5.8321,5.8321,5.8321,5.8321,5.8321,5.8321,5.8321,5.8321,5.8321,5.8321,5.8321,5.8321,5.8321,5.8321,5.0947,5.0644,5.0994,5.1088,5.1058,5.1058,5.1135,5.1182,5.1182,5.1229,5.1229,5.1229,5.0822,5.0268,4.9786,4.8972,4.805,4.7517,4.6925,4.6535,4.6535,4.6535,4.6535,4.6535,4.6535,4.6535,4.6535,4.6535,4.6535,4.6535,4.6535,4.6535,4.6535,4.6535,4.6535,4.6535,4.6535,4.6535,4.6535,4.6535,4.6535,4.6535,4.6535,4.664,4.7081,4.7568,4.7694,4.8122,4.8646,4.8696,4.8795,4.912,4.9805,5.0775,5.1088,5.1135,5.1135,5.1229,5.1229,5.1229,5.1229,5.1229,5.1229,5.1229,5.1229,5.1229,5.1229,5.1229,5.1229,5.1229,5.1229,5.1229,5.1229,5.1229,5.1323,5.163,5.2008,5.261,5.3447,5.4146,5.4982,5.6158,5.6721,5.7401,5.7965,5.815,5.8321,5.8321,5.8321,5.8321,5.8321,5.8321,5.8321,5.8321,5.8321,5.8321,5.8321,5.8321,5.8321,5.8321,5.8321,5.8321,5.8321,5.8321,5.8321,5.8321,5.8321,5.8321,5.8321,5.8321,5.8321,5.8321,5.8321,5.8321,5.8321,5.1135,5.0994,5.0757,5.0423,5.0183,5.0471,5.0692,5.0739,5.1041,5.1152,5.1229,5.1152,5.1135,5.0775,4.9601,4.8787,4.8474,4.7517,4.6769,4.6587,4.6535,4.6535,4.6535,4.6535,4.6535,4.6535,4.6535,4.6535,4.6535,4.6535,4.6535,4.6535,4.6535,4.6535,4.6535,4.6535,4.6535,4.6535,4.6535,4.6535,4.6535,4.6535,4.6535,4.6587,4.6821,4.6873,4.6977,4.7029,4.7517,4.7796,4.7948,4.8374,4.9042,5.0412,5.0775,5.0537,5.0822,5.1058,5.1229,5.1229,5.1229,5.1229,5.1229,5.1229,5.1229,5.1229,5.1229,5.1229,5.1229,5.1229,5.1229,5.1229,5.1229,5.1229,5.1319,5.1712,5.2107,5.3032,5.3952,5.4739,5.5469,5.6035,5.6603,5.7132,5.7684,5.8011,5.8228,5.8321,5.8321,5.8321,5.8321,5.8321,5.8321,5.8321,5.8321,5.8321,5.8321,5.8321,5.8321,5.8321,5.8321,5.8321,5.8321,5.8321,5.8321,5.8321,5.8321,5.8321,5.8321,5.8321,5.8321,5.8321,5.8321,5.8321,5.8321,5.0947,5.0489,4.999,4.9892,5.0038,5.0135,5.0375,5.0757,5.0852,5.0815,5.0764,5.081,5.093,5.0909,4.9591,4.8821,4.856,4.7592,4.6977,4.6612,4.6535,4.6535,4.6535,4.6535,4.6535,4.6535,4.6535,4.6535,4.6535,4.6535,4.6535,4.6535,4.6535,4.6535,4.6535,4.6535,4.6535,4.6535,4.6535,4.6535,4.6535,4.6535,4.6535,4.6535,4.6535,4.6535,4.6535,4.6535,4.6717,4.7208,4.7517,4.7796,4.8474,4.9366,4.9979,5.0172,5.0412,5.0822,5.1011,5.1135,5.1135,5.1135,5.1182,5.1152,5.1229,5.1229,5.1229,5.1229,5.1229,5.1229,5.1229,5.1229,5.1229,5.1229,5.1708,5.2204,5.2852,5.3672,5.4371,5.495,5.5421,5.567,5.6213,5.67,5.7227,5.7778,5.7965,5.8274,5.8321,5.8321,5.8321,5.8321,5.8321,5.8321,5.8321,5.8321,5.8321,5.8321,5.8321,5.8321,5.8321,5.8321,5.8321,5.8321,5.8321,5.8321,5.8321,5.8321,5.8321,5.8321,5.8321,5.8321,5.8321,5.8321,5.8321,5.0519,4.9571,4.9108,4.9355,5.0116,4.9863,5.0105,5.068,5.0644,5.0443,5.0249,5.0084,5.0415,5.0322,4.9534,4.9021,4.8283,4.7263,4.6758,4.6665,4.6535,4.6535,4.6535,4.6535,4.6535,4.6535,4.6535,4.6535,4.6535,4.6535,4.6535,4.6535,4.6535,4.6535,4.6535,4.6535,4.6535,4.6535,4.6535,4.6535,4.6535,4.6535,4.6535,4.6535,4.6535,4.6535,4.6535,4.6535,4.6535,4.6821,4.726,4.7466,4.7897,4.8524,4.9022,4.9415,4.9659,5.0124,5.0508,5.0775,5.087,5.0964,5.1058,5.1058,5.1058,5.1011,5.1011,5.1182,5.1182,5.1212,5.1212,5.1259,5.1259,5.1588,5.2187,5.2785,5.3533,5.4251,5.473,5.5209,5.533,5.5451,5.5899,5.636,5.6892,5.7401,5.7825,5.8089,5.8321,5.8321,5.8321,5.8321,5.8321,5.8321,5.8321,5.8321,5.8321,5.8321,5.8321,5.8321,5.8321,5.8321,5.8321,5.8321,5.8321,5.8321,5.8321,5.8321,5.8321,5.8321,5.8321,5.8321,5.8321,5.8321,5.8321,5.0038,4.9058,4.8959,4.881,4.871,4.9355,4.9571,4.9502,5.0183,5.046,5.004,4.9333,4.9257,4.9582,4.8061,4.7615,4.8013,4.6939,4.6572,4.6453,4.6297,4.643,4.6535,4.6535,4.6535,4.6535,4.6535,4.6535,4.6535,4.6535,4.6535,4.6535,4.6535,4.6535,4.6535,4.6535,4.6535,4.6535,4.6535,4.6535,4.6535,4.6535,4.6535,4.6535,4.6535,4.6535,4.6535,4.6535,4.6535,4.6717,4.7133,4.7184,4.7414,4.7819,4.8324,4.8603,4.8823,4.9219,4.9611,5.0028,5.0172,5.022,5.0316,5.046,5.0412,5.0364,5.0585,5.1041,5.1118,5.1225,5.1302,5.1302,5.1409,5.2247,5.2965,5.3503,5.4162,5.461,5.5059,5.5209,5.5229,5.5451,5.58,5.6262,5.6748,5.7227,5.7731,5.7965,5.8136,5.8228,5.8274,5.8321,5.8321,5.8321,5.8321,5.8321,5.8321,5.8321,5.8321,5.8321,5.8321,5.8321,5.8321,5.8321,5.8321,5.8321,5.8321,5.8321,5.8321,5.8321,5.8321,5.8321,5.8321,5.8321,5.8321]}]]